[[{"header":{"parameterUnit":"m.s-1","parameterCategory":1,"la1":30.6,"la2":29.2853,"lo1":-89.7004,"lo2":-87.6739,"dy":0.0162,"dx":0.0183,"nx":112,"ny":82,"refTime":"2024-05-21T00:00:00:Z","depth":0,"parameterNumber":2,"parameterNumberName":"U-component_of_WINDS"},"data":[0.0,0.0,0.0,0.0,0.0,0.0,0.0,0.0,0.0,0.0,0.0,0.0,0.0,0.0,0.0,0.0,0.0,0.0,0.0,0.0,0.0,0.0,0.0,0.0,0.0,0.0,0.0,0.0,0.0,0.0,0.0,0.0,0.0,0.0,0.0,0.0,0.0,0.0,0.0,0.0,0.0,0.0,0.0,0.0,0.0,0.0,0.0,0.0,0.0,0.0,0.0,0.0,0.0,0.0,0.0,0.0,0.0,0.0,0.0,0.0,0.0,0.0,0.0,0.0,0.0,0.0,0.0,0.0,0.0,0.0,0.0,0.0,0.0,0.0,0.0,0.0,0.0,0.0,0.0,0.0,0.0,0.0,0.0,0.0,0.0,0.0,0.0,0.0,0.0,0.0,0.0,-2.93,-2.615,-2.2645,-1.8903,-1.6443,-1.4037,-1.155,0.0,0.0,0.0,0.0,0.0,0.0,0.0,0.0,0.0,0.0,0.0,0.0,0.0,0.0,0.0,0.0,0.0,0.0,0.0,0.0,0.0,0.0,0.0,0.0,0.0,0.0,0.0,0.0,0.0,0.0,0.0,0.0,0.0,0.0,0.0,0.0,0.0,0.0,0.0,0.0,0.0,0.0,0.0,0.0,0.0,0.0,0.0,0.0,0.0,0.0,0.0,0.0,0.0,0.0,0.0,0.0,0.0,0.0,0.0,0.0,0.0,0.0,0.0,0.0,0.0,0.0,0.0,0.0,0.0,0.0,0.0,0.0,0.0,0.0,0.0,0.0,0.0,0.0,0.0,0.0,0.0,0.0,0.0,0.0,0.0,0.0,0.0,0.0,0.0,0.0,0.0,0.0,0.0,0.0,0.0,0.0,0.0,0.0,0.0,0.0,0.0,0.0,0.0,0.0,-2.8116,-2.9179,-2.6571,-2.3807,-2.1429,-1.7495,-1.4464,-1.2742,0.0,0.0,0.0,0.0,0.0,0.0,0.0,0.0,0.0,0.0,0.0,0.0,0.0,0.0,0.0,0.0,0.0,0.0,0.0,0.0,0.0,0.0,0.0,0.0,0.0,0.0,0.0,0.0,0.0,0.0,0.0,0.0,0.0,0.0,0.0,0.0,0.0,0.0,0.0,0.0,0.0,0.0,0.0,0.0,0.0,0.0,0.0,0.0,0.0,0.0,0.0,0.0,0.0,0.0,0.0,0.0,0.0,0.0,0.0,0.0,0.0,0.0,0.0,0.0,0.0,0.0,0.0,0.0,0.0,0.0,0.0,0.0,0.0,0.0,0.0,0.0,0.0,0.0,0.0,0.0,0.0,0.0,0.0,0.0,0.0,0.0,0.0,0.0,0.0,0.0,0.0,0.0,0.0,0.0,0.0,0.0,0.0,0.0,0.0,0.0,0.0,0.0,0.0,-2.8927,-2.9168,-2.9582,-2.7743,-2.5061,-2.1628,-1.8405,-1.5558,-1.3218,-1.0753,0.0,0.0,0.0,0.0,0.0,0.0,0.0,0.0,0.0,0.0,0.0,0.0,0.0,0.0,0.0,0.0,0.0,0.0,0.0,0.0,0.0,0.0,0.0,0.0,0.0,0.0,0.0,0.0,0.0,0.0,0.0,0.0,0.0,0.0,0.0,0.0,0.0,0.0,0.0,0.0,0.0,0.0,0.0,0.0,0.0,0.0,0.0,0.0,0.0,0.0,0.0,0.0,0.0,0.0,0.0,0.0,0.0,0.0,0.0,0.0,0.0,0.0,0.0,0.0,0.0,0.0,0.0,0.0,0.0,0.0,0.0,0.0,0.0,0.0,0.0,0.0,0.0,0.0,0.0,0.0,0.0,0.0,0.0,0.0,0.0,0.0,0.0,0.0,0.0,0.0,0.0,0.0,0.0,0.0,0.0,0.0,0.0,0.0,0.0,0.0,0.0,0.0,-3.1621,-3.0945,-3.0376,-2.8867,-2.6354,-2.2491,-1.9386,-1.6552,-1.3943,-1.0885,0.0,0.0,0.0,0.0,0.0,0.0,0.0,0.0,0.0,0.0,0.0,0.0,0.0,0.0,0.0,0.0,0.0,0.0,0.0,0.0,0.0,0.0,0.0,0.0,0.0,0.0,0.0,0.0,0.0,0.0,0.0,0.0,0.0,0.0,0.0,0.0,0.0,0.0,0.0,0.0,0.0,0.0,0.0,0.0,0.0,0.0,0.0,0.0,0.0,0.0,0.0,0.0,0.0,0.0,0.0,0.0,0.0,0.0,0.0,0.0,0.0,0.0,0.0,0.0,0.0,0.0,0.0,0.0,0.0,0.0,0.0,0.0,0.0,0.0,0.0,0.0,0.0,0.0,0.0,0.0,0.0,0.0,0.0,0.0,0.0,0.0,0.0,0.0,0.0,0.0,0.0,0.0,0.0,0.0,0.0,0.0,0.0,0.0,0.0,0.0,0.0,0.0,-3.1225,-3.248,-3.1596,-2.9478,-2.7538,-2.5963,-2.0731,-1.6943,-1.5604,-1.1665,0.0,0.0,0.0,0.0,0.0,0.0,0.0,0.0,0.0,0.0,0.0,0.0,0.0,0.0,0.0,0.0,0.0,0.0,0.0,0.0,0.0,0.0,0.0,0.0,0.0,0.0,0.0,0.0,0.0,0.0,0.0,0.0,0.0,0.0,0.0,0.0,0.0,0.0,0.0,0.0,0.0,0.0,0.0,0.0,0.0,0.0,0.0,0.0,0.0,0.0,0.0,0.0,0.0,0.0,0.0,0.0,0.0,0.0,0.0,0.0,0.0,0.0,0.0,0.0,0.0,0.0,0.0,0.0,0.0,0.0,0.0,0.0,0.0,0.0,0.0,0.0,0.0,0.0,0.0,0.0,0.0,0.0,0.0,0.0,0.0,0.0,0.0,0.0,0.0,0.0,0.0,0.0,0.0,0.0,0.0,0.0,0.0,0.0,0.0,0.0,0.0,0.0,-2.9848,-3.1474,0.0,-3.0162,-2.825,-2.5849,-2.1777,-1.8121,-1.5203,0.0,0.0,0.0,0.0,0.0,0.0,0.0,0.0,0.0,0.0,0.0,0.0,0.0,0.0,0.0,0.0,0.0,0.0,0.0,0.0,0.0,0.0,0.0,0.0,0.0,0.0,0.0,0.0,0.0,0.0,0.0,0.0,0.0,0.0,0.0,0.0,0.0,0.0,0.0,0.0,0.0,0.0,0.0,0.0,0.0,0.0,0.0,0.0,0.0,0.0,0.0,0.0,0.0,0.0,0.0,0.0,0.0,0.0,0.0,0.0,0.0,0.0,0.0,0.0,0.0,0.0,0.0,0.0,0.0,0.0,0.0,0.0,0.0,0.0,0.0,0.0,0.0,0.0,0.0,0.0,0.0,0.0,0.0,0.0,0.0,0.0,0.0,0.0,0.0,0.0,0.0,0.0,0.0,0.0,0.0,0.0,0.0,0.0,0.0,0.0,0.0,0.0,-2.6109,-2.8947,-3.0796,0.0,-2.9927,-2.8252,-2.5799,-2.21,-1.8476,-1.5115,0.0,0.0,0.0,0.0,0.0,0.0,0.0,0.0,0.0,0.0,0.0,0.0,0.0,0.0,0.0,0.0,0.0,0.0,0.0,0.0,0.0,0.0,0.0,0.0,0.0,0.0,0.0,0.0,0.0,0.0,0.0,0.0,0.0,0.0,0.0,0.0,0.0,0.0,0.0,0.0,0.0,0.0,0.0,0.0,0.0,0.0,0.0,0.0,0.0,0.0,0.0,0.0,0.0,0.0,0.0,0.0,0.0,0.0,0.0,0.0,0.0,0.0,0.0,0.0,0.0,0.0,0.0,0.0,0.0,0.0,0.0,0.0,0.0,0.0,0.0,0.0,0.0,0.0,0.0,0.0,0.0,0.0,0.0,0.0,0.0,0.0,0.0,0.0,0.0,0.0,0.0,0.0,0.0,0.0,0.0,0.0,0.0,0.0,0.0,0.0,0.0,0.0,-2.5017,-2.8673,-3.0811,-2.9778,-2.8682,-2.7486,-2.6298,-2.1593,-1.7788,0.0,0.0,0.0,0.0,0.0,0.0,0.0,0.0,0.0,0.0,0.0,0.0,0.0,0.0,0.0,0.0,0.0,0.0,0.0,0.0,0.0,0.0,0.0,0.0,0.0,0.0,0.0,0.0,0.0,0.0,0.0,0.0,0.0,0.0,0.0,0.0,0.0,0.0,0.0,0.0,0.0,0.0,0.0,0.0,0.0,0.0,0.0,0.0,0.0,0.0,0.0,0.0,0.0,0.0,0.0,0.0,0.0,0.0,0.0,0.0,0.0,0.0,0.0,0.0,0.0,0.0,0.0,0.0,0.0,0.0,0.0,0.0,0.0,0.0,0.0,0.0,0.0,0.0,0.0,0.0,0.0,0.0,0.0,0.0,0.0,0.0,0.0,0.0,0.0,0.0,0.0,0.0,0.0,0.0,0.0,0.0,0.0,0.0,0.0,0.0,0.0,0.0,0.0,-2.3852,-2.7486,-2.9816,-2.9438,-2.7878,-2.6418,-2.5323,-2.1169,-1.7204,-1.3897,0.0,0.0,0.0,0.0,0.0,0.0,0.0,0.0,0.0,0.0,0.0,0.0,0.0,0.0,0.0,0.0,0.0,0.0,0.0,0.0,0.0,0.0,0.0,0.0,0.0,0.0,0.0,0.0,0.0,0.0,0.0,0.0,0.0,0.0,0.0,0.0,0.0,0.0,0.0,0.0,0.0,0.0,0.0,0.0,0.0,0.0,0.0,0.0,0.0,0.0,0.0,0.0,0.0,0.0,0.0,0.0,0.0,0.0,0.0,0.0,0.0,0.0,0.0,0.0,0.0,0.0,0.0,0.0,0.0,0.0,0.0,0.0,0.0,0.0,0.0,0.0,0.0,0.0,0.0,0.0,0.0,0.0,0.0,0.0,0.0,0.0,0.0,0.0,0.0,0.0,0.0,0.0,0.0,0.0,0.0,0.0,0.0,0.0,0.0,0.0,0.0,0.0,-2.3007,-2.6336,-2.8575,-2.8448,-2.6765,-2.5218,-2.4217,-2.066,-1.6899,-1.3216,0.0,0.0,0.0,0.0,0.0,0.0,0.0,0.0,0.0,0.0,0.0,0.0,0.0,0.0,0.0,0.0,0.0,0.0,0.0,0.0,0.0,0.0,0.0,0.0,0.0,0.0,0.0,0.0,0.0,0.0,0.0,0.0,0.0,0.0,0.0,0.0,0.0,0.0,0.0,0.0,0.0,0.0,0.0,0.0,0.0,0.0,0.0,0.0,0.0,0.0,0.0,0.0,0.0,0.0,0.0,0.0,0.0,0.0,0.0,0.0,0.0,0.0,0.0,0.0,0.0,0.0,0.0,0.0,0.0,0.0,0.0,0.0,0.0,0.0,0.0,0.0,0.0,0.0,0.0,0.0,0.0,0.0,0.0,0.0,0.0,0.0,0.0,0.0,0.0,0.0,0.0,0.0,0.0,0.0,0.0,0.0,0.0,0.0,0.0,0.0,0.0,0.0,-2.2487,-2.5392,-2.7256,-2.6996,-2.5473,-2.4066,-2.3145,-2.015,-1.6814,-1.3295,0.0,0.0,0.0,0.0,0.0,0.0,0.0,0.0,0.0,0.0,0.0,0.0,0.0,0.0,0.0,0.0,0.0,0.0,0.0,0.0,0.0,0.0,0.0,0.0,0.0,0.0,0.0,0.0,0.0,0.0,0.0,0.0,0.0,0.0,0.0,0.0,0.0,0.0,0.0,0.0,0.0,0.0,0.0,0.0,0.0,0.0,0.0,0.0,0.0,0.0,0.0,0.0,0.0,0.0,0.0,0.0,0.0,0.0,0.0,0.0,-1.9472,0.0,0.0,0.0,0.0,0.0,0.0,0.0,0.0,0.0,0.0,0.0,0.0,0.0,0.0,0.0,0.0,0.0,0.0,0.0,0.0,0.0,0.0,0.0,0.0,0.0,0.0,0.0,0.0,0.0,0.0,0.0,0.0,0.0,0.0,0.0,0.0,0.0,0.0,0.0,0.0,0.0,-2.2552,-2.5286,-2.6831,-2.5989,-2.4898,-2.3843,-2.302,-2.0181,-1.6895,-1.3191,-0.9515,0.0,0.0,0.0,0.0,0.0,0.0,0.0,0.0,0.0,0.0,0.0,0.0,0.0,0.0,0.0,0.0,0.0,0.0,0.0,0.0,0.0,0.0,0.0,0.0,0.0,0.0,0.0,0.0,0.0,0.0,0.0,0.0,0.0,0.0,0.0,0.0,0.0,0.0,0.0,0.0,0.0,0.0,0.0,0.0,0.0,0.0,0.0,0.0,0.0,0.0,0.0,0.0,0.0,0.0,0.0,0.0,0.0,0.0,0.0,0.0,-2.1834,0.0,0.0,0.0,0.0,0.0,0.0,0.0,0.0,0.0,0.0,0.0,0.0,0.0,0.0,0.0,0.0,0.0,0.0,0.0,0.0,0.0,0.0,0.0,0.0,0.0,0.0,0.0,0.0,0.0,0.0,0.0,0.0,0.0,0.0,0.0,0.0,0.0,0.0,0.0,0.0,-2.3029,-2.517,-2.6502,-2.6273,-2.5051,-2.3953,-2.3216,-2.0788,-1.7677,-1.3853,-1.0361,0.0,0.0,0.0,0.0,0.0,0.0,0.0,0.0,0.0,0.0,0.0,0.0,0.0,0.0,0.0,0.0,0.0,0.0,0.0,0.0,0.0,0.0,0.0,0.0,0.0,0.0,0.0,0.0,0.0,0.0,0.0,0.0,0.0,0.0,0.0,0.0,0.0,0.0,0.0,0.0,0.0,0.0,0.0,0.0,0.0,0.0,0.0,0.0,0.0,0.0,0.0,0.0,0.0,-3.0053,-3.0882,-3.1521,-3.1491,-3.1891,-3.2418,-2.891,-2.789,-2.8413,-2.4416,0.0,0.0,0.0,0.0,0.0,0.0,0.0,0.0,0.0,0.0,0.0,0.0,0.0,0.0,0.0,0.0,0.0,0.0,0.0,0.0,0.0,0.0,0.0,0.0,-2.5396,-2.4562,0.0,0.0,0.0,0.0,0.0,0.0,0.0,0.0,0.0,0.0,0.0,0.0,-2.3819,-2.5356,-2.6396,-2.6705,-2.5482,-2.4367,-2.376,-2.1913,-1.9193,-1.5517,-1.2142,-0.8584,0.0,0.0,0.0,0.0,0.0,0.0,0.0,0.0,0.0,0.0,0.0,0.0,0.0,0.0,0.0,0.0,0.0,0.0,0.0,0.0,0.0,0.0,0.0,0.0,0.0,0.0,0.0,0.0,0.0,0.0,0.0,0.0,-1.7559,-2.0349,0.0,0.0,0.0,0.0,0.0,0.0,0.0,0.0,0.0,0.0,0.0,0.0,0.0,-2.82,-3.0095,-3.1718,-3.2571,-3.2654,-3.4265,-3.5065,-3.5115,-3.5054,-3.5146,-3.5323,-3.4726,0.0,-3.1125,-2.9614,0.0,0.0,0.0,0.0,0.0,0.0,0.0,0.0,0.0,0.0,0.0,0.0,0.0,0.0,0.0,0.0,0.0,0.0,0.0,0.0,0.0,0.0,-2.8508,-2.7764,-2.8234,-2.8389,0.0,-2.3425,-2.0822,-2.0939,-2.0292,0.0,0.0,0.0,0.0,0.0,0.0,0.0,-2.5139,-2.6365,-2.6811,-2.6206,-2.576,-2.5368,-2.4909,-2.38,-2.1907,-1.8936,-1.5178,-1.172,-0.8669,-0.4306,0.0,0.0,0.0,0.0,0.0,0.0,0.0,0.0,0.0,0.0,0.0,0.0,0.0,0.0,0.0,0.0,0.0,0.0,0.0,0.0,0.0,0.0,0.0,0.0,0.0,0.0,0.0,0.0,0.0,-1.5992,-2.0458,-2.1562,-2.2573,-2.2643,0.0,0.0,0.0,0.0,0.0,0.0,0.0,0.0,0.0,-3.174,-3.1837,-3.2442,-3.3707,-3.4492,-3.4835,-3.4765,-3.5549,-3.5843,-3.5797,-3.5722,-3.5788,-3.5894,-3.5823,-3.5388,-3.4567,-3.303,-3.0733,-2.8126,0.0,0.0,0.0,0.0,-2.4703,-2.399,-2.535,-2.4968,0.0,-2.2646,0.0,0.0,0.0,0.0,0.0,0.0,0.0,0.0,0.0,0.0,-2.9085,-2.9468,-2.9726,-2.9802,-2.9406,-2.7817,-2.6048,0.0,-2.5027,-2.4403,-2.1267,0.0,0.0,0.0,0.0,-2.4853,-2.5769,-2.6621,-2.6943,-2.6398,-2.6259,-2.5979,-2.5496,-2.5092,-2.3526,-2.051,-1.8029,-1.4809,-1.0659,-0.7407,-0.4425,0.0,0.0,0.0,0.0,0.0,0.0,0.0,0.0,0.0,0.0,0.0,0.0,0.0,0.0,0.0,0.0,0.0,0.0,0.0,0.0,0.0,0.0,0.0,0.0,0.0,0.0,0.0,0.0,-1.9129,-2.2829,-2.3274,-2.5585,-2.6312,0.0,0.0,0.0,0.0,0.0,0.0,-3.2238,-3.2426,-3.3351,-3.5285,-3.537,-3.5577,-3.6015,-3.6015,-3.5967,-3.5944,-3.5897,-3.5882,-3.583,-3.5736,-3.5761,-3.5916,-3.5828,-3.6129,-3.6557,-3.5251,-3.382,-3.2345,-3.1281,-3.0039,-2.8906,-2.9365,-2.8327,-2.7046,-2.8972,-2.8514,-2.6877,-2.5811,-2.5469,-2.5163,-2.3522,0.0,0.0,0.0,0.0,-2.5737,-2.7905,-2.8677,-2.9141,-3.022,-3.046,-3.041,-3.05,-3.0707,-3.0309,0.0,-2.8922,-2.8551,-2.4677,0.0,0.0,0.0,0.0,-2.5805,-2.6447,-2.6837,-2.6974,-2.6657,-2.664,-2.6471,-2.6009,-2.5897,-2.4765,-2.2167,-2.0291,-1.7284,-1.2862,-1.0324,-0.7317,-0.3694,0.0,0.0,0.0,0.0,0.0,0.0,0.0,0.0,0.0,0.0,0.0,0.0,0.0,0.0,0.0,0.0,0.0,0.0,0.0,0.0,0.0,0.0,0.0,0.0,0.0,0.0,0.0,0.0,0.0,-2.7552,-2.9987,0.0,0.0,0.0,0.0,-3.1375,-3.2373,-3.4054,-3.6726,-3.6898,-3.6951,-3.7163,-3.7178,-3.6792,-3.6011,-3.6013,-3.6001,-3.5991,-3.5941,-3.5898,-3.5875,-3.5754,-3.5768,-3.5888,-3.5828,-3.5779,-3.5787,-3.6288,-3.6189,-3.572,-3.5324,-3.3981,-3.2211,-3.2078,-3.1003,-2.96,-2.9598,-2.855,-2.7291,-2.7919,-2.7268,-2.6496,-2.7821,-2.7363,0.0,0.0,-2.8196,-2.8532,-2.9544,-2.9841,-2.9837,-2.9907,-3.0334,-3.0616,-3.0293,-3.1145,-3.1941,0.0,-3.1307,-3.0756,-2.9945,0.0,-2.7692,-2.7677,-2.6705,-2.6362,-2.7467,-2.726,-2.6925,-2.6708,-2.6758,-2.6757,-2.674,-2.6336,-2.5685,-2.4749,-2.1602,-1.8676,-1.625,-1.2523,-0.9126,-0.6175,-0.3559,0.0,0.0,0.0,0.0,0.0,0.0,0.0,0.0,0.0,0.0,0.0,0.0,0.0,0.0,0.0,0.0,0.0,0.0,0.0,0.0,0.0,0.0,0.0,0.0,0.0,0.0,0.0,0.0,-3.032,-3.2285,0.0,-3.0781,-3.1356,-3.2104,-3.2759,-3.4146,-3.5853,-3.7949,-3.8048,-3.8297,-3.8895,-3.8942,-3.8281,-3.6836,-3.6833,-3.6551,-3.5992,-3.5919,-3.5883,-3.5895,-3.5803,-3.5801,-3.589,-3.5879,-3.6127,-3.6618,-3.6665,-3.6458,-3.6196,-3.6878,-3.5948,-3.4127,-3.3866,-3.2422,-3.0608,-3.044,-2.9386,-2.8332,-2.919,-2.886,-2.8476,-3.0062,-2.9932,-2.9365,-2.9948,-2.997,-2.9846,-3.0251,-3.0192,-3.0009,-2.9904,-2.9966,-3.0075,-3.0185,-3.0771,-3.1407,-3.1875,-3.2372,-3.2208,-3.0603,-2.9884,-2.9145,-2.8038,-2.7357,-2.7137,-2.7597,-2.731,-2.7006,-2.6842,-2.6842,-2.6859,-2.6808,-2.5829,-2.4952,-2.4309,-2.2042,-1.9374,-1.6319,-1.4129,-1.1204,-0.7403,-0.5593,-0.3657,0.0,0.0,0.0,0.0,0.0,0.0,0.0,0.0,0.0,0.0,0.0,0.0,0.0,0.0,0.0,0.0,0.0,0.0,0.0,0.0,0.0,0.0,0.0,0.0,0.0,0.0,-3.1857,-3.2524,-3.4461,-3.498,-3.3046,-3.3925,-3.4601,-3.4618,-3.5683,-3.71,-3.8869,-3.8921,-3.9206,-3.9802,-3.9883,-3.9062,-3.7304,-3.73,-3.6863,-3.5992,-3.5929,-3.5899,-3.5905,-3.556,-3.5434,-3.5459,-3.5455,-3.5734,-3.6236,-3.656,-3.6328,-3.5894,-3.7174,-3.6606,-3.4986,-3.447,-3.2885,-3.093,-3.0251,-2.9363,-2.8737,-2.9693,-2.9725,-2.9689,-3.1471,-3.1636,-3.1253,-3.1543,-3.1296,-3.0941,-3.0778,-3.0456,-3.0066,-2.9931,-2.973,-2.9664,-3.0076,-3.0414,-3.0931,-3.1822,-3.2616,-3.2631,-3.106,-3.0523,-2.986,-2.8402,-2.7716,-2.7373,-2.7465,-2.7247,-2.699,-2.6792,-2.6926,-2.6806,-2.6286,-2.5103,-2.4084,-2.3405,-2.1537,-1.9316,-1.6674,-1.508,-1.2453,-0.8587,-0.6708,-0.4539,-0.2033,0.0,0.0,0.0,0.0,0.0,0.0,0.0,0.0,0.0,0.0,0.0,0.0,0.0,0.0,0.0,0.0,0.0,0.0,0.0,0.0,0.0,0.0,0.0,-2.8053,-3.1548,-3.4176,-3.4396,-3.6668,-3.7319,-3.4952,-3.6172,-3.7104,-3.7168,-3.7169,-3.791,-3.9674,-3.9753,-3.9799,-3.9922,-3.9921,-3.91,-3.7382,-3.7336,-3.6897,-3.603,-3.5935,-3.5907,-3.583,-3.4996,-3.4592,-3.4601,-3.4597,-3.4562,-3.464,-3.6096,-3.5952,-3.5021,-3.6382,-3.6086,-3.4857,-3.3935,-3.2428,-3.064,-2.9052,-2.8419,-2.8482,-2.9519,-2.9789,-3.0076,-3.214,-3.2496,-3.2205,-3.2488,-3.2241,-3.1736,-3.119,-3.0572,-3.0064,-2.9897,-2.9541,-2.939,-2.9857,-3.0246,-3.0784,-3.1694,-3.2091,-3.2124,-3.1614,-3.0804,-2.9914,-2.9158,-2.7892,0.0,-2.7184,-2.7071,-2.6876,-2.6537,-2.6925,-2.6649,-2.5364,-2.4264,-2.3254,-2.2337,-2.012,-1.8434,-1.7478,-1.5391,-1.2799,-0.9746,-0.6823,-0.4435,-0.2624,0.0,0.0,0.0,0.0,0.0,0.0,0.0,0.0,0.0,0.0,0.0,0.0,0.0,0.0,0.0,0.0,0.0,0.0,0.0,0.0,0.0,0.0,-3.344,-3.3333,-3.5395,-3.7368,-3.8704,-3.8961,-3.8611,-3.7417,-3.7134,-3.6822,-3.6289,-3.6315,-3.7082,-3.8781,-3.8853,-3.9441,-4.0739,-4.0781,-4.0273,-3.9218,-3.8501,-3.7743,-3.6873,-3.6196,-3.5551,-3.4945,-3.4759,-3.4668,-3.4662,-3.4606,-3.4909,-3.5443,-3.5713,-3.5472,-3.5113,-3.6404,-3.5726,-3.4019,-3.3702,-3.2037,-2.98,-2.8779,-2.8327,-2.8356,-2.9071,-2.9467,-2.9937,-3.1658,-3.1704,-3.1273,-3.1742,-3.1481,-3.0809,-2.9887,-2.9566,-2.9463,-2.9229,-2.8895,-2.8838,-2.957,-3.0054,-3.0559,-3.1254,-3.1728,-3.2092,-3.2273,-3.0994,-3.0062,-3.0279,-2.8388,0.0,-2.7521,-2.7063,-2.6657,-2.6589,-2.659,-2.6522,-2.6252,-2.3791,-2.2174,-2.1936,-1.9233,-1.7299,-1.6504,-1.5539,-1.3292,-0.9687,-0.7313,-0.5857,0.0,0.0,0.0,0.0,0.0,0.0,0.0,0.0,0.0,0.0,0.0,0.0,0.0,0.0,0.0,0.0,0.0,0.0,0.0,0.0,0.0,0.0,-3.4418,-3.7254,-3.8554,-3.8895,-3.9523,-4.0954,-4.0374,-3.9419,-3.8321,-3.7763,-3.7058,-3.5941,-3.5936,-3.6522,-3.7889,-3.7963,-3.882,-4.0541,-4.0586,-4.035,-3.9878,-3.8961,-3.8077,-3.7201,-3.6306,-3.5634,-3.5146,-3.4822,-3.4685,-3.4658,-3.4256,-3.4362,-3.4767,-3.4919,-3.4756,0.0,0.0,0.0,0.0,0.0,-3.0803,-2.8474,-2.8004,-2.7759,-2.778,-2.8285,-2.8996,-2.9903,-3.1038,-3.1198,-3.1052,-3.1461,-3.1202,-3.0739,-3.0149,-2.9857,-2.9699,-2.9663,-2.9134,-2.8885,-2.9679,-3.001,-3.0339,-3.1072,-3.1579,0.0,-3.2335,-3.097,-2.9949,-3.0162,-2.8186,-2.691,-2.7546,-2.6887,-2.6417,-2.6417,-2.647,-2.6369,-2.5964,-2.3998,0.0,0.0,0.0,-1.7272,-1.547,-1.4655,0.0,0.0,0.0,0.0,0.0,0.0,0.0,0.0,-0.7305,-0.8558,0.0,0.0,0.0,0.0,0.0,0.0,0.0,0.0,0.0,0.0,0.0,0.0,0.0,0.0,0.0,0.0,-3.7627,-3.9926,-4.2981,-4.1789,-4.0939,-4.1848,-4.1078,-3.986,-3.8215,-3.8047,-3.7398,-3.5885,-3.5855,-3.6279,-3.7146,0.0,0.0,0.0,0.0,-3.9879,-3.9793,-3.8947,-3.8173,-3.7481,-3.6414,-3.5909,-3.585,-3.5069,-3.4647,-3.4568,-3.3748,-3.3427,-3.3501,-3.4002,-3.4095,-3.3971,-3.4418,-3.4186,-3.3382,-3.1565,-2.9296,-2.7095,-2.7124,0.0,0.0,-2.7484,-2.8615,-2.9901,-3.0432,-3.0811,-3.1092,-3.1336,-3.1217,-3.0989,-3.1063,-3.0712,-3.0352,-3.0481,-2.9735,-2.9215,-2.9943,-2.9981,-3.0149,-3.0978,-3.1542,-3.1877,-3.1897,-3.0716,-2.971,-2.9558,-2.7741,-2.6668,-2.7402,-2.6658,-2.6137,-2.6203,0.0,0.0,-2.5207,-2.458,-2.3435,-2.1613,-2.0004,-1.7842,-1.4927,-1.3759,-1.2645,-1.153,-1.0629,-1.0723,-1.1774,-1.1657,-1.2169,-1.3183,-1.1253,-1.1775,0.0,0.0,0.0,0.0,0.0,0.0,0.0,0.0,0.0,0.0,0.0,0.0,0.0,0.0,0.0,-3.6905,-3.957,-4.2022,-4.3366,-4.2542,-4.206,-4.2837,-4.1455,-3.9753,-3.8115,-3.7326,-3.658,-3.5693,-3.5752,-3.6253,-3.7218,-3.7304,-3.7768,-3.8822,-3.9492,-3.9803,-3.9796,-3.8937,-3.873,-3.9194,0.0,0.0,-3.5886,-3.501,-3.4647,-3.4632,-3.3788,-3.3741,-3.435,-3.4305,-3.4368,-3.4469,-3.4176,-3.3179,-3.1788,-3.1061,-2.9233,-2.7166,-2.779,-2.7509,-2.7028,-2.7706,-2.8759,-2.9764,-2.9991,-3.0051,0.0,-3.0748,-3.0566,-3.0095,-2.9948,-3.0195,-3.028,-2.9497,-2.9178,-2.9117,-2.9538,-2.9714,-3.0054,-3.0831,-3.1332,-3.1448,-3.0827,-3.0179,-2.985,-3.0228,-2.815,-2.6737,-2.7256,-2.6652,-2.6188,-2.6277,-2.6152,-2.605,-2.606,-2.4526,-2.3159,-2.2183,-1.9593,-1.7855,-1.7332,-1.608,-1.4943,-1.4024,-1.3454,-1.3267,-1.3432,-1.3441,-1.4529,-1.6431,-1.4484,-1.464,0.0,0.0,0.0,0.0,0.0,0.0,0.0,0.0,0.0,0.0,0.0,-3.5668,0.0,0.0,-4.0108,-4.0974,-4.2181,-4.3281,-4.4111,-4.3401,-4.2925,-4.3208,-4.1216,-3.9314,-3.8001,-3.7095,-3.6322,-3.5593,-3.5685,-3.5994,-3.6567,-3.6635,-3.7031,-3.7923,-3.8359,-3.8941,-3.975,-3.8924,-3.8903,-3.9695,-3.7969,-3.6936,-3.6485,-3.6097,-3.5693,-3.5241,-3.4411,-3.4253,-3.4517,-3.4185,-3.4271,-3.4599,-3.4203,-3.3228,-3.1948,-3.1233,-2.9606,-2.7733,-2.7598,-2.7268,-2.6957,-2.7307,-2.8529,-2.9828,-2.9709,-2.9861,-3.0261,-3.0749,-3.0505,-3.0167,-3.0456,-3.0763,-3.079,-3.0048,-2.9693,-2.9577,-2.9675,-2.9739,-2.9946,-3.0426,-3.0735,-3.0745,-3.0296,-2.9416,-2.9007,-2.9653,-2.7856,-2.6631,-2.7127,-2.6469,-2.599,-2.6099,-2.6008,-2.599,-2.6099,-2.4468,-2.319,-2.2638,-1.9957,-1.8207,-1.7756,-1.6625,-1.5689,-1.5059,-1.5257,-1.5553,-1.6005,-1.6769,-1.8278,-2.0456,-2.0322,-2.0087,0.0,0.0,0.0,0.0,0.0,0.0,0.0,0.0,-3.4869,-3.7492,-3.9194,-4.0726,-4.2454,-4.2824,-4.325,-4.4463,-4.4413,-4.4367,-4.4862,-4.4259,-4.361,-4.3152,-4.0788,-3.8885,-3.7993,-3.6972,-3.6096,-3.5528,-3.562,-3.5761,-3.5897,-3.5949,-3.6324,-3.7029,-3.7381,-3.8152,-3.9462,-3.8995,-3.9169,-3.9941,-3.8887,-3.8124,-3.7587,-3.7294,-3.6809,-3.6111,-3.5114,-3.4596,-3.4411,-3.3993,-3.4112,-3.4561,-3.4335,-3.3722,-3.2784,-3.1574,-2.9955,-2.8288,-2.7469,-2.7055,-2.6934,-2.709,-2.8455,-2.9922,-2.954,-2.9867,-3.0488,-3.0728,-3.0416,-3.0212,-3.0992,-3.115,-3.0971,-3.0451,-3.0148,-2.9909,-2.9724,-2.974,-2.9805,-3.0009,-3.0109,-3.001,-2.9597,-2.8583,-2.8027,-2.8705,-2.7324,-2.6405,-2.6817,-2.619,-2.5775,-2.5899,-2.5936,-2.587,-2.5666,-2.4332,-2.3357,-2.2941,-2.0664,-1.9018,-1.8234,-1.7302,-1.6685,-1.6347,-1.708,-1.798,-1.9027,-2.0348,-2.2103,-2.4202,-2.5913,-2.5631,-2.6075,-2.8823,-3.1932,-3.609,-3.6046,-3.7207,0.0,0.0,-4.2859,-4.5475,-4.6152,-4.5958,-4.4759,-4.4514,-4.44,-4.392,-4.5065,-4.5778,-4.5072,-4.485,-4.4142,-4.2521,-4.0516,-3.8929,-3.7993,-3.6412,-3.5451,-3.5483,-3.563,-3.5745,-3.5908,-3.5942,-3.6045,-3.6126,-3.765,-3.8501,-3.8631,-3.9301,-4.0075,-4.0827,-3.9177,-3.8762,-3.9377,-3.7828,-3.7085,-3.6943,-3.5309,-3.4469,-3.4216,-3.3906,-3.4112,-3.4572,-3.4381,-3.4117,-3.3646,-3.1845,-3.0031,-2.8373,-2.8219,-2.7598,-2.7041,-2.7794,-2.8945,-2.9922,-2.954,-2.9753,-3.013,-3.0124,-2.9552,-2.9109,-2.9813,-2.9856,-2.9621,-2.9121,-2.9276,-2.9385,-2.8934,-2.9275,-2.961,-2.9506,-2.9662,-2.9422,-2.8098,-2.7657,-2.7593,-2.7977,-2.6898,-2.6078,-2.6107,-2.5968,-2.5899,-2.599,-2.583,-2.5477,-2.4806,-2.4109,-2.3473,-2.2908,-2.1458,-2.0638,-2.0692,-2.0065,-1.9721,-1.9737,-1.9981,-2.0788,-2.2288,-2.3079,-2.454,-2.6568,-2.8422,-2.8767,-3.5534,-3.7024,0.0,0.0,-4.3683,-4.4801,-4.8264,-4.7656,-4.6532,-4.7133,-4.7281,-4.694,-4.5721,-4.552,-4.5648,0.0,-4.6528,-4.6863,-4.6523,-4.51,-4.3663,-4.2423,-4.0148,-3.8346,-3.7366,-3.6122,-3.5391,-3.5534,-3.5658,-3.5758,-3.5836,-3.5955,-3.5992,-3.6004,-3.6705,-3.7555,-3.8473,-3.8878,-3.9692,-4.0987,-4.0278,-3.9846,-3.9691,-3.8937,-3.8101,-3.7116,-3.585,-3.5107,-3.482,-3.4596,-3.4472,-3.4473,-3.4323,-3.413,-3.3769,-3.1946,-3.0691,-2.9741,-2.869,-2.8018,-2.7736,-2.8166,-2.9162,-3.0117,-2.9773,-3.0073,-3.0471,-3.0284,-2.9675,-2.9164,-2.9576,-2.9619,-2.9439,-2.9014,-2.9093,-2.9064,-2.8288,-2.8496,-2.8704,-2.8325,-2.8181,-2.7954,-2.7269,-2.6681,-2.6381,-2.6436,-2.6169,-2.5881,-2.5696,-2.5807,-2.5972,-2.6137,-2.5975,-2.5643,-2.5111,-2.4381,-2.3717,-2.3231,-2.1754,-2.1056,-2.1387,-2.0648,-2.0274,-2.0347,-2.1415,-2.2203,-2.2755,-2.4841,-2.6607,-2.8044,-2.9967,-3.112,-4.0688,0.0,0.0,-4.692,-4.9181,-5.0318,-4.9684,-4.9543,-4.9233,-4.8114,-4.7553,-4.6899,-4.5803,-4.5463,-4.568,-4.6612,-4.7164,-4.7512,-4.7537,-4.5465,-4.3573,-4.2465,-3.9983,-3.8054,-3.7293,-3.6377,-3.5789,-3.5637,-3.5699,-3.5888,-3.6133,-3.6281,-3.6323,-3.6344,-3.6573,-3.7152,-3.8116,-3.8368,-3.9231,-4.0653,-4.0641,-4.0429,-4.0062,-3.9828,-3.8772,-3.7165,-3.6476,-3.5856,-3.5328,-3.507,-3.4773,-3.4416,-3.4203,-3.4055,-3.3744,-3.1971,-3.1157,-3.0726,-2.8945,-2.8259,-2.8241,-2.834,-2.9248,-3.0207,-2.9741,-3.0085,-3.0572,-2.9949,-2.9342,-2.8936,-2.9064,-2.9105,-2.9012,-2.8737,-2.8869,-2.8756,-2.7822,-2.7929,-2.8029,-2.7304,-2.7008,-2.6762,-2.6496,-2.5907,-2.5381,-2.5188,-2.5451,-2.5565,-2.5355,-2.5659,-2.5972,-2.6188,-2.6134,-2.5825,-2.5161,-2.4559,-2.3887,-2.3154,-2.205,-2.1684,-2.216,-2.1618,-2.1425,-2.1707,-2.3154,-2.3865,-2.3844,-2.6514,-2.8357,-2.9431,-3.1224,-3.2696,0.0,0.0,-4.6387,-4.8972,-5.0937,-5.2206,-5.2206,-5.2196,-5.1714,-4.9974,-4.828,-4.6602,-4.4931,-4.3993,-4.3801,-4.4713,-4.6352,-4.7521,-4.7606,-4.6052,-4.4336,-4.2613,-4.009,-3.8451,0.0,-3.7518,-3.6594,-3.5775,-3.5803,-3.6229,-3.7011,-3.7133,-3.7157,-3.7157,-3.799,-3.8029,-3.7235,-3.808,-3.8919,-3.9721,-3.9754,-4.0161,-4.0948,-4.0069,-3.8772,-3.7204,-3.7107,-3.6471,-3.5444,-3.5076,-3.4725,-3.4461,-3.4117,-3.3941,-3.3679,-3.1946,-3.1157,-3.0763,-2.8999,-2.83,-2.8241,-2.834,-2.9248,-3.0086,-2.9063,-2.9515,-3.0079,-2.8574,-2.7992,-2.7846,-2.7851,-2.7851,-2.7851,-2.7846,-2.8241,-2.8394,-2.7488,-2.7725,-2.7815,-2.6824,-2.6574,-2.6328,-2.5732,-2.5355,-2.4993,-2.4655,-2.4866,-2.5045,-2.5091,-2.5584,-2.5899,-2.5899,-2.6152,-2.5781,-2.4538,-2.4399,-2.3804,-2.2415,-2.2508,-2.2951,-2.3604,-2.3743,-2.4157,-2.4933,-2.5729,-2.6274,-2.6673,-2.8339,-2.9727,-3.0878,-3.229,-3.3328,0.0,0.0,-4.8322,-5.1486,-5.274,-5.3181,-5.3181,-5.2259,-5.0625,-4.7695,-4.5733,-4.3838,-4.1602,-4.1472,-4.2172,-4.3736,-4.5491,-4.6857,-4.7526,-4.6092,-4.4336,-4.2617,-4.1121,0.0,0.0,0.0,0.0,-3.7489,-3.7049,-3.7115,-3.7909,-3.8049,-3.807,-3.8051,-3.7791,-3.7754,-3.8051,-3.7776,-3.8347,-3.9721,-4.0248,-4.0645,-4.0921,-4.0084,-3.9084,-3.7944,-3.7343,-3.6504,-3.5495,-3.516,-3.4813,-3.4473,-3.4117,-3.3978,-3.3666,-3.1843,-3.1048,-3.064,-2.8959,-2.83,-2.8285,-2.884,-2.9603,-3.0176,-2.9494,-2.9924,-3.034,-2.878,-2.8332,-2.8284,-2.8113,-2.7989,-2.794,-2.8039,-2.8137,-2.7953,-2.7071,-2.6914,-2.6654,-2.5899,-2.5532,-2.535,-2.5291,-2.4993,-2.4695,-2.4544,-2.4706,-2.4966,-2.5246,-2.557,-2.5866,-2.6152,-2.6401,-2.6286,-2.5527,-2.5518,-2.5058,-2.3945,-2.3964,-2.432,-2.5016,-2.5062,-2.5483,-2.6299,-2.7037,-2.7452,-2.7606,-2.9048,-3.0369,-3.1587,-3.2505,-3.364,-4.6474,-4.8692,-5.014,-5.3576,-5.4243,-5.3855,-5.3236,-5.1525,-4.8941,-4.5162,-4.2524,-4.0072,-3.761,-3.7346,-3.8523,-4.1649,-4.3371,-4.5092,-4.7292,-4.6092,-4.457,-4.3476,-4.2262,-4.1243,0.0,0.0,0.0,-3.8442,-3.8244,-3.8334,-3.8862,-3.8937,-3.8943,-3.8956,-3.8107,-3.7791,-3.8046,-3.7155,-3.7573,-3.9263,-4.0104,-4.061,-4.0869,-4.0048,-3.9206,-3.835,-3.7492,-3.6533,-3.556,-3.5206,-3.484,-3.4424,-3.4055,-3.3797,-3.3474,-3.1942,-3.1095,-3.0421,-2.8864,-2.8191,-2.8131,-2.8969,-2.947,-2.9679,-2.924,-2.9717,-3.0028,-2.85,-2.8334,-2.8525,-2.8284,-2.7978,-2.7771,-2.7867,-2.7684,-2.7318,-2.6536,-2.6287,-2.6029,-2.5405,-2.5084,-2.4946,-2.5072,-2.4755,-2.4482,-2.438,-2.4503,-2.4766,-2.5169,-2.5476,-2.5775,-2.6048,-2.6418,-2.642,-2.5805,-2.6149,-2.6009,-2.5088,-2.5289,-2.5737,-2.6353,-2.642,-2.6775,-2.7504,-2.8302,-2.8791,-2.8982,-3.0205,-3.1456,-3.2725,-3.3249,-3.4164,-4.8579,-5.0395,-5.1865,-5.5114,-5.5316,-5.4194,-5.2414,-4.9916,-4.6746,-4.2408,-3.8652,-3.5427,0.0,0.0,-3.3151,-3.8408,-4.0181,-4.2423,-4.6861,-4.6051,-4.4999,0.0,0.0,0.0,0.0,0.0,0.0,-3.8849,0.0,-3.9824,-3.9861,-3.9863,-3.9854,-3.9869,-3.897,-3.8103,-3.7256,-3.6409,-3.6838,-3.85,-3.9318,-4.0135,-4.0869,-4.0004,-3.9172,-3.8355,-3.7476,-3.6555,-3.5648,-3.5194,-3.4764,-3.4375,-3.3967,-3.3536,-3.31,-3.2218,-3.1264,-3.0193,-2.8734,-2.7996,-2.7871,-2.8815,-2.9006,-2.8739,-2.8467,-2.8929,-2.9211,-2.7782,-2.7983,-2.8549,-2.8308,-2.7793,-2.7372,-2.7372,-2.7094,-2.662,-2.602,-2.5968,-2.5891,-2.5412,-2.5233,-2.5155,-2.5167,-2.4728,-2.4307,-2.4181,-2.4234,-2.441,-2.4823,-2.5304,-2.5607,-2.5682,-2.6241,-2.6252,-2.5497,-2.6436,-2.6704,-2.5828,-2.6487,-2.7148,-2.768,-2.7854,-2.8171,-2.8758,-2.9652,-3.0334,-3.08,-3.184,-3.2959,-3.4209,-3.4396,-3.489,-4.8948,-5.1765,-5.4,-5.489,-5.3984,-5.2258,-4.9837,-4.6298,-4.2116,-3.7055,-3.3266,-2.9864,0.0,0.0,0.0,-3.4232,-3.8238,0.0,-4.5219,-4.5271,0.0,-4.5,0.0,-4.418,-4.375,-4.3906,0.0,0.0,-4.0425,-4.0066,-4.072,-4.0768,-4.0767,-4.0751,-3.9293,-3.8383,-3.8181,-3.7315,-3.7427,-3.8514,-3.9268,-4.0075,-4.0869,-3.994,-3.9107,-3.8268,-3.7449,-3.6523,-3.5602,-3.5322,-3.4886,-3.4375,-3.3967,-3.3536,-3.3085,-3.2118,-3.1097,-3.0097,-2.9082,-2.8267,-2.7927,-2.9312,-2.932,-2.8933,-2.9661,-2.9698,-2.933,-2.8561,-2.8554,-2.8747,-2.8676,-2.8449,-2.8247,-2.8247,-2.817,-2.793,-2.7328,-2.6864,-2.6408,-2.5973,-2.5967,-2.6106,-2.6367,-2.56,-2.4928,-2.4776,-2.4371,-2.4213,-2.4564,-2.5064,-2.5451,-2.5589,-2.6119,-2.6655,-2.7129,-2.7555,-2.793,-2.8167,-2.8263,-2.8612,-2.9282,-2.9202,-2.978,-3.1106,-3.1266,-3.1637,-3.2264,-3.2572,-3.3195,-3.4028,-3.422,-3.4768,-5.053,-5.3089,-5.4791,-5.4821,-5.3185,-5.0593,-4.6846,-4.2364,-3.7423,-3.1697,-2.7795,0.0,0.0,0.0,0.0,0.0,0.0,0.0,-4.3304,-4.4525,-4.5154,0.0,-4.5585,0.0,-4.4881,-4.492,-4.4608,0.0,-4.2617,-4.1796,-4.1129,-4.1444,-4.1482,-4.1122,-3.9433,-3.8174,-3.7423,-3.6904,-3.7286,-3.8488,-3.8886,-3.973,-4.0864,-3.9531,-3.8683,-3.8227,0.0,-3.6209,-3.5632,-3.5413,-3.4923,-3.4304,-3.3917,-3.3437,-3.2874,-3.2287,-3.1229,-2.9986,-2.9719,-2.8856,-2.806,-2.9006,-2.8765,-2.8273,-2.9469,-2.9398,-2.8847,-2.8702,-2.8735,-2.8794,-2.8794,-2.8498,-2.8202,-2.828,-2.8131,-2.7833,-2.7427,-2.691,-2.6483,-2.6317,-2.6599,-2.6869,-2.6806,-2.6252,-2.572,-2.5476,-2.5172,-2.5016,-2.5146,-2.5414,-2.5679,-2.5824,-2.6677,-2.7411,-2.7848,-2.8568,-2.9136,-2.9379,-2.996,-3.0381,-3.0643,-3.0957,-3.1462,-3.2144,-3.2187,-3.2475,-3.3069,-3.3547,-3.4147,-3.4878,-3.5445,-3.6001,-5.2274,-5.3987,-5.4583,-5.4349,-5.2279,-4.8883,-4.3543,-3.8262,-3.2749,-2.6522,0.0,-1.9638,-1.7992,-1.9419,-2.2298,-2.6792,0.0,-3.5943,-4.1307,-4.3463,-4.4873,-4.6012,-4.6245,-4.6282,-4.6282,-4.5618,-4.511,-4.4993,-4.5113,-4.4021,-4.1404,-4.199,-4.1914,-4.0819,-3.9372,-3.7765,-3.6034,-3.5988,-3.6836,-3.8502,-3.8436,-3.9233,-4.067,-3.8972,-3.8158,-3.8024,-3.6485,0.0,-3.5687,-3.5417,-3.4886,-3.4172,-3.3891,-3.3321,-3.2622,-3.2606,-3.1419,-2.9879,-3.0439,-2.9506,-2.8152,-2.8505,-2.799,-2.7466,-2.8833,-2.8714,-2.8227,-2.865,-2.8799,-2.8818,-2.8842,-2.835,-2.7881,-2.7995,-2.7699,-2.7302,-2.7193,-2.682,-2.6582,-2.6744,-2.732,-2.7592,-2.7152,-2.686,-2.6598,-2.6268,-2.623,-2.6191,-2.6077,-2.6066,-2.6146,-2.629,-2.74,-2.8214,-2.8312,-2.9499,-3.0273,-3.0294,-3.1469,-3.2089,-3.1833,-3.2595,-3.2885,-3.2577,-3.2848,-3.3189,-3.3711,-3.4697,-3.5512,-3.6174,-3.7175,-3.7672,-5.1807,-5.3141,-5.3383,-5.1957,-4.9611,-4.6095,-4.0068,-3.4159,0.0,0.0,0.0,-1.5282,-1.4202,-1.7292,0.0,-2.5051,0.0,0.0,0.0,0.0,-4.2646,0.0,0.0,0.0,0.0,0.0,0.0,0.0,0.0,-4.4911,-4.2298,-4.2337,-4.1365,-3.91,-3.8748,-3.7771,-3.6009,-3.6004,-3.6855,-3.8484,-3.8449,-3.8887,-3.9781,-3.8701,-3.7827,-3.7158,-3.6225,0.0,-3.5591,-3.5398,-3.4868,-3.4172,-3.3891,-3.3386,-3.2756,-3.2639,-3.1452,-2.9962,-3.0577,-2.961,-2.8237,-2.9008,-2.8562,-2.8049,-2.9544,-2.9154,-2.8412,-2.9447,-2.9329,-2.8897,-2.9021,-2.881,-2.8631,-2.8685,-2.8637,-2.8575,-2.8467,-2.8027,-2.7747,-2.818,-2.834,-2.8554,-2.8956,-2.8342,-2.7718,-2.7364,-2.6854,-2.6461,-2.6349,-2.639,-2.6517,-2.6819,-2.7253,-2.8183,-2.9943,-3.0286,-3.1111,-3.2664,-3.2768,-3.2815,-3.2911,-3.2719,-3.2848,-3.3383,-3.4023,-3.4643,-3.5218,-3.6249,-3.6804,-3.6936,-3.7245,-3.7476,-5.0829,-5.2228,-5.2554,-5.1189,-4.821,-4.3709,-3.6602,0.0,0.0,0.0,0.0,-1.2961,-1.2529,0.0,0.0,0.0,0.0,0.0,0.0,0.0,0.0,0.0,0.0,0.0,0.0,0.0,0.0,0.0,0.0,-4.5129,-4.2528,-4.1981,-4.0775,-3.8671,-3.8593,-3.7773,-3.6015,-3.6011,-3.6628,-3.7827,-3.7753,-3.8148,-3.8926,-3.8429,-3.7744,-3.6993,-3.6638,0.0,-3.5597,-3.5383,-3.4863,-3.416,-3.3776,-3.3291,-3.2773,-3.2574,-3.1369,-3.0015,-3.0888,-2.9725,-2.7995,-2.8703,-2.845,-2.8096,-2.9526,-2.9101,-2.8372,-2.9555,-2.9538,-2.9082,-2.9013,-2.892,-2.8834,-2.8756,-2.8637,-2.8497,-2.8373,-2.8403,-2.846,-2.8575,-2.8844,-2.9259,-2.9826,-2.946,-2.9108,-2.9173,-2.8907,-2.8618,-2.8394,-2.8394,-2.8137,-2.7404,-2.831,-2.9412,-3.0511,-3.121,-3.1999,-3.2971,-3.3317,-3.345,-3.3417,-3.4057,-3.4513,-3.4627,-3.5506,-3.6009,-3.6193,-3.7096,-3.7562,-3.7595,-3.8166,-3.8538,-4.9431,-5.1044,-5.1509,-5.0499,-4.6955,-4.1665,-3.3881,-2.7365,0.0,0.0,-1.2437,-1.135,-1.1753,0.0,0.0,0.0,0.0,0.0,0.0,0.0,0.0,0.0,0.0,0.0,0.0,0.0,0.0,0.0,0.0,0.0,-4.2792,-4.1663,-4.0417,-3.8937,-3.8665,-3.7847,-3.6286,-3.625,-3.6674,-3.748,-3.7406,-3.7802,-3.8576,-3.8125,-3.76,-3.7007,-3.6907,0.0,0.0,-3.5391,-3.4886,-3.4146,-3.366,-3.3202,-3.2724,-3.2508,-3.132,-3.0052,-3.1175,-2.9869,-2.7799,-2.85,-2.8275,-2.7884,-2.8915,-2.8619,-2.8194,-2.9349,-2.9446,-2.9143,-2.9028,-2.8967,-2.8897,-2.8692,-2.8453,-2.8227,-2.8008,-2.8529,-2.9006,-2.8834,-2.9403,-2.9995,-3.0418,-3.0401,-3.0396,-3.0653,-3.0695,-3.0593,-3.0334,-3.0308,-2.9746,-2.8316,-2.9588,-3.072,-3.1107,-3.2112,-3.2859,-3.3125,-3.3981,-3.4356,-3.4112,-3.5569,-3.6166,-3.5756,-3.6682,-3.7103,-3.6862,-3.7748,-3.8163,-3.819,-3.8964,-3.9415,-4.7591,-4.934,-4.9691,-4.8673,-4.5115,-3.9968,-3.2855,0.0,0.0,-1.4046,-1.1065,-0.9948,-1.1605,-1.2785,0.0,0.0,0.0,0.0,0.0,0.0,0.0,0.0,0.0,0.0,0.0,0.0,0.0,0.0,0.0,0.0,-4.3632,-4.2009,-4.0688,-3.9791,-3.8961,-3.8063,-3.7176,-3.7104,-3.7539,-3.8388,-3.8311,-3.8696,-3.9436,-3.7836,-3.7099,-3.7061,-3.6331,0.0,0.0,-3.5427,-3.4854,-3.414,-3.3687,-3.3136,-3.2606,-3.2439,-3.1287,-3.0018,-3.1302,-2.9978,-2.7918,-2.912,-2.8524,-2.7389,-2.7618,-2.7581,-2.7717,-2.8906,-2.9023,-2.8844,-2.9175,-2.9152,-2.9045,-2.8842,-2.8645,-2.847,-2.8216,-2.8885,-2.9521,-2.9508,-3.0364,-3.1058,-3.1097,-3.1195,-3.1202,-3.0999,-3.0948,-3.0873,-3.0618,-3.0567,-3.0397,-3.0006,-3.0458,-3.1275,-3.2505,-3.2918,-3.3532,-3.446,-3.5452,-3.5922,-3.581,-3.6472,-3.6697,-3.6326,-3.7063,-3.7448,-3.7421,-3.8308,-3.875,-3.875,-3.8843,-3.8958,-4.4226,-4.6718,-4.7897,-4.6896,-4.2928,-3.7606,-3.101,0.0,-1.8636,-1.3739,-1.1282,-1.0516,-1.2314,-1.2612,-1.3719,0.0,-1.8034,-2.0203,0.0,0.0,0.0,0.0,0.0,0.0,0.0,0.0,0.0,0.0,0.0,0.0,-4.3671,-4.2533,-4.1262,-3.9861,-3.9463,-3.8917,-3.8107,-3.8001,-3.8164,-3.8508,-3.8451,-3.8348,-3.8074,-3.7889,-3.7234,-3.6331,-3.6545,0.0,0.0,-3.5403,-3.4868,-3.414,-3.357,-3.3009,-3.2573,-3.2371,-3.1253,-2.9998,-3.089,-2.9419,-2.7266,-2.7948,-2.7396,-2.6712,-2.7684,-2.767,-2.7481,-2.8489,-2.8878,-2.8918,-2.8854,-2.899,-2.9045,-2.8649,-2.8803,-2.8953,-2.8682,-2.9159,-2.975,-3.0083,-3.0579,-3.13,-3.2406,-3.2558,-3.2823,-3.3513,-3.3477,-3.3287,-3.3094,-3.29,-3.2757,-3.2729,-3.2211,-3.2003,-3.2311,-3.3431,-3.4475,-3.5317,-3.5663,-3.6051,-3.6513,-3.7077,-3.7288,-3.7069,-3.7867,-3.8281,-3.8281,-3.863,-3.8678,-3.8511,-3.8623,-3.865,-4.0283,-4.3227,-4.5055,-4.4556,-4.0501,-3.5081,0.0,0.0,-1.7861,-1.3593,-1.1742,-1.135,-1.2827,-1.2764,-1.3286,-1.5781,-1.6184,-1.7971,-2.2931,0.0,0.0,0.0,0.0,0.0,0.0,0.0,0.0,0.0,0.0,0.0,-4.3679,-4.3097,-4.1991,-4.0249,-3.9927,-3.9536,-3.8962,-3.8896,-3.8866,-3.8862,-3.8863,-3.8497,-3.7867,-3.7937,-3.7448,-3.6573,-3.6959,0.0,0.0,-3.5808,-3.5098,-3.4162,-3.3479,-3.2901,-3.242,-3.1969,-3.0958,-2.9828,-3.0266,-2.8819,-2.6843,-2.7163,-2.6642,-2.6188,-2.7212,-2.7274,-2.7101,-2.7977,-2.8563,-2.895,-2.897,-2.9108,-2.9209,-2.8958,-2.9191,-2.9442,-2.9229,-2.9675,-3.0239,-3.058,-3.1233,-3.2113,-3.3355,-3.3698,-3.4116,-3.5068,-3.4995,-3.4765,-3.4591,-3.4356,-3.4178,-3.4178,-3.3681,-3.3141,-3.2815,-3.4089,-3.5171,-3.5771,-3.6076,-3.6488,-3.7065,-3.7648,-3.7872,-3.7708,-3.8256,-3.8511,-3.8511,-3.8483,-3.8343,-3.8116,-3.8201,-3.8201,-3.5824,-3.8742,-4.0769,-4.1532,-3.7724,-3.2587,0.0,-2.2404,-1.7002,-1.3418,-1.2209,-1.2046,-1.2947,-1.3272,-1.3991,-1.5793,-1.6197,-1.8402,-2.4503,0.0,0.0,0.0,0.0,0.0,0.0,0.0,0.0,0.0,0.0,0.0,-4.3676,-4.3635,-4.2882,-4.1147,-4.0233,-3.9802,-3.978,-3.9782,-3.9798,-3.9802,-3.9738,-3.9686,-3.9622,-3.7906,-3.7585,0.0,0.0,0.0,0.0,-3.6726,-3.5665,-3.4217,-3.3492,-3.2791,-3.2109,-3.1237,-3.0335,-2.9523,-2.9523,-2.8305,-2.6877,-2.7196,-2.6656,-2.5881,-2.577,-2.6008,-2.6463,-2.7268,-2.7984,-2.8746,-2.9816,-2.9744,-2.9531,-2.9964,-3.0046,-2.997,-2.9837,-3.0509,-3.1155,-3.1022,-3.253,-3.382,-3.3712,-3.4469,-3.4992,-3.4736,-3.4707,-3.4591,-3.4268,-3.4208,-3.4059,-3.3728,-3.4455,-3.4881,-3.4622,-3.5131,-3.5582,-3.5778,-3.6961,-3.7627,-3.7498,-3.8209,-3.8488,-3.8209,-3.8004,-3.7889,-3.7889,-3.7804,-3.7716,-3.7685,-3.7476,-3.7537,-2.8443,-3.1311,-3.3353,-3.237,-2.9846,-2.676,-2.3469,-1.939,-1.5631,-1.3254,-1.1795,-1.1202,-1.2122,-1.196,-1.3058,-1.7189,-1.794,0.0,0.0,0.0,0.0,0.0,0.0,0.0,0.0,0.0,0.0,0.0,0.0,0.0,-4.3505,-4.2999,-4.2239,-4.1147,-4.0824,-4.0705,-4.0678,-4.0684,-4.0698,-4.0701,-4.0689,-4.004,-3.8867,-3.8313,-3.791,0.0,0.0,0.0,0.0,-3.6725,-3.5645,-3.4154,-3.3465,-3.2791,-3.2109,-3.1323,-3.0386,-2.9437,-2.9069,-2.8107,-2.6957,-2.6719,-2.6372,-2.6063,-2.5775,-2.5939,-2.6456,-2.759,-2.8502,-2.9288,-2.9824,-3.0303,-3.0536,-3.0182,-3.0446,-3.065,-3.0231,-3.0976,-3.178,-3.1985,-3.3058,-3.4171,-3.5045,-3.5383,-3.5692,-3.6308,-3.6042,-3.5707,-3.5584,-3.5179,-3.4831,-3.4735,-3.5105,-3.509,-3.4506,-3.5256,-3.6029,-3.6561,-3.6957,-3.7422,-3.8015,-3.8104,-3.8091,-3.8008,-3.7918,-3.7831,-3.7775,-3.7746,-3.7508,-3.7148,-3.6754,-3.6662,0.0,-2.5441,-2.7301,-2.6784,-2.4933,-2.2599,-2.0238,-1.7245,-1.4475,-1.2703,-1.163,-1.1284,-1.2227,-1.2104,-1.3015,-1.6699,-1.7632,0.0,0.0,0.0,0.0,0.0,0.0,0.0,0.0,0.0,0.0,0.0,0.0,0.0,-4.3435,-4.268,-4.1899,-4.1135,-4.1099,-4.1103,-4.1109,-4.1115,-4.1089,-4.1093,-4.1087,-4.0174,-3.8502,-3.8504,-3.8248,0.0,0.0,0.0,0.0,-3.6838,-3.5632,-3.4157,-3.3479,-3.2838,-3.2144,-3.1289,-3.0352,-2.9386,-2.8693,-2.7868,-2.7005,-2.6435,-2.6117,-2.5932,-2.6101,-2.6348,-2.6755,-2.7931,-2.8844,-2.9626,-3.0273,-3.0808,-3.1192,-3.1144,-3.1386,-3.1605,-3.1514,-3.208,-3.2645,-3.2916,-3.3668,-3.4546,-3.5488,-3.5797,-3.6075,-3.6661,-3.6258,-3.5879,-3.5847,-3.5394,-3.5067,-3.503,-3.5228,-3.5227,-3.4912,-3.5644,-3.6372,-3.6959,-3.6988,-3.7294,-3.794,-3.7623,-3.7447,-3.7447,-3.7238,-3.7118,-3.7028,-3.7059,-3.6815,-3.6352,-3.6133,-3.6038,0.0,0.0,0.0,0.0,-2.1925,-1.9582,-1.7992,-1.5687,0.0,-1.1846,-1.1582,-1.1996,-1.3167,-1.3385,-1.3928,-1.5569,-1.6609,0.0,0.0,0.0,0.0,0.0,0.0,0.0,0.0,0.0,0.0,0.0,0.0,0.0,-4.3325,-4.2524,-4.1785,-4.1108,-4.1058,-4.0992,-4.0992,-4.0999,-4.1009,-4.1016,-4.1013,-4.014,-3.8506,-3.8562,-3.8576,0.0,0.0,0.0,0.0,-3.698,-3.5625,-3.4229,-3.357,-3.288,-3.2179,-3.1168,-3.0231,-2.9351,-2.8408,-2.7655,-2.6989,-2.6399,-2.5862,-2.5599,-2.6547,-2.6981,-2.7322,-2.8307,-2.9099,-2.9925,-3.1093,-3.1362,-3.1597,-3.2582,-3.2676,-3.2676,-3.3304,-3.3453,-3.3574,-3.3697,-3.4363,-3.4971,-3.5186,-3.5736,-3.607,-3.5973,-3.5591,-3.5332,-3.5228,-3.4968,-3.4798,-3.4723,-3.496,-3.5234,-3.5563,-3.6133,-3.6631,-3.6938,-3.7089,-3.7208,-3.7328,-3.6875,-3.6662,-3.6631,-3.6134,-3.5881,-3.5881,-3.5911,-3.572,-3.5367,-3.5559,-3.5527,-1.2574,0.0,-1.5456,-1.4503,-1.4088,-1.3811,0.0,-1.2198,-1.1165,-1.0755,0.0,0.0,-1.4687,-1.4311,-1.5987,-2.3667,0.0,0.0,0.0,0.0,0.0,0.0,0.0,0.0,0.0,0.0,0.0,0.0,0.0,-4.3101,-4.2383,-4.1606,-4.1159,-4.1039,-4.0426,-4.0135,-4.0178,-4.0185,-4.0192,-4.0195,-4.0194,-3.9602,-3.8613,-3.928,-3.9174,0.0,0.0,0.0,-3.8142,-3.692,-3.5514,-3.4102,-3.3524,-3.2858,-3.2109,-3.1133,-3.0231,-2.93,-2.8476,-2.7655,-2.6925,-2.6382,-2.5862,-2.5542,-2.623,-2.6941,-2.7765,-2.9092,-3.0251,-3.1259,-3.1975,-3.257,-3.2976,-3.3094,-3.297,-3.2874,-3.2897,-3.3277,-3.3694,-3.3885,-3.4451,-3.4996,-3.5319,-3.5404,-3.5427,-3.5397,-3.51,-3.4978,-3.5244,-3.4485,-3.4123,-3.4714,-3.4519,-3.4364,-3.4327,-3.5513,-3.6414,-3.6754,-3.6816,-3.6785,-3.6723,-3.6445,-3.6258,-3.6102,-3.5849,-3.5752,-3.5752,-3.5524,-3.5169,-3.481,-3.4872,-3.4635,-1.0621,-1.3046,-1.5012,-1.4394,-1.4995,-1.5538,-1.474,0.0,0.0,0.0,0.0,0.0,0.0,0.0,0.0,0.0,0.0,0.0,0.0,0.0,0.0,0.0,0.0,0.0,0.0,0.0,0.0,0.0,0.0,-4.2749,-4.1988,-4.1246,-4.066,-4.0418,-4.0021,-3.9816,-3.9863,-3.9484,-3.949,-3.9883,-3.9881,-3.9447,-3.8619,-3.9482,-3.9177,0.0,0.0,0.0,-3.7507,-3.6279,-3.5154,-3.4186,-3.3575,-3.2937,-3.23,-3.1568,-3.0472,-2.9281,-2.8784,-2.7743,-2.6623,-2.6241,-2.5862,-2.5707,-2.6655,-2.743,-2.8201,-2.943,-3.0842,-3.218,-3.289,-3.3577,-3.4175,-3.4554,-3.4542,-3.4499,-3.4567,-3.4819,-3.4965,-3.4773,-3.5007,-3.5192,-3.5195,-3.527,-3.5343,-3.5276,-3.5131,-3.495,-3.4803,-3.4193,-3.3818,-3.4052,-3.3728,-3.3489,-3.3573,-3.409,-3.481,-3.5706,-3.5949,-3.6006,-3.6006,-3.5655,-3.5397,-3.5234,-3.5136,-3.5103,-3.5103,-3.5001,-3.4735,-3.4206,-3.4269,-3.3997,-1.0975,-1.4548,-1.7695,-1.7573,-1.893,-1.9897,-1.8281,0.0,0.0,0.0,0.0,0.0,0.0,0.0,0.0,0.0,0.0,0.0,0.0,0.0,0.0,0.0,0.0,0.0,0.0,0.0,0.0,0.0,0.0,-4.2702,-4.1723,-4.1074,-4.0389,-3.9719,-3.9652,-3.9534,-3.9385,-3.8743,-3.8788,-3.9492,-3.9645,-3.925,-3.8426,-3.9445,-3.8943,-3.7265,0.0,0.0,-3.6808,-3.553,-3.4775,-3.4304,-3.3656,-3.306,-3.2504,-3.1934,-3.0695,-2.9245,-2.8848,-2.7652,-2.6261,-2.6081,-2.5946,-2.6067,-2.7409,-2.8276,-2.9044,-3.0054,-3.1486,-3.297,-3.3998,-3.4727,-3.5381,-3.6327,-3.6462,-3.6471,-3.6728,-3.667,-3.6389,-3.5799,-3.5647,-3.5507,-3.5083,-3.5361,-3.5537,-3.5293,-3.5203,-3.4953,-3.4341,-3.3899,-3.352,-3.3317,-3.2826,-3.2619,-3.2872,-3.245,-3.2754,-3.4019,-3.4637,-3.5017,-3.5204,-3.4835,-3.453,-3.4332,-3.4366,-3.4399,-3.4399,-3.4563,-3.4298,-3.3722,-3.3693,-3.3485,-1.2869,-1.741,-2.0097,-1.5996,-1.7716,-1.9973,-1.8366,0.0,0.0,0.0,0.0,0.0,0.0,0.0,0.0,0.0,0.0,0.0,0.0,0.0,0.0,0.0,0.0,0.0,0.0,0.0,0.0,0.0,0.0,-4.2387,-4.08,-4.072,-4.0378,-3.9734,-3.906,-3.8354,-3.7609,-3.7533,-3.7578,-3.7695,-3.8435,-3.8353,-3.7533,-3.917,-3.8904,-3.7221,0.0,-3.7014,-3.6792,-3.5575,-3.4747,-3.4172,-3.3683,-3.3111,-3.2368,-3.1289,-3.0228,-2.9091,-2.7537,-2.6706,-2.6349,-2.6066,-2.6199,-2.6678,-2.7902,-2.9439,-3.1135,-3.2721,-3.3486,-3.4118,-3.5615,-3.6548,-3.7113,-3.7289,-3.7315,-3.7207,-3.6711,-3.6599,-3.6464,-3.6028,-3.5927,-3.5863,-3.5626,-3.5647,-3.556,-3.5195,-3.4545,-3.4214,-3.4501,-3.3164,-3.2517,-3.3294,-3.2341,-3.1633,-3.1445,-3.1565,-3.1541,-3.1403,-3.2887,-3.3918,-3.4303,-3.423,-3.4162,-3.4162,-3.4298,-3.4399,-3.4399,-3.4264,-3.3922,-3.3374,-3.3199,-3.2846,-1.1719,-1.6032,-1.947,-1.8096,-2.2132,-2.6133,-2.4992,0.0,0.0,0.0,0.0,0.0,0.0,0.0,0.0,0.0,0.0,0.0,0.0,0.0,0.0,0.0,0.0,0.0,0.0,0.0,0.0,0.0,0.0,0.0,-4.0636,-4.0668,-4.0161,-3.9026,-3.8658,-3.7882,-3.6565,-3.6596,-3.6835,-3.7303,-3.7693,-3.7688,-3.7336,-3.8577,-3.8195,-3.6562,0.0,-3.6771,-3.6178,-3.5465,-3.4812,-3.4252,-3.3723,-3.3105,-3.2331,-3.0508,-2.9244,-2.8249,-2.6993,-2.645,-2.6259,-2.6063,-2.6339,-2.6977,-2.8147,-2.9734,-3.1628,-3.3834,-3.4898,-3.5646,-3.7025,-3.7764,-3.8202,-3.8487,-3.837,-3.8127,-3.784,-3.7623,-3.7281,-3.6649,-3.6518,-3.6286,-3.5504,-3.5656,-3.5733,-3.529,-3.4775,-3.4393,-3.4241,-3.3063,-3.2347,-3.2699,-3.1739,-3.0883,-3.0426,-3.0508,-3.0841,-3.1466,-3.2468,-3.3264,-3.3652,-3.3882,-3.3985,-3.3985,-3.4088,-3.4122,-3.4122,-3.4054,-3.3681,-3.3129,-3.281,-3.2489,-1.1028,-1.455,-1.8375,-2.0612,0.0,-3.0286,-3.0912,-2.9975,0.0,0.0,0.0,0.0,0.0,0.0,0.0,0.0,0.0,0.0,0.0,0.0,0.0,0.0,0.0,0.0,0.0,0.0,0.0,0.0,0.0,0.0,-4.0633,-4.0474,-3.9762,-3.8443,-3.826,-3.7488,-3.6025,-3.6007,-3.6325,-3.6988,-3.7186,-3.7179,-3.702,-3.7824,-3.7403,-3.6015,-3.6549,-3.6365,-3.5672,-3.5366,-3.4923,-3.4389,-3.3828,-3.2898,-3.1717,-2.9781,-2.8367,-2.7277,-2.6452,-2.6079,-2.5903,-2.5781,-2.6264,-2.7127,-2.8404,-3.0107,-3.2112,-3.4682,-3.6104,-3.7181,-3.8402,-3.8987,-3.937,-3.989,-3.9629,-3.9224,-3.9114,-3.8692,-3.8057,-3.7341,-3.7106,-3.673,-3.5658,-3.5815,-3.593,-3.5542,-3.4983,-3.4384,-3.3769,-3.2791,-3.2011,-3.1619,-3.085,-3.0113,-2.9403,-2.935,-2.9981,-3.1475,-3.2227,-3.2826,-3.3262,-3.3605,-3.3779,-3.3813,-3.3882,-3.3882,-3.3882,-3.3848,-3.3542,-3.2988,-3.2489,-3.2228,-1.2774,-1.5277,-1.7957,-2.1943,-2.4413,0.0,-3.1815,-3.2269,0.0,-3.4603,0.0,0.0,0.0,0.0,0.0,0.0,0.0,0.0,0.0,0.0,0.0,0.0,0.0,0.0,0.0,0.0,0.0,0.0,0.0,0.0,-4.0633,-3.9915,-3.9165,-3.8404,-3.7669,-3.6891,-3.6007,-3.5996,-3.6048,-3.6092,-3.6912,-3.6867,-3.6121,-3.692,-3.6813,-3.6015,-3.5927,-3.5819,-3.5688,-3.5412,-3.5009,-3.454,-3.4056,-3.2278,-2.9912,-2.9245,-2.794,-2.6367,-2.5563,-2.5245,-2.5159,-2.5023,-2.5852,-2.7219,-2.8854,-3.1061,-3.3531,-3.5854,-3.7245,-3.843,-3.9948,-4.0593,-4.0976,-4.1644,-4.1163,-4.0454,-4.0085,-3.9202,-3.8352,-3.7919,-3.7539,-3.7116,-3.666,-3.6452,-3.6203,-3.5736,-3.4615,-3.3614,-3.3132,-3.1923,-3.0779,-2.9873,-2.9558,-2.9022,-2.81,-2.8027,-2.8598,-2.988,-3.152,-3.2712,-3.329,-3.3326,-3.3431,-3.3605,-3.3779,-3.3882,-3.3882,-3.3709,-3.3403,-3.2988,-3.22,-3.1863,-1.051,-1.4918,-1.9476,-2.1224,-2.4672,0.0,0.0,-3.4867,-3.6452,-3.8524,-3.9127,0.0,0.0,0.0,0.0,0.0,0.0,0.0,0.0,0.0,0.0,0.0,0.0,0.0,0.0,0.0,0.0,0.0,0.0,0.0,-4.0028,-3.9652,-3.8903,-3.7646,-3.7331,-3.6824,-3.6022,-3.5999,-3.6009,-3.6014,-3.6326,-3.6319,-3.5996,-3.6276,-3.6245,-3.6005,-3.5898,-3.5783,-3.564,-3.4936,-3.4611,-3.4524,-3.3593,-3.1811,-2.974,-2.9246,-2.7906,-2.6248,-2.5615,-2.5461,-2.5631,-2.5792,-2.6605,-2.7843,-2.9605,-3.1505,-3.3494,-3.5828,-3.7269,-3.8537,-4.0484,-4.1015,-4.1164,-4.1832,-4.1136,-4.0293,-4.0286,-3.9231,-3.8315,-3.8277,-3.7634,-3.6978,-3.6547,-3.6071,-3.5696,-3.5345,-3.4153,-3.3368,-3.3647,-3.2105,-3.097,-3.0834,-2.9678,-2.8773,-2.8438,-2.7567,-2.8058,-3.0398,-3.0708,-3.1333,-3.2588,-3.2909,-3.3157,-3.3396,-3.3368,-3.3403,-3.3536,-3.3333,-3.3157,-3.2917,-3.2273,-3.1753,-0.9948,-1.4667,-1.9878,-2.1352,0.0,0.0,-3.4328,-3.6621,-3.8589,-4.1456,-4.134,0.0,0.0,0.0,0.0,0.0,0.0,0.0,0.0,0.0,0.0,0.0,0.0,0.0,0.0,0.0,0.0,0.0,0.0,0.0,0.0,-3.8893,-3.8234,-3.7148,-3.6905,-3.6555,-3.6027,-3.5998,-3.6007,-3.6014,-3.6015,-3.6006,-3.5988,-3.5912,-3.5955,-3.5994,-3.5935,-3.5843,-3.5652,-3.4667,-3.419,-3.4014,-3.3219,-3.1675,-2.9822,-2.9316,-2.7906,-2.6196,-2.5598,-2.546,-2.5625,-2.6071,-2.6869,-2.8013,-2.9904,-3.1571,-3.327,-3.5585,-3.6912,-3.8155,-4.0359,-4.0946,-4.1164,-4.1758,-4.0988,-4.0144,-4.036,-3.9231,-3.824,-3.8456,-3.7634,-3.6783,-3.6373,-3.5723,-3.5249,-3.5044,-3.3979,-3.3357,-3.3688,-3.2018,-3.073,-3.0551,-2.9065,-2.8116,-2.8013,-2.7066,-2.7399,-2.9434,-2.9073,-2.9663,-3.1736,-3.2372,-3.2803,-3.3051,-3.2952,-3.2952,-3.3122,-3.2952,-3.2846,-3.2739,-3.2209,-3.169,-1.1974,-1.4784,-1.8672,0.0,0.0,0.0,-3.6432,-3.7417,-3.8377,-4.3563,0.0,0.0,0.0,0.0,0.0,0.0,0.0,0.0,0.0,0.0,0.0,0.0,0.0,0.0,0.0,0.0,0.0,0.0,0.0,0.0,0.0,-3.7473,-3.704,-3.709,-3.6306,-3.5921,-3.6019,-3.5988,-3.6003,-3.6014,-3.6015,-3.6008,-3.6019,-3.5946,-3.5958,-3.5994,-3.5935,-3.5847,-3.5725,-3.4709,-3.3777,-3.301,-3.3121,-3.1908,-3.0018,-2.9351,-2.7906,-2.6179,-2.5376,-2.5008,-2.5003,-2.5633,-2.6391,-2.7519,-2.9671,-3.1401,-3.3048,-3.5184,-3.635,-3.7388,-3.9528,-4.0514,-4.1128,-4.1579,-4.0883,-4.0144,-4.036,-3.9231,-3.824,-3.8464,-3.7519,-3.6626,-3.6334,-3.5602,-3.5044,-3.4839,-3.4151,-3.3488,-3.2924,-3.1408,-2.982,-2.8344,-2.7421,-2.6822,-2.6556,-2.6524,-2.6524,-2.6524,-2.6524,-2.786,-3.0857,-3.1753,-3.23,-3.2489,-3.2632,-3.2704,-3.2704,-3.2704,-3.2596,-3.2381,-3.1919,-3.1726,-1.3169,-1.7923,0.0,0.0,0.0,0.0,0.0,-3.97,0.0,0.0,0.0,0.0,0.0,0.0,0.0,0.0,0.0,0.0,0.0,0.0,0.0,0.0,0.0,0.0,0.0,0.0,0.0,0.0,0.0,0.0,0.0,-3.7167,-3.6736,-3.6112,-3.5963,-3.5899,-3.5931,-3.5986,-3.6006,-3.6015,-3.6013,-3.6004,-3.6019,-3.5964,-3.5966,-3.5986,-3.5972,-3.5891,-3.5694,-3.4515,-3.3641,-3.2959,-3.2597,-3.1497,-3.0078,-2.9472,-2.8081,-2.6386,-2.5547,-2.5391,-2.5757,-2.6685,-2.7511,-2.8553,-3.0596,-3.2169,-3.3554,-3.5053,-3.632,-3.752,-3.8672,-3.9203,-3.9831,-4.119,-4.0658,-3.9958,-4.0144,-3.9156,-3.8086,-3.7732,-3.7015,-3.6223,-3.5574,-3.4969,-3.4564,-3.4522,-3.3893,-3.2987,-3.1733,-3.1109,-2.9625,-2.6478,-2.7279,-2.7999,-2.7892,-2.7905,-2.8196,-2.8762,-2.88,-2.9214,-3.0101,-3.0924,-3.1643,-3.2264,-3.2336,-3.248,-3.2704,-3.2561,-3.2381,-3.2164,-3.19,-3.1458,-1.6358,-2.1268,0.0,0.0,0.0,0.0,0.0,0.0,0.0,0.0,0.0,0.0,0.0,0.0,0.0,0.0,0.0,0.0,0.0,0.0,0.0,0.0,0.0,0.0,0.0,0.0,0.0,0.0,0.0,0.0,0.0,-3.6479,-3.6182,-3.5699,-3.5803,-3.5866,-3.5858,-3.5935,-3.6003,-3.6016,-3.6014,-3.6007,-3.5991,-3.6013,-3.6017,-3.5998,-3.5976,-3.5715,-3.523,-3.4693,-3.3945,-3.3071,-3.2449,-3.1405,-3.0168,-2.9278,-2.7981,-2.659,-2.595,-2.5876,-2.6206,-2.7255,-2.8081,-2.9026,-3.1038,-3.244,-3.36,-3.5093,-3.6157,-3.704,-3.792,-3.8165,-3.8564,-3.9995,-3.9727,-3.9148,-3.9099,-3.8376,-3.754,-3.6939,-3.6335,-3.5742,-3.5182,-3.4379,-3.3934,-3.4345,-3.4031,-3.2944,-3.0816,-3.0216,-2.8825,-2.5647,-2.7224,-2.8522,-2.8522,-2.8522,-2.8721,-2.9273,-2.9585,-2.9804,-2.9804,-3.0584,-3.1235,-3.1706,-3.1927,-3.2146,-3.2336,-3.2191,-3.2009,-3.19,-3.1606,-3.1224,-2.0292,0.0,0.0,0.0,0.0,0.0,0.0,0.0,0.0,0.0,0.0,0.0,0.0,0.0,0.0,0.0,0.0,0.0,0.0,0.0,0.0,0.0,0.0,0.0,0.0,0.0,0.0,0.0,0.0,0.0,0.0,-3.5676,-3.5648,-3.5566,-3.5702,-3.5776,-3.5797,-3.5914,-3.5994,-3.6011,-3.6016,-3.6012,-3.6004,-3.5983,-3.5991,-3.6012,-3.5919,-3.5421,-3.4657,-3.5056,-3.4495,-3.3364,-3.2699,-3.1601,-3.0279,-2.9038,-2.7839,-2.6775,-2.6521,-2.6312,-2.6363,-2.7454,-2.8207,-2.9111,-3.1042,-3.2293,-3.3426,-3.509,-3.5776,-3.6251,-3.7225,-3.7376,-3.7519,-3.8501,-3.8368,-3.797,-3.7645,-3.7244,-3.6777,-3.6173,-3.5693,-3.5232,-3.492,-3.3847,-3.3368,-3.4251,-3.4173,-3.292,-3.003,-2.8998,-2.7681,-2.554,-2.7224,-2.8522,-2.8522,-2.8251,-2.8115,-2.8115,-2.886,-2.9424,-2.9779,-3.0546,-3.0936,-3.0973,-3.1447,-3.1706,-3.1743,-3.1633,-3.1559,-3.1485,-3.1149,-3.0999,0.0,-2.3122,0.0,0.0,0.0,0.0,0.0,0.0,0.0,0.0,0.0,0.0,0.0,0.0,0.0,0.0,0.0,0.0,0.0,0.0,0.0,0.0,0.0,0.0,0.0,0.0,0.0,0.0,0.0,0.0,-3.5584,-3.6113,-3.6136,-3.5388,-3.5604,-3.5732,-3.5714,-3.5866,-3.5957,0.0,-3.6015,-3.6013,-3.6009,-3.6002,-3.6008,-3.6015,-3.5924,-3.5758,-3.5472,-3.4742,-3.445,-3.4347,-3.3194,-3.1882,-3.065,-3.0046,-2.8596,-2.6908,-2.6641,-2.6347,-2.6239,-2.7486,-2.8415,-2.9339,-3.0529,-3.2235,-3.3698,-3.3598,-3.4871,-3.6274,-3.6382,-3.6872,-3.7404,-3.7929,-3.7376,-3.6871,-3.707,-3.6895,-3.6531,-3.5963,-3.5788,-3.5167,-3.3486,-3.3672,-3.4173,-3.4371,-3.236,-3.0306,-2.8968,-2.8642,-2.7681,-2.554,-2.7224,-2.8522,-2.8522,-2.6415,-2.5103,-2.5103,-2.5289,-2.6729,-2.969,-3.0254,-3.0672,-3.0973,-3.0785,-3.0861,-3.1187,-3.1347,-3.1235,-3.0887,-3.0962,-3.0773,0.0,0.0,0.0,0.0,0.0,0.0,0.0,0.0,0.0,0.0,0.0,0.0,0.0,0.0,0.0,0.0,0.0,0.0,0.0,0.0,0.0,0.0,0.0,0.0,0.0,0.0,0.0,0.0,0.0,-3.8382,-3.6027,-3.6312,-3.6334,-3.578,-3.5643,-3.5577,-3.567,-3.5827,-3.5939,-3.5965,-3.5976,-3.6015,-3.6014,-3.6015,-3.6016,-3.6014,-3.5914,-3.5858,-3.5764,-3.5132,-3.4843,-3.4718,-3.3478,-3.244,-3.1442,-3.019,-2.8976,-2.7908,-2.7503,-2.7077,-2.6914,-2.7996,-2.8984,-2.9864,-3.0572,-3.1901,-3.3215,-3.3463,-3.4157,-3.4982,-3.5405,-3.5871,-3.6189,-3.6099,-3.6467,-3.6826,-3.6482,-3.6338,-3.5926,-3.481,-3.4604,-3.4128,-3.2671,-3.3526,-3.3908,-3.2412,-3.0468,-2.8998,-2.8562,-2.8522,-2.7859,-2.6037,-2.653,-2.6832,-2.6453,-2.5057,-2.4345,-2.4683,-2.4718,-2.588,-2.8466,-2.956,-3.0203,-3.0432,-3.0241,-3.0241,-3.0432,-3.0748,-3.0898,-3.0849,-3.0698,-3.0189,0.0,0.0,0.0,0.0,0.0,0.0,0.0,0.0,0.0,0.0,0.0,0.0,0.0,0.0,0.0,0.0,0.0,0.0,0.0,0.0,0.0,0.0,0.0,0.0,0.0,0.0,0.0,0.0,0.0,-3.8485,-3.6663,-3.6555,-3.6472,-3.6263,-3.5676,-3.5445,-3.5571,-3.5779,-3.5909,-3.59,-3.5972,-3.6015,-3.6015,-3.6011,-3.6009,-3.6009,-3.5939,-3.5878,-3.5792,-3.567,-3.5341,-3.4858,-3.3853,-3.3071,-3.2337,-3.0454,-2.9561,-2.9173,-2.8622,-2.8133,-2.7833,-2.8604,-2.9422,-3.0147,-3.0521,-3.1356,-3.2345,-3.3297,-3.3476,-3.3578,-3.4501,-3.4823,-3.4903,-3.4734,-3.6033,-3.6968,-3.563,-3.5353,-3.4896,-3.3416,-3.3008,-3.266,-3.1836,-3.2777,-3.2684,-2.9977,-2.884,-2.8299,-2.8459,-2.8522,-2.7898,-2.6272,-2.55,-2.4862,-2.4273,-2.4345,-2.4647,-2.5264,-2.53,-2.5857,-2.7139,-2.8578,-2.9351,-2.9351,-2.9624,-2.9804,-2.9804,-3.0126,-3.0444,-3.0773,-3.0202,-2.9479,0.0,0.0,0.0,0.0,0.0,0.0,0.0,0.0,0.0,0.0,0.0,0.0,0.0,0.0,0.0,0.0,0.0,0.0,0.0,0.0,0.0,0.0,0.0,0.0,0.0,0.0,0.0,0.0,-3.9045,-3.8523,-3.7346,-3.721,-3.6876,-3.6147,-3.5526,-3.5332,-3.5507,-3.5764,-3.5904,-3.589,-3.5964,-3.6012,-3.6011,-3.6002,-3.6002,-3.601,-3.5989,-3.5958,-3.5869,-3.5697,-3.545,-3.52,-3.469,-3.3821,-3.2785,-3.2185,-3.1239,-3.0133,-2.9598,-2.9058,-2.8647,-2.8623,-2.8857,-2.9138,-2.9505,-3.0357,-3.1217,-3.1434,-3.2551,-3.3698,-3.3882,-3.4296,-3.4972,-3.6301,-3.681,-3.6437,-3.4128,-3.3649,-3.3381,-3.2499,-3.179,-3.1048,-3.0241,-3.0303,-3.0013,-2.8825,-2.7921,-2.7638,-2.8379,-2.8522,-2.7472,-2.4808,-2.4394,-2.4309,-2.42,-2.479,-2.5218,-2.5264,-2.53,-2.5857,-2.7139,-2.7435,-2.7557,-2.7557,-2.9037,-2.9804,-2.9804,-2.9856,-2.9895,-2.9934,-2.9214,-2.8712,-1.3671,0.0,0.0,0.0,0.0,0.0,0.0,0.0,0.0,0.0,0.0,0.0,0.0,0.0,0.0,0.0,0.0,0.0,0.0,0.0,0.0,0.0,0.0,0.0,0.0,0.0,0.0,0.0,-3.8287,-3.7937,-3.7273,-3.6767,-3.6341,-3.6012,-3.5453,-3.5268,-3.5495,-3.5728,-3.5889,-3.5942,-3.6001,-3.6007,-3.6007,-3.5998,-3.5996,-3.6001,-3.5972,-3.5897,-3.5817,-3.5693,-3.5501,-3.5285,-3.4999,-3.4425,-3.3606,-3.2367,-3.1687,-3.126,-3.0156,-2.9678,-2.9576,-2.9469,-2.9125,-2.8814,-2.9275,-2.9802,-3.0365,-3.097,-3.1399,-3.1895,-3.2925,-3.3212,-3.3412,-3.412,-3.4296,-3.3523,-3.0663,-3.1416,-3.2444,-3.168,-3.1235,-3.0748,-2.9934,-2.939,-2.8958,-2.8562,-2.8179,-2.7497,-2.6244,-2.6103,-2.5602,-2.4328,-2.42,-2.42,-2.42,-2.4897,-2.53,-2.53,-2.53,-2.5857,-2.7139,-2.719,-2.719,-2.719,-2.8419,-2.9312,-2.9804,-2.9312,-2.8439,-2.7299,-2.7792,-2.7496,0.0,0.0,0.0,0.0,0.0,0.0,0.0,0.0,0.0,0.0,0.0,0.0,0.0,0.0,0.0,0.0,0.0,0.0,0.0,0.0,0.0,0.0,0.0,0.0,0.0,0.0,0.0,0.0,-3.7421,-3.7194,-3.7148,-3.6355,-3.5882,-3.5921,-3.5372,-3.5193,-3.5457,-3.5697,-3.5875,-3.5986,-3.5996,-3.6,-3.5999,-3.5995,-3.5991,-3.5988,-3.5914,-3.588,-3.5807,-3.5727,-3.5558,-3.5299,-3.5102,-3.4793,-3.43,-3.2769,-3.2375,-3.2379,-3.1075,-3.0643,-3.0571,-3.0294,-2.9595,-2.8872,-2.9014,-2.9186,-2.9522,-3.0406,-3.0322,-3.0378,-3.2128,-3.2516,-3.2472,-3.2472,-3.24,-3.1397,-2.7986,-2.9399,-3.1186,-3.0771,-3.0887,-3.0785,-3.0203,-2.9209,-2.8522,-2.8522,-2.8522,-2.7457,-2.4563,-2.42,-2.4273,-2.4467,-2.4309,-2.42,-2.42,-2.4897,-2.53,-2.53,-2.53,-2.5857,-2.7139,-2.719,-2.7012,-2.6679,-2.7472,-2.8409,-2.9468,-2.9037,-2.7815,-2.5985,-2.6895,-2.6493,0.0,0.0,0.0,0.0,0.0,0.0,0.0,0.0,0.0,0.0,0.0,0.0,0.0,0.0,0.0,0.0,0.0,0.0,0.0,0.0,0.0,0.0,0.0,0.0,0.0,0.0,0.0,0.0,-3.6719,-3.6512,-3.7241,-3.6359,-3.5848,-3.5975,-3.5363,-3.5098,-3.5311,-3.565,-3.5875,-3.6007,-3.6017,-3.5981,-3.5981,-3.5989,-3.5988,-3.6019,-3.5919,-3.5899,-3.588,-3.5741,-3.5599,-3.538,-3.5098,-3.486,-3.4636,-3.4281,-3.3893,-3.3443,-3.2845,-3.2279,-3.1664,-3.0771,-3.0022,-2.9284,-2.8351,-2.834,-2.8742,-2.909,-2.9422,-3.0043,-3.1771,-3.2723,-3.3255,-3.3255,-3.2945,-3.1548,-2.7438,-2.7758,-2.9076,-2.9732,-3.047,-3.0973,-3.0936,-2.9599,-2.8522,-2.8522,-2.8522,-2.7457,-2.4563,-2.42,-2.4467,-2.5182,-2.4611,-2.42,-2.42,-2.4897,-2.53,-2.53,-2.53,-2.5857,-2.7139,-2.719,-2.657,-2.5262,-2.5949,-2.7065,-2.8562,-2.9351,-2.9046,-2.7738,-2.714,-2.6214,0.0,0.0,0.0,0.0,0.0,0.0,0.0,0.0,0.0,0.0,0.0,0.0,0.0,0.0,0.0,0.0,0.0,0.0,0.0,0.0,0.0,0.0,0.0,0.0,0.0,0.0,0.0,0.0,0.0,-3.5584,-3.6368,-3.5484,-3.5049,-3.5141,-3.5116,-3.5209,-3.5566,-3.5753,-3.5875,-3.5943,-3.5962,-3.6017,-3.5988,-3.6019,-3.5981,-3.5986,-3.5914,-3.5883,-3.5814,-3.5732,-3.5593,-3.5398,-3.516,-3.4898,-3.4609,-3.3818,-3.3573,-3.3458,-3.2439,-3.211,-3.2003,-3.105,-3.0075,-2.9114,-2.8453,-2.8569,-2.897,-2.9343,-2.9208,-2.947,-3.1629,-3.1252,-3.0471,-3.1241,-3.0729,-2.9566,-2.7777,-2.7799,-2.838,-2.9006,-2.9719,-3.0394,-3.0898,-2.9599,-2.8522,-2.8522,-2.8522,-2.7262,-2.3899,-2.3886,-2.3922,-2.3128,-2.374,-2.42,-2.42,-2.4897,-2.53,-2.53,-2.53,-2.5695,-2.6566,-2.6727,-2.625,-2.5133,-2.5487,-2.6142,-2.7103,-2.8107,-2.7681,-2.602,-2.6236,-2.5612,0.0,0.0,0.0,0.0,0.0,0.0,0.0,0.0,0.0,0.0,0.0,0.0,0.0,0.0,0.0,0.0,0.0,0.0,0.0,0.0,0.0,0.0,0.0,0.0,0.0,0.0,0.0,0.0,0.0,0.0,-3.548,-3.4883,-3.4604,-3.4751,-3.5019,-3.5299,-3.5625,-3.5775,-3.5843,-3.5883,-3.5943,-3.5964,-3.598,-3.6009,-3.597,-3.5978,-3.5907,-3.5872,-3.5797,-3.5732,-3.5593,-3.5378,-3.5184,-3.4964,-3.4609,-3.3863,-3.3599,-3.35,-3.2574,-3.2256,-3.2144,-3.1278,-3.014,-2.9045,-2.8716,-2.8622,-2.8721,-2.9414,-2.9145,-2.9018,-3.0863,-2.9962,-2.8953,-3.0371,-2.9827,-2.8943,-2.865,-2.8221,-2.7901,-2.7936,-2.8355,-2.9088,-3.038,-2.9443,-2.8522,-2.8522,-2.7663,-2.6077,-2.3341,-2.3224,-2.3075,-2.2289,-2.2927,-2.3593,-2.4164,-2.4647,-2.504,-2.5264,-2.53,-2.5636,-2.6347,-2.6225,-2.583,-2.5111,-2.5217,-2.5385,-2.5516,-2.7072,-2.6894,-2.5241,-2.5917,-2.5452,0.0,0.0,0.0,0.0,0.0,0.0,0.0,0.0,0.0,0.0,0.0,0.0,0.0,0.0,0.0,0.0,0.0,0.0,0.0,0.0,0.0,0.0,0.0,0.0,0.0,0.0,0.0,0.0,-3.4801,-3.4781,-3.4716,-3.4615,-3.4689,-3.486,-3.5051,-3.5246,-3.5421,-3.5586,-3.5728,-3.5866,-3.588,-3.5894,-3.5909,-3.596,-3.5958,-3.5907,-3.5894,-3.5872,-3.5794,-3.575,-3.5577,-3.5385,-3.5254,-3.4992,-3.4695,-3.4539,-3.4142,-3.3657,-3.3343,-3.2842,-3.2179,-3.1447,-3.0258,-2.9091,-2.9036,-2.8374,-2.7865,-2.9249,-2.9145,-2.8761,-2.9397,-2.9113,-2.9034,-3.0798,-3.0492,-2.9812,-2.9853,-2.8856,-2.7652,-2.6684,-2.6499,-2.7178,-2.9289,-2.8988,-2.8522,-2.8522,-2.6056,-2.3945,-2.315,-2.2327,-2.2101,-2.2927,-2.2289,-2.2478,-2.4018,-2.4164,-2.4467,-2.5229,-2.5264,-2.5658,-2.652,-2.567,-2.5158,-2.5088,-2.5094,-2.4731,-2.399,-2.6365,-2.6854,-2.5577,-2.6212,-2.5806,-0.6016,0.0,0.0,0.0,0.0,0.0,0.0,0.0,0.0,0.0,0.0,0.0,0.0,0.0,0.0,0.0,0.0,0.0,0.0,0.0,0.0,0.0,0.0,0.0,0.0,0.0,0.0,0.0,-3.4768,-3.4668,-3.4561,-3.4528,-3.4341,-3.3922,-3.408,-3.4006,-3.364,-3.4289,-3.4705,-3.4902,-3.5535,-3.5843,-3.5894,-3.5917,-3.5919,-3.5894,-3.5908,-3.5868,-3.581,-3.5784,-3.5653,-3.5451,-3.517,-3.4879,-3.4599,-3.4309,-3.3941,-3.3514,-3.2611,-3.2429,-3.2472,-3.1688,-3.0351,-2.8943,-2.8229,-2.781,-2.7999,-2.9813,-2.9495,-2.8665,-2.8826,-2.8761,-2.8709,-2.9224,-2.9571,-2.9627,-2.9093,-2.9133,-2.8698,-2.6851,-2.6499,-2.6328,-2.5861,-2.7296,-2.8522,-2.8522,-2.6056,-2.4127,-2.3886,-2.2665,-2.2101,-2.2927,-2.2815,-2.274,-2.2889,-2.315,-2.3666,-2.4431,-2.4322,-2.4558,-2.5347,-2.4982,-2.4634,-2.4365,-2.5054,-2.4692,-2.3273,-2.4976,-2.5483,-2.486,-2.4461,-2.3917,0.0,0.0,0.0,0.0,0.0,0.0,0.0,-1.5537,0.0,0.0,0.0,0.0,0.0,0.0,0.0,0.0,0.0,0.0,0.0,0.0,0.0,0.0,0.0,0.0,0.0,-3.4768,-3.4778,-3.4727,-3.4737,-3.4685,-3.4506,-3.445,-3.4281,-3.3963,-3.3781,-3.354,-3.3283,-3.3859,-3.4257,-3.442,-3.5287,-3.5767,-3.5846,-3.5864,-3.5878,-3.5911,-3.5892,-3.5861,-3.5822,-3.5784,-3.5637,-3.5412,-3.5162,-3.487,-3.4556,-3.425,-3.3731,-3.309,-3.2596,-3.2312,-3.2085,-3.2004,-3.0911,-2.947,-2.8277,-2.779,-2.7786,-2.8732,-2.9013,-2.9017,-2.9017,-2.8826,-2.8676,-2.9026,-2.9468,-2.9768,-2.9632,-2.9719,-2.9402,-2.8133,-2.6632,-2.5253,-2.4345,-2.5315,-2.6333,-2.6641,-2.5294,-2.42,-2.42,-2.2815,-2.1987,-2.244,-2.2815,-2.2927,-2.2665,-2.2852,-2.3298,-2.3982,-2.3909,-2.4113,-2.4739,-2.437,-2.4108,-2.3974,-2.4408,-2.4181,-2.3264,-2.4706,-2.5249,-2.4864,-2.3704,-2.3221,0.0,0.0,0.0,0.0,0.0,0.0,-1.6153,-1.5582,-1.5037,0.0,0.0,0.0,0.0,0.0,0.0,0.0,0.0,0.0,0.0,0.0,0.0,0.0,0.0,0.0,-3.4459,-3.4566,-3.4586,-3.4492,-3.4555,-3.4534,-3.4323,-3.4272,-3.4333,-3.4416,-3.3792,-3.3516,-3.3633,-3.3922,-3.4122,-3.4301,-3.5168,-3.5625,-3.5797,-3.5797,-3.5822,-3.5864,-3.5864,-3.5861,-3.5853,-3.5732,-3.5587,-3.5381,-3.52,-3.4879,-3.455,-3.425,-3.3511,-3.2657,-3.2915,-3.2352,-3.153,-3.1978,-3.1491,-3.0414,-2.892,-2.8063,-2.7522,-2.7113,-2.8195,-2.9523,-2.9585,-2.9113,-2.8774,-2.9384,-2.9555,-2.9786,-3.0675,-3.0037,-2.9313,-2.9313,-2.6548,-2.42,-2.42,-2.3593,-2.3401,-2.4277,-2.4265,-2.42,-2.42,-2.2815,-2.1797,-2.1797,-2.244,-2.2852,-2.2815,-2.2852,-2.3075,-2.3615,-2.3689,-2.3905,-2.4348,-2.378,-2.3534,-2.3635,-2.3328,-2.3367,-2.377,-2.5044,-2.5442,-2.5001,-2.3475,-2.3234,0.0,0.0,0.0,0.0,0.0,0.0,-1.2376,-1.2662,-1.3733,0.0,0.0,0.0,0.0,0.0,0.0,0.0,0.0,0.0,0.0,0.0,0.0,0.0,0.0,0.0,-3.3553,-3.3644,-3.3648,-3.3631,-3.3521,-3.3377,-3.3297,-3.3771,-3.3821,-3.3263,-3.3306,-3.3084,-3.2524,-3.3352,-3.389,-3.4075,-3.4955,-3.547,-3.5626,-3.5648,-3.5664,-3.5679,-3.5679,-3.5664,-3.5643,-3.5621,-3.5548,-3.5444,-3.5216,-3.4851,-3.4464,-3.4093,-3.3683,-3.3146,-3.2169,-3.2169,-3.2204,-2.9825,-3.0414,-3.1638,-2.9595,-2.8326,-2.7698,-2.8116,-2.8506,-2.8922,-2.946,-2.9113,-2.8492,-2.8046,-2.7964,-2.8334,-2.9732,-2.8015,-2.6178,-2.6178,-2.5109,-2.42,-2.42,-2.4091,-2.4341,-2.5422,-2.4777,-2.42,-2.42,-2.2815,-2.1797,-2.1797,-2.1949,-2.1911,-2.1589,-2.1835,-2.2214,-2.2665,-2.2515,-2.2633,-2.3057,-2.2783,-2.2633,-2.2681,-2.2133,-2.2806,-2.4745,-2.4245,-2.385,-2.3448,-2.2756,-2.2722,0.0,0.0,0.0,-1.8269,0.0,0.0,0.0,0.0,-1.4534,-1.5869,0.0,0.0,0.0,0.0,0.0,0.0,0.0,0.0,0.0,0.0,0.0,0.0,0.0,0.0,-3.2102,-3.2514,-3.277,-3.2804,-3.3002,-3.3153,-3.3153,-3.3697,-3.3895,-3.3609,-3.3354,-3.3055,-3.2712,-3.3307,-3.3657,-3.376,-3.4319,-3.4693,-3.4834,-3.4465,-3.4318,-3.4355,-3.4355,-3.4615,-3.4986,-3.4922,-3.5117,-3.5418,-3.516,-3.486,-3.4491,-3.4018,-3.3469,-3.2869,-3.2382,-3.2163,-3.1907,-3.069,-3.1273,-3.1984,-2.9793,-2.8002,-2.7016,-2.8239,-2.86,-2.8697,-2.9017,-2.8858,-2.8411,-2.7656,-2.749,-2.7702,-2.8482,-2.6898,-2.53,-2.53,-2.4683,-2.4091,-2.3666,-2.3261,-2.3215,-2.3758,-2.3366,-2.315,-2.3556,-2.2553,-2.1797,-2.1797,-2.1797,-2.1665,-2.1244,-2.1185,-2.1454,-2.2063,-2.1987,-2.2101,-2.2402,-2.2289,-2.2138,-2.1949,-2.1759,-2.2019,-2.2798,-2.276,-2.3034,-2.3745,-2.3041,-2.2815,0.0,0.0,0.0,0.0,0.0,-1.918,0.0,0.0,0.0,-1.7941,0.0,0.0,0.0,0.0,0.0,0.0,0.0,0.0,0.0,0.0,0.0,0.0,0.0,0.0,0.0,-3.0864,-3.1184,-3.1261,-3.1734,-3.2238,-3.2713,-3.3352,-3.3844,-3.4105,-3.3524,-3.3238,-3.3331,-3.3516,-3.3652,-3.3712,-3.393,-3.405,-3.4033,-3.3455,-3.3145,-3.3026,-3.3026,-3.3445,-3.4052,-3.3943,-3.4285,-3.4818,-3.4937,-3.4793,-3.4495,-3.3954,-3.3282,-3.2601,-3.2824,-3.2331,-3.1698,-3.2243,-3.2126,-3.1397,-2.9528,-2.753,-2.6302,-2.8267,-2.8697,-2.86,-2.86,-2.8379,-2.8085,-2.759,-2.749,-2.749,-2.749,-2.6242,-2.5207,-2.5599,-2.4746,-2.374,-2.3113,-2.2478,-2.1987,-2.1797,-2.1797,-2.2025,-2.2703,-2.2327,-2.1949,-2.1797,-2.1645,-2.1415,-2.1128,-2.0838,-2.0954,-2.1645,-2.1721,-2.1835,-2.2025,-2.2025,-2.1935,-2.1753,-2.1689,-2.156,-2.1332,-2.1346,-2.2088,-2.3466,-2.2655,-2.2344,0.0,0.0,0.0,0.0,-2.3272,0.0,0.0,0.0,-1.8491,-1.5844,0.0,0.0,0.0,0.0,0.0,0.0,0.0,0.0,0.0,0.0,0.0,0.0,0.0,0.0,0.0,-2.8133,-2.7855,-2.7846,-2.7815,-2.8623,-3.0531,-3.1986,-3.298,-3.3488,-3.3528,-3.362,-3.3817,-3.3969,-3.4221,-3.4566,-3.461,-3.4358,-3.3936,-3.383,-3.3463,-3.2823,-3.2823,-3.284,-3.2888,-3.2866,-3.2813,-3.2893,-3.4283,-3.4614,-3.4295,-3.3863,-3.3494,-3.3166,-3.2977,-3.2811,-3.2676,-3.2455,-3.1069,-2.9325,-2.8692,-2.728,-2.6413,-2.8822,-2.9081,-2.86,-2.86,-2.7656,-2.6875,-2.739,-2.749,-2.749,-2.749,-2.5826,-2.4839,-2.6662,-2.4918,-2.3113,-2.3001,-2.2927,-2.2628,-2.1911,-2.1797,-2.1835,-2.1911,-2.2478,-2.259,-2.1873,-2.1146,-2.0722,-2.0683,-2.0838,-2.1051,-2.1244,-2.1436,-2.1627,-2.1835,-2.1835,-2.2066,-2.2525,-2.1583,-2.2049,-2.405,-2.1067,-1.9701,-1.9888,-1.9781,-1.9923,0.0,0.0,0.0,0.0,0.0,0.0,-2.0468,0.0,-1.8751,0.0,0.0,0.0,0.0,0.0,0.0,0.0,0.0,0.0,0.0,0.0,0.0,0.0,0.0,0.0,0.0,0.0,0.0,0.0,-2.6234,-2.7167,-2.8936,-3.0784,-3.2095,-3.2732,-3.319,-3.3516,-3.3657,-3.373,-3.367,-3.3557,-3.3178,-3.2758,-3.2196,-3.1865,-3.1538,-3.1291,-3.1291,-3.1522,-3.1874,-3.1865,-3.2041,-3.2448,-3.3392,-3.3669,-3.3508,-3.3149,-3.3158,-3.3378,-3.3008,-3.2882,-3.2753,-3.1948,-3.1098,-3.0054,-2.8811,-2.7488,-2.6854,-2.9005,-2.9145,-2.8503,-2.8052,-2.7523,-2.7154,-2.7423,-2.749,-2.7754,-2.8641,-2.6372,-2.4453,-2.5302,-2.4138,-2.2852,-2.2365,-2.2703,-2.259,-2.13,-2.1108,-2.1108,-2.1108,-2.1415,-2.1492,-2.1146,-2.0799,-2.0489,-2.0216,-2.0372,-2.0508,-2.045,-2.076,-2.1108,-2.1436,-2.1703,-2.1768,-2.1724,-2.1093,-2.0997,-2.1477,-1.952,-1.8554,-1.8554,-1.8554,-1.9033,-2.6933,0.0,0.0,0.0,0.0,0.0,0.0,0.0,0.0,0.0,0.0,0.0,0.0,0.0,0.0,0.0,0.0,0.0,0.0,0.0,0.0,0.0,0.0,0.0,0.0,0.0,0.0,0.0,0.0,-2.524,-2.7476,-2.9428,-3.0916,-3.196,-3.2664,-3.3096,-3.3202,-3.3118,-3.2903,-3.2559,-3.1982,-3.1422,-3.0885,-3.0473,-3.0181,-3.0076,-3.0076,-3.0372,-3.0823,-3.0801,-3.1053,-3.1486,-3.1837,-3.2029,-3.2195,-3.2627,-3.3057,-3.3357,-3.3024,-3.2934,-3.2595,-3.0801,-3.0685,-3.0898,-2.9289,-2.786,-2.7091,-2.8452,-2.8713,-2.8411,-2.7689,-2.749,-2.7456,-2.7255,-2.7679,-2.8216,-2.85,-2.6282,-2.42,-2.42,-2.3556,-2.274,-2.1949,-2.2289,-2.2214,-2.0799,-2.0605,-2.0605,-2.0605,-2.0605,-2.0411,-1.9942,-2.0216,-2.0216,-1.9784,-2.0039,-2.0196,-2.0177,-2.0605,-2.0977,-2.1347,-2.1759,-2.1718,-2.1128,-2.0876,-2.0333,-1.9469,-1.8714,-1.8423,-1.8562,-1.8181,-1.8514,0.0,0.0,0.0,-2.388,0.0,0.0,0.0,0.0,-2.1915,0.0,0.0,0.0,0.0,0.0,0.0,0.0,0.0,0.0,0.0,0.0,0.0,0.0,0.0,0.0,0.0,0.0,0.0,0.0,0.0,0.0,-2.6056,-2.7731,-2.9402,-3.1173,-3.1948,-3.2403,-3.2551,-3.2061,-3.1967,-3.2206,-3.1664,-3.1122,-3.0617,-3.0659,-3.0329,-2.9726,-2.9726,-2.9701,-2.9673,-2.973,-2.9568,-2.9323,-2.9376,-2.9653,-3.0288,-3.2615,-3.3327,-3.3101,-3.3008,-3.293,-3.2335,-2.8931,-2.9351,-3.1032,-3.0141,-2.8415,-2.6794,-2.6881,-2.7733,-2.8411,-2.7689,-2.749,-2.7323,-2.6705,-2.8195,-2.895,-2.6069,-2.4801,-2.42,-2.42,-2.3556,-2.274,-2.1949,-2.1797,-2.1568,-2.0722,-2.0605,-2.0605,-2.0605,-2.0605,-1.9942,-1.8273,-1.9192,-1.9745,-1.9332,-1.9902,-2.045,-2.0818,-2.1234,-2.1551,-2.1749,-2.2251,-2.215,-2.1377,-2.1223,-2.0741,-1.9863,-1.9469,-1.9546,-2.0017,-1.8638,-1.8152,0.0,0.0,-2.8909,-2.5568,0.0,0.0,0.0,0.0,0.0,0.0,0.0,0.0,0.0,0.0,0.0,0.0,0.0,0.0,0.0,0.0,0.0,0.0,0.0,0.0,0.0,0.0,0.0,0.0,-1.9164,0.0,0.0,-2.6258,-2.8044,-3.012,-3.0768,-3.1356,-3.1968,-3.1323,-3.0975,-3.0862,-3.029,-2.9815,-2.9395,-2.9488,-2.9461,-2.9357,-2.9357,-2.9295,-2.9191,-2.9249,-2.9174,-2.9104,-2.9514,-2.982,-3.0048,-3.0833,-3.2045,-3.313,-3.181,-3.1209,-3.0904,-3.0541,-3.0938,-3.1408,-3.0551,-2.9371,-2.8107,-2.7078,-2.7996,-2.899,-2.7822,-2.749,-2.7323,-2.6671,-2.6664,-2.6517,-2.5539,-2.5087,-2.479,-2.4309,-2.3556,-2.2927,-2.2628,-2.2138,-2.153,-2.0722,-2.0137,-1.9942,-2.0527,-2.0605,-2.0372,-1.9766,-1.9073,-1.8834,-1.9253,-1.9508,-1.9706,-1.9844,-1.9995,-2.0269,-2.0781,-2.0898,-2.1271,-2.1925,-2.1352,-2.0702,-1.9902,-1.9508,-1.9385,-1.9537,-1.8737,-1.8712,-2.9029,-2.9319,0.0,-2.6594,-2.5342,0.0,-2.1608,0.0,0.0,0.0,0.0,0.0,0.0,0.0,0.0,0.0,0.0,0.0,0.0,0.0,0.0,0.0,0.0,0.0,0.0,0.0,-1.6383,-1.7543,0.0,0.0,0.0,0.0,-2.6874,-2.8921,-2.9588,-3.0231,-3.0946,-3.0087,-2.9575,-2.9451,-2.883,-2.835,-2.8032,-2.8408,-2.8566,-2.8544,-2.8789,-2.889,-2.8808,-2.8808,-2.8809,-2.8846,-2.9281,-2.9437,-2.951,-3.0051,-3.1151,-3.211,-3.0547,-3.0067,-3.029,-3.0959,-3.146,-3.1542,-3.0161,-2.9448,-2.8873,-2.7791,-2.7883,-2.816,-2.7643,-2.749,-2.7323,-2.6671,-2.5886,-2.5409,-2.588,-2.5971,-2.5438,-2.369,-2.3455,-2.3229,-2.2319,-2.1471,-2.0818,-2.0644,-2.0137,-1.9844,-2.0098,-1.9844,-1.9706,-1.9706,-1.8674,-1.8353,-1.9231,-1.9112,-1.9112,-1.9311,-1.9359,-1.9712,-2.0367,-2.048,-2.0981,-2.1839,-2.1382,-2.0776,-2.001,-1.9524,-1.9366,-1.9383,-1.8841,-1.9026]},{"header":{"parameterUnit":"m.s-1","parameterCategory":1,"la1":30.6,"la2":29.2853,"lo1":-89.7004,"lo2":-87.6739,"dy":0.0162,"dx":0.0183,"nx":112,"ny":82,"refTime":"2024-05-21T00:00:00:Z","depth":0,"parameterNumber":3,"parameterNumberName":"V-component_of_WINDS"},"data":[0.0,0.0,0.0,0.0,0.0,0.0,0.0,0.0,0.0,0.0,0.0,0.0,0.0,0.0,0.0,0.0,0.0,0.0,0.0,0.0,0.0,0.0,0.0,0.0,0.0,0.0,0.0,0.0,0.0,0.0,0.0,0.0,0.0,0.0,0.0,0.0,0.0,0.0,0.0,0.0,0.0,0.0,0.0,0.0,0.0,0.0,0.0,0.0,0.0,0.0,0.0,0.0,0.0,0.0,0.0,0.0,0.0,0.0,0.0,0.0,0.0,0.0,0.0,0.0,0.0,0.0,0.0,0.0,0.0,0.0,0.0,0.0,0.0,0.0,0.0,0.0,0.0,0.0,0.0,0.0,0.0,0.0,0.0,0.0,0.0,0.0,0.0,0.0,0.0,0.0,0.0,1.5867,1.6459,1.668,1.636,1.4838,1.3915,1.3918,0.0,0.0,0.0,0.0,0.0,0.0,0.0,0.0,0.0,0.0,0.0,0.0,0.0,0.0,0.0,0.0,0.0,0.0,0.0,0.0,0.0,0.0,0.0,0.0,0.0,0.0,0.0,0.0,0.0,0.0,0.0,0.0,0.0,0.0,0.0,0.0,0.0,0.0,0.0,0.0,0.0,0.0,0.0,0.0,0.0,0.0,0.0,0.0,0.0,0.0,0.0,0.0,0.0,0.0,0.0,0.0,0.0,0.0,0.0,0.0,0.0,0.0,0.0,0.0,0.0,0.0,0.0,0.0,0.0,0.0,0.0,0.0,0.0,0.0,0.0,0.0,0.0,0.0,0.0,0.0,0.0,0.0,0.0,0.0,0.0,0.0,0.0,0.0,0.0,0.0,0.0,0.0,0.0,0.0,0.0,0.0,0.0,0.0,0.0,0.0,0.0,0.0,0.0,0.0,1.3186,1.5515,1.5847,1.5908,1.5893,1.4518,1.3756,1.3967,0.0,0.0,0.0,0.0,0.0,0.0,0.0,0.0,0.0,0.0,0.0,0.0,0.0,0.0,0.0,0.0,0.0,0.0,0.0,0.0,0.0,0.0,0.0,0.0,0.0,0.0,0.0,0.0,0.0,0.0,0.0,0.0,0.0,0.0,0.0,0.0,0.0,0.0,0.0,0.0,0.0,0.0,0.0,0.0,0.0,0.0,0.0,0.0,0.0,0.0,0.0,0.0,0.0,0.0,0.0,0.0,0.0,0.0,0.0,0.0,0.0,0.0,0.0,0.0,0.0,0.0,0.0,0.0,0.0,0.0,0.0,0.0,0.0,0.0,0.0,0.0,0.0,0.0,0.0,0.0,0.0,0.0,0.0,0.0,0.0,0.0,0.0,0.0,0.0,0.0,0.0,0.0,0.0,0.0,0.0,0.0,0.0,0.0,0.0,0.0,0.0,0.0,0.0,1.2428,1.3331,1.4992,1.5537,1.5622,1.5285,1.4574,1.407,1.3898,1.2235,0.0,0.0,0.0,0.0,0.0,0.0,0.0,0.0,0.0,0.0,0.0,0.0,0.0,0.0,0.0,0.0,0.0,0.0,0.0,0.0,0.0,0.0,0.0,0.0,0.0,0.0,0.0,0.0,0.0,0.0,0.0,0.0,0.0,0.0,0.0,0.0,0.0,0.0,0.0,0.0,0.0,0.0,0.0,0.0,0.0,0.0,0.0,0.0,0.0,0.0,0.0,0.0,0.0,0.0,0.0,0.0,0.0,0.0,0.0,0.0,0.0,0.0,0.0,0.0,0.0,0.0,0.0,0.0,0.0,0.0,0.0,0.0,0.0,0.0,0.0,0.0,0.0,0.0,0.0,0.0,0.0,0.0,0.0,0.0,0.0,0.0,0.0,0.0,0.0,0.0,0.0,0.0,0.0,0.0,0.0,0.0,0.0,0.0,0.0,0.0,0.0,0.0,1.3382,1.3858,1.4529,1.5268,1.5524,1.5135,1.4775,1.4421,1.4065,1.2223,0.0,0.0,0.0,0.0,0.0,0.0,0.0,0.0,0.0,0.0,0.0,0.0,0.0,0.0,0.0,0.0,0.0,0.0,0.0,0.0,0.0,0.0,0.0,0.0,0.0,0.0,0.0,0.0,0.0,0.0,0.0,0.0,0.0,0.0,0.0,0.0,0.0,0.0,0.0,0.0,0.0,0.0,0.0,0.0,0.0,0.0,0.0,0.0,0.0,0.0,0.0,0.0,0.0,0.0,0.0,0.0,0.0,0.0,0.0,0.0,0.0,0.0,0.0,0.0,0.0,0.0,0.0,0.0,0.0,0.0,0.0,0.0,0.0,0.0,0.0,0.0,0.0,0.0,0.0,0.0,0.0,0.0,0.0,0.0,0.0,0.0,0.0,0.0,0.0,0.0,0.0,0.0,0.0,0.0,0.0,0.0,0.0,0.0,0.0,0.0,0.0,0.0,1.3214,1.4249,1.4316,1.4939,1.5501,1.5871,1.5062,1.4567,1.4711,1.3098,0.0,0.0,0.0,0.0,0.0,0.0,0.0,0.0,0.0,0.0,0.0,0.0,0.0,0.0,0.0,0.0,0.0,0.0,0.0,0.0,0.0,0.0,0.0,0.0,0.0,0.0,0.0,0.0,0.0,0.0,0.0,0.0,0.0,0.0,0.0,0.0,0.0,0.0,0.0,0.0,0.0,0.0,0.0,0.0,0.0,0.0,0.0,0.0,0.0,0.0,0.0,0.0,0.0,0.0,0.0,0.0,0.0,0.0,0.0,0.0,0.0,0.0,0.0,0.0,0.0,0.0,0.0,0.0,0.0,0.0,0.0,0.0,0.0,0.0,0.0,0.0,0.0,0.0,0.0,0.0,0.0,0.0,0.0,0.0,0.0,0.0,0.0,0.0,0.0,0.0,0.0,0.0,0.0,0.0,0.0,0.0,0.0,0.0,0.0,0.0,0.0,0.0,1.3056,1.4013,0.0,1.4792,1.5179,1.5379,1.5072,1.474,1.4396,0.0,0.0,0.0,0.0,0.0,0.0,0.0,0.0,0.0,0.0,0.0,0.0,0.0,0.0,0.0,0.0,0.0,0.0,0.0,0.0,0.0,0.0,0.0,0.0,0.0,0.0,0.0,0.0,0.0,0.0,0.0,0.0,0.0,0.0,0.0,0.0,0.0,0.0,0.0,0.0,0.0,0.0,0.0,0.0,0.0,0.0,0.0,0.0,0.0,0.0,0.0,0.0,0.0,0.0,0.0,0.0,0.0,0.0,0.0,0.0,0.0,0.0,0.0,0.0,0.0,0.0,0.0,0.0,0.0,0.0,0.0,0.0,0.0,0.0,0.0,0.0,0.0,0.0,0.0,0.0,0.0,0.0,0.0,0.0,0.0,0.0,0.0,0.0,0.0,0.0,0.0,0.0,0.0,0.0,0.0,0.0,0.0,0.0,0.0,0.0,0.0,0.0,1.2036,1.3345,1.4279,0.0,1.5002,1.526,1.5311,1.5154,1.4861,1.4375,0.0,0.0,0.0,0.0,0.0,0.0,0.0,0.0,0.0,0.0,0.0,0.0,0.0,0.0,0.0,0.0,0.0,0.0,0.0,0.0,0.0,0.0,0.0,0.0,0.0,0.0,0.0,0.0,0.0,0.0,0.0,0.0,0.0,0.0,0.0,0.0,0.0,0.0,0.0,0.0,0.0,0.0,0.0,0.0,0.0,0.0,0.0,0.0,0.0,0.0,0.0,0.0,0.0,0.0,0.0,0.0,0.0,0.0,0.0,0.0,0.0,0.0,0.0,0.0,0.0,0.0,0.0,0.0,0.0,0.0,0.0,0.0,0.0,0.0,0.0,0.0,0.0,0.0,0.0,0.0,0.0,0.0,0.0,0.0,0.0,0.0,0.0,0.0,0.0,0.0,0.0,0.0,0.0,0.0,0.0,0.0,0.0,0.0,0.0,0.0,0.0,0.0,1.2507,1.4101,1.5153,1.5296,1.5613,1.5829,1.5997,1.5402,1.4959,0.0,0.0,0.0,0.0,0.0,0.0,0.0,0.0,0.0,0.0,0.0,0.0,0.0,0.0,0.0,0.0,0.0,0.0,0.0,0.0,0.0,0.0,0.0,0.0,0.0,0.0,0.0,0.0,0.0,0.0,0.0,0.0,0.0,0.0,0.0,0.0,0.0,0.0,0.0,0.0,0.0,0.0,0.0,0.0,0.0,0.0,0.0,0.0,0.0,0.0,0.0,0.0,0.0,0.0,0.0,0.0,0.0,0.0,0.0,0.0,0.0,0.0,0.0,0.0,0.0,0.0,0.0,0.0,0.0,0.0,0.0,0.0,0.0,0.0,0.0,0.0,0.0,0.0,0.0,0.0,0.0,0.0,0.0,0.0,0.0,0.0,0.0,0.0,0.0,0.0,0.0,0.0,0.0,0.0,0.0,0.0,0.0,0.0,0.0,0.0,0.0,0.0,0.0,1.2883,1.4538,1.5646,1.5776,1.5853,1.5874,1.5939,1.5522,1.4922,1.4111,0.0,0.0,0.0,0.0,0.0,0.0,0.0,0.0,0.0,0.0,0.0,0.0,0.0,0.0,0.0,0.0,0.0,0.0,0.0,0.0,0.0,0.0,0.0,0.0,0.0,0.0,0.0,0.0,0.0,0.0,0.0,0.0,0.0,0.0,0.0,0.0,0.0,0.0,0.0,0.0,0.0,0.0,0.0,0.0,0.0,0.0,0.0,0.0,0.0,0.0,0.0,0.0,0.0,0.0,0.0,0.0,0.0,0.0,0.0,0.0,0.0,0.0,0.0,0.0,0.0,0.0,0.0,0.0,0.0,0.0,0.0,0.0,0.0,0.0,0.0,0.0,0.0,0.0,0.0,0.0,0.0,0.0,0.0,0.0,0.0,0.0,0.0,0.0,0.0,0.0,0.0,0.0,0.0,0.0,0.0,0.0,0.0,0.0,0.0,0.0,0.0,0.0,1.3586,1.5167,1.6208,1.6507,1.6281,1.6104,1.6067,1.5746,1.5149,1.4328,0.0,0.0,0.0,0.0,0.0,0.0,0.0,0.0,0.0,0.0,0.0,0.0,0.0,0.0,0.0,0.0,0.0,0.0,0.0,0.0,0.0,0.0,0.0,0.0,0.0,0.0,0.0,0.0,0.0,0.0,0.0,0.0,0.0,0.0,0.0,0.0,0.0,0.0,0.0,0.0,0.0,0.0,0.0,0.0,0.0,0.0,0.0,0.0,0.0,0.0,0.0,0.0,0.0,0.0,0.0,0.0,0.0,0.0,0.0,0.0,0.0,0.0,0.0,0.0,0.0,0.0,0.0,0.0,0.0,0.0,0.0,0.0,0.0,0.0,0.0,0.0,0.0,0.0,0.0,0.0,0.0,0.0,0.0,0.0,0.0,0.0,0.0,0.0,0.0,0.0,0.0,0.0,0.0,0.0,0.0,0.0,0.0,0.0,0.0,0.0,0.0,0.0,1.443,1.5828,1.6826,1.724,1.686,1.6501,1.632,1.5957,1.5475,1.4994,0.0,0.0,0.0,0.0,0.0,0.0,0.0,0.0,0.0,0.0,0.0,0.0,0.0,0.0,0.0,0.0,0.0,0.0,0.0,0.0,0.0,0.0,0.0,0.0,0.0,0.0,0.0,0.0,0.0,0.0,0.0,0.0,0.0,0.0,0.0,0.0,0.0,0.0,0.0,0.0,0.0,0.0,0.0,0.0,0.0,0.0,0.0,0.0,0.0,0.0,0.0,0.0,0.0,0.0,0.0,0.0,0.0,0.0,0.0,0.0,-0.0893,0.0,0.0,0.0,0.0,0.0,0.0,0.0,0.0,0.0,0.0,0.0,0.0,0.0,0.0,0.0,0.0,0.0,0.0,0.0,0.0,0.0,0.0,0.0,0.0,0.0,0.0,0.0,0.0,0.0,0.0,0.0,0.0,0.0,0.0,0.0,0.0,0.0,0.0,0.0,0.0,0.0,1.4402,1.607,1.7135,1.7283,1.7152,1.6889,1.6496,1.5981,1.5212,1.4084,1.2344,0.0,0.0,0.0,0.0,0.0,0.0,0.0,0.0,0.0,0.0,0.0,0.0,0.0,0.0,0.0,0.0,0.0,0.0,0.0,0.0,0.0,0.0,0.0,0.0,0.0,0.0,0.0,0.0,0.0,0.0,0.0,0.0,0.0,0.0,0.0,0.0,0.0,0.0,0.0,0.0,0.0,0.0,0.0,0.0,0.0,0.0,0.0,0.0,0.0,0.0,0.0,0.0,0.0,0.0,0.0,0.0,0.0,0.0,0.0,0.0,0.031,0.0,0.0,0.0,0.0,0.0,0.0,0.0,0.0,0.0,0.0,0.0,0.0,0.0,0.0,0.0,0.0,0.0,0.0,0.0,0.0,0.0,0.0,0.0,0.0,0.0,0.0,0.0,0.0,0.0,0.0,0.0,0.0,0.0,0.0,0.0,0.0,0.0,0.0,0.0,0.0,1.4742,1.6035,1.6924,1.7349,1.7137,1.6733,1.6219,1.5772,1.5031,1.3823,1.2212,0.0,0.0,0.0,0.0,0.0,0.0,0.0,0.0,0.0,0.0,0.0,0.0,0.0,0.0,0.0,0.0,0.0,0.0,0.0,0.0,0.0,0.0,0.0,0.0,0.0,0.0,0.0,0.0,0.0,0.0,0.0,0.0,0.0,0.0,0.0,0.0,0.0,0.0,0.0,0.0,0.0,0.0,0.0,0.0,0.0,0.0,0.0,0.0,0.0,0.0,0.0,0.0,0.0,-0.197,-0.2872,-0.387,-0.4111,-0.3739,-0.2801,-0.142,-0.0122,0.1178,0.3079,0.0,0.0,0.0,0.0,0.0,0.0,0.0,0.0,0.0,0.0,0.0,0.0,0.0,0.0,0.0,0.0,0.0,0.0,0.0,0.0,0.0,0.0,0.0,0.0,2.2817,2.1874,0.0,0.0,0.0,0.0,0.0,0.0,0.0,0.0,0.0,0.0,0.0,0.0,1.5029,1.596,1.6655,1.726,1.6987,1.6475,1.5838,1.5559,1.4962,1.3941,1.2329,1.0791,0.0,0.0,0.0,0.0,0.0,0.0,0.0,0.0,0.0,0.0,0.0,0.0,0.0,0.0,0.0,0.0,0.0,0.0,0.0,0.0,0.0,0.0,0.0,0.0,0.0,0.0,0.0,0.0,0.0,0.0,0.0,0.0,-0.0824,0.0311,0.0,0.0,0.0,0.0,0.0,0.0,0.0,0.0,0.0,0.0,0.0,0.0,0.0,0.154,0.115,0.0242,-0.0675,-0.164,-0.2208,-0.3029,-0.4079,-0.4265,-0.381,-0.2741,-0.1668,0.0,0.2792,0.3997,0.0,0.0,0.0,0.0,0.0,0.0,0.0,0.0,0.0,0.0,0.0,0.0,0.0,0.0,0.0,0.0,0.0,0.0,0.0,0.0,0.0,0.0,2.5782,2.4563,2.4382,2.3716,0.0,1.8301,1.6049,1.5108,1.3784,0.0,0.0,0.0,0.0,0.0,0.0,0.0,1.4661,1.6038,1.6875,1.6735,1.6849,1.6592,1.5717,1.5493,1.5021,1.414,1.2964,1.1978,1.1171,0.9155,0.0,0.0,0.0,0.0,0.0,0.0,0.0,0.0,0.0,0.0,0.0,0.0,0.0,0.0,0.0,0.0,0.0,0.0,0.0,0.0,0.0,0.0,0.0,0.0,0.0,0.0,0.0,0.0,0.0,-0.1804,-0.1431,-0.0141,0.0493,0.1534,0.0,0.0,0.0,0.0,0.0,0.0,0.0,0.0,0.0,0.1907,0.1564,0.1097,0.0478,-0.0075,-0.0798,-0.167,-0.233,-0.3096,-0.396,-0.4268,-0.3682,-0.2431,-0.1603,0.0463,0.3328,0.4679,0.6078,0.7471,0.0,0.0,0.0,0.0,1.0486,1.0462,1.1056,1.1051,0.0,1.059,0.0,0.0,0.0,0.0,0.0,0.0,0.0,0.0,0.0,0.0,2.6017,2.5224,2.4613,2.3652,2.1463,1.9387,1.7405,0.0,1.4927,1.3983,1.191,0.0,0.0,0.0,0.0,1.3249,1.4101,1.5061,1.5831,1.6058,1.621,1.592,1.5056,1.4817,1.4241,1.3098,1.2595,1.1753,1.0498,0.9874,0.8662,0.0,0.0,0.0,0.0,0.0,0.0,0.0,0.0,0.0,0.0,0.0,0.0,0.0,0.0,0.0,0.0,0.0,0.0,0.0,0.0,0.0,0.0,0.0,0.0,0.0,0.0,0.0,0.0,-0.254,-0.2148,-0.0584,-0.0167,0.0919,0.0,0.0,0.0,0.0,0.0,0.0,0.2608,0.2196,0.1784,0.1386,0.1197,0.0815,0.0157,-0.0236,-0.0824,-0.153,-0.2392,-0.31,-0.3647,-0.4151,-0.3561,-0.2079,-0.1486,0.0512,0.344,0.515,0.6574,0.784,0.9377,1.0307,1.0915,1.1678,1.1842,1.176,1.2223,1.2103,1.1756,1.1559,1.2114,1.2995,1.3478,0.0,0.0,0.0,0.0,2.2373,2.458,2.5595,2.5895,2.5302,2.4392,2.3124,2.1208,1.9846,1.8347,0.0,1.5662,1.4862,1.2136,0.0,0.0,0.0,0.0,1.3113,1.3658,1.4344,1.499,1.5546,1.5575,1.5322,1.4715,1.4355,1.3657,1.2541,1.2192,1.1467,1.0185,1.0392,0.9844,0.8446,0.0,0.0,0.0,0.0,0.0,0.0,0.0,0.0,0.0,0.0,0.0,0.0,0.0,0.0,0.0,0.0,0.0,0.0,0.0,0.0,0.0,0.0,0.0,0.0,0.0,0.0,0.0,0.0,0.0,-0.1203,-0.0883,0.0,0.0,0.0,0.0,0.3436,0.3653,0.3354,0.2286,0.2014,0.1735,0.1338,0.0852,0.0602,0.0589,-0.0393,-0.1021,-0.1335,-0.2316,-0.2904,-0.3178,-0.3995,-0.3483,-0.1881,-0.1486,0.039,0.3288,0.5342,0.7281,0.9155,1.0716,1.1576,1.2003,1.2676,1.2526,1.2034,1.2449,1.2119,1.1585,1.2103,1.2788,1.3903,1.6265,1.739,0.0,0.0,2.2782,2.4154,2.5852,2.6343,2.6051,2.4763,2.386,2.2654,2.0193,1.9226,1.8348,0.0,1.5823,1.5,1.4163,0.0,1.2987,1.2833,1.3497,1.3906,1.3545,1.438,1.5079,1.5381,1.5294,1.5216,1.5167,1.4448,1.3765,1.3194,1.2191,1.1613,1.1591,1.0958,1.018,0.9263,0.8462,0.0,0.0,0.0,0.0,0.0,0.0,0.0,0.0,0.0,0.0,0.0,0.0,0.0,0.0,0.0,0.0,0.0,0.0,0.0,0.0,0.0,0.0,0.0,0.0,0.0,0.0,0.0,0.0,-0.2586,-0.1939,0.0,0.1546,0.2365,0.2809,0.2938,0.3213,0.2979,0.2113,0.1703,0.1337,0.0934,0.0467,0.0167,0.004,-0.0482,-0.0917,-0.1296,-0.204,-0.2588,-0.2943,-0.3526,-0.3132,-0.1842,-0.1175,0.0631,0.3204,0.5194,0.7128,0.9025,1.0836,1.1854,1.2337,1.3255,1.2976,1.225,1.2764,1.2247,1.1627,1.3188,1.4428,1.5744,1.8152,1.9391,2.0514,2.3084,2.4378,2.5322,2.6764,2.6712,2.5972,2.4705,2.357,2.2203,2.0074,1.9088,1.8179,1.6682,1.6052,1.5406,1.423,1.3737,1.3475,1.3261,1.3677,1.3939,1.3722,1.4369,1.4931,1.5225,1.5225,1.5196,1.5206,1.4317,1.3477,1.2857,1.2124,1.1441,1.0802,1.1416,1.1058,0.9583,0.9354,0.8335,0.0,0.0,0.0,0.0,0.0,0.0,0.0,0.0,0.0,0.0,0.0,0.0,0.0,0.0,0.0,0.0,0.0,0.0,0.0,0.0,0.0,0.0,0.0,0.0,0.0,0.0,-0.5117,-0.3706,-0.3204,-0.2025,0.0288,0.1185,0.1813,0.2193,0.2652,0.2554,0.1697,0.1359,0.0984,0.0478,0.0087,-0.017,-0.0285,-0.057,-0.0925,-0.1296,-0.1844,-0.2353,-0.2826,-0.3189,-0.2828,-0.1858,-0.0967,0.078,0.3091,0.5098,0.6979,0.8783,1.0659,1.185,1.2604,1.3318,1.3078,1.2497,1.2608,1.22,1.1977,1.3964,1.5227,1.6457,1.9144,2.0496,2.163,2.415,2.5286,2.5963,2.7051,2.6768,2.5906,2.4673,2.349,2.2101,2.0096,1.9144,1.822,1.6698,1.6173,1.5608,1.436,1.4031,1.3884,1.3585,1.4008,1.4249,1.407,1.4488,1.4961,1.5391,1.5156,1.5051,1.5253,1.4094,1.3111,1.2642,1.1907,1.1152,1.0394,1.1338,1.1213,0.977,0.9514,0.8381,0.6281,0.0,0.0,0.0,0.0,0.0,0.0,0.0,0.0,0.0,0.0,0.0,0.0,0.0,0.0,0.0,0.0,0.0,0.0,0.0,0.0,0.0,0.0,0.0,-0.5326,-0.6383,-0.6373,-0.449,-0.4583,-0.3676,-0.0801,0.0039,0.0648,0.1217,0.207,0.2111,0.1039,0.0998,0.0695,0.0044,-0.0261,-0.0341,-0.0285,-0.0774,-0.1127,-0.1337,-0.1726,-0.2235,-0.2781,-0.2908,-0.2571,-0.1813,-0.0906,0.0754,0.2954,0.5033,0.6866,0.857,1.0304,1.1682,1.273,1.2857,1.2855,1.2691,1.2034,1.2027,1.257,1.4238,1.5015,1.5907,1.9169,2.0603,2.162,2.426,2.5417,2.6045,2.6756,2.6575,2.5848,2.4591,2.3603,2.24,2.0281,1.9408,1.8543,1.6941,1.6175,1.5581,1.4742,1.4446,1.4228,1.3907,1.452,0.0,1.4606,1.4813,1.5244,1.5827,1.5079,1.4772,1.5353,1.3833,1.2757,1.2638,1.1558,1.0804,1.0502,1.0777,1.0574,0.981,0.8994,0.7132,0.421,0.0,0.0,0.0,0.0,0.0,0.0,0.0,0.0,0.0,0.0,0.0,0.0,0.0,0.0,0.0,0.0,0.0,0.0,0.0,0.0,0.0,0.0,-0.511,-0.599,-0.644,-0.6505,-0.6087,-0.5693,-0.4784,-0.3027,-0.1987,-0.1004,-0.0158,0.0991,0.1416,0.0804,0.106,0.099,0.0533,0.0089,-0.0176,-0.0299,-0.105,-0.1524,-0.1731,-0.1976,-0.2291,-0.2559,-0.2431,-0.2007,-0.1324,-0.0453,0.0952,0.2712,0.4662,0.6454,0.8187,1.0224,1.1651,1.2634,1.2811,1.2781,1.2573,1.2179,1.2243,1.2662,1.3633,1.4611,1.5918,1.8602,2.0101,2.1393,2.3757,2.4929,2.551,2.5695,2.5588,2.5109,2.3988,2.3035,2.2028,2.0561,1.9704,1.8911,1.7818,1.6959,1.6088,1.5178,1.4866,1.4906,1.5345,1.5253,0.0,1.5769,1.5625,1.5546,1.5662,1.5584,1.5545,1.5618,1.433,1.3456,1.3246,1.1901,1.0941,1.059,1.1109,1.0957,1.0031,0.8754,0.7667,0.0,0.0,0.0,0.0,0.0,0.0,0.0,0.0,0.0,0.0,0.0,0.0,0.0,0.0,0.0,0.0,0.0,0.0,0.0,0.0,0.0,0.0,-0.3238,-0.4615,-0.5504,-0.6378,-0.688,-0.6853,-0.653,-0.5803,-0.4578,-0.3553,-0.2591,-0.1608,-0.0353,0.0359,0.0289,0.0663,0.0805,0.0708,0.0133,-0.0308,-0.0609,-0.1361,-0.1912,-0.2194,-0.2101,-0.2218,-0.2496,-0.2054,-0.1704,-0.1437,-0.0299,0.0937,0.2317,0.4404,0.6246,0.0,0.0,0.0,0.0,0.0,1.2602,1.2197,1.2104,1.2178,1.2514,1.3378,1.4417,1.5733,1.8192,1.9732,2.1093,2.3547,2.4653,2.5227,2.575,2.567,2.5254,2.4506,2.3487,2.2416,2.1219,2.0194,1.9189,1.8212,1.7235,0.0,1.5771,1.5273,1.5219,1.5911,1.5704,1.5733,1.6347,1.6155,1.5951,1.5951,1.5787,1.5727,1.5794,1.4742,0.0,0.0,0.0,1.1486,1.0732,1.0993,0.0,0.0,0.0,0.0,0.0,0.0,0.0,0.0,0.6062,0.7181,0.0,0.0,0.0,0.0,0.0,0.0,0.0,0.0,0.0,0.0,0.0,0.0,0.0,0.0,0.0,0.0,-0.226,-0.3493,-0.4375,-0.6059,-0.7173,-0.6956,-0.7058,-0.676,-0.5669,-0.4882,-0.4054,-0.3061,-0.1761,-0.0831,-0.0405,0.0,0.0,0.0,0.0,-0.0566,-0.0955,-0.17,-0.2293,-0.2703,-0.2267,-0.2196,-0.2507,-0.1838,-0.1664,-0.1698,-0.0331,0.0839,0.1902,0.4175,0.6165,0.7921,0.9343,1.0697,1.1985,1.2593,1.236,1.1746,1.197,0.0,0.0,1.3331,1.4306,1.5483,1.7836,1.9393,2.0824,2.3453,2.4444,2.4982,2.6181,2.6173,2.5752,2.5294,2.4295,2.3135,2.1855,2.0653,1.9486,1.8293,1.7304,1.6594,1.6384,1.5693,1.5343,1.5965,1.5936,1.6064,1.6587,1.6456,1.6332,1.6374,0.0,0.0,1.5904,1.5137,1.4538,1.4339,1.3303,1.2177,1.102,1.075,1.0081,0.8908,0.8474,0.8228,0.8111,0.8277,0.8501,0.8746,0.8499,0.8974,0.0,0.0,0.0,0.0,0.0,0.0,0.0,0.0,0.0,0.0,0.0,0.0,0.0,0.0,0.0,-0.0805,-0.1771,-0.2708,-0.3603,-0.48,-0.5818,-0.645,-0.717,-0.7368,-0.6764,-0.6288,-0.5508,-0.4185,-0.2774,-0.1622,-0.0812,0.0122,0.0659,0.0678,0.0215,-0.0304,-0.0825,-0.1913,-0.2751,-0.3343,0.0,0.0,-0.2549,-0.218,-0.1664,-0.1058,-0.0295,0.0773,0.2101,0.3946,0.6409,0.9155,1.0858,1.1505,1.157,1.2589,1.2409,1.1777,1.23,1.2356,1.2282,1.2956,1.4104,1.5577,1.7272,1.8915,0.0,2.2804,2.3881,2.4534,2.5018,2.5393,2.5352,2.4154,2.368,2.3006,2.1215,2.0422,1.9704,1.8617,1.7681,1.6986,1.6738,1.5962,1.558,1.6285,1.6007,1.6026,1.6826,1.6614,1.6324,1.6181,1.6381,1.6397,1.6087,1.5738,1.5401,1.5033,1.3561,1.2502,1.2023,1.1155,1.0463,1.0003,0.9182,0.876,0.8723,0.8708,0.9256,1.0267,1.0165,1.0419,0.0,0.0,0.0,0.0,0.0,0.0,0.0,0.0,0.0,0.0,0.0,0.2846,0.0,0.0,0.0875,0.0447,-0.0736,-0.1842,-0.2457,-0.3654,-0.4891,-0.6072,-0.6943,-0.7375,-0.7172,-0.6917,-0.6364,-0.524,-0.3908,-0.2675,-0.1597,-0.0639,0.0162,0.0703,0.0,-0.0595,-0.1128,-0.2168,-0.3062,-0.3866,-0.3447,-0.315,-0.2912,-0.2326,-0.1871,-0.15,-0.0488,0.0598,0.1922,0.488,0.748,0.9717,1.1031,1.1482,1.1471,1.2264,1.2226,1.1843,1.2251,1.2319,1.2249,1.2517,1.3684,1.5198,1.6341,1.8031,2.0029,2.234,2.3513,2.432,2.5386,2.5871,2.5778,2.4715,2.4099,2.3369,2.1758,2.0727,1.9868,1.9198,1.8014,1.713,1.7053,1.6305,1.5914,1.6522,1.6204,1.62,1.7033,1.6903,1.6637,1.6467,1.6609,1.6637,1.6467,1.6042,1.5495,1.4772,1.3652,1.2543,1.1531,1.0977,1.0409,0.9803,0.9418,0.923,0.931,0.9706,1.0606,1.199,1.3103,1.339,0.0,0.0,0.0,0.0,0.0,0.0,0.0,0.0,0.4166,0.4272,0.3774,0.3295,0.3248,0.2385,0.1652,0.1601,0.0339,-0.0823,-0.1371,-0.261,-0.3959,-0.5298,-0.6415,-0.7119,-0.7213,-0.7145,-0.6731,-0.5906,-0.4768,-0.3561,-0.2392,-0.1412,-0.0515,0.0364,-0.0326,-0.0957,-0.155,-0.23,-0.3169,-0.4154,-0.3702,-0.3461,-0.333,-0.2567,-0.2211,-0.209,-0.046,0.0944,0.2369,0.607,0.8505,0.9992,1.0743,1.1242,1.1569,1.1923,1.1989,1.1935,1.2158,1.2223,1.2204,1.2239,1.3383,1.4837,1.5583,1.7331,1.961,2.1969,2.3181,2.414,2.5719,2.6138,2.5988,2.527,2.4468,2.3579,2.2348,2.1067,2.0009,1.9488,1.8226,1.7239,1.7174,1.6586,1.6222,1.6531,1.6337,1.642,1.7084,1.7049,1.6899,1.6779,1.6722,1.668,1.6708,1.6105,1.5314,1.437,1.358,1.2528,1.1064,1.0864,1.0451,0.9653,0.9713,0.9864,1.0144,1.0905,1.2095,1.3623,1.5802,1.6329,0.3346,0.4019,0.463,0.4791,0.4826,0.4981,0.0,0.0,0.512,0.5282,0.5207,0.483,0.3818,0.3455,0.2861,0.1486,0.1082,0.0499,-0.0738,-0.1713,-0.2603,-0.3393,-0.5289,-0.6646,-0.6999,-0.6954,-0.657,-0.5699,-0.4691,-0.3717,-0.2787,-0.1569,-0.0826,-0.0709,-0.0698,-0.105,-0.1771,-0.2404,-0.311,-0.3931,-0.3945,-0.3775,-0.3488,-0.3268,-0.2756,-0.1896,0.0462,0.2637,0.4657,0.6744,0.8505,0.9954,1.0594,1.1168,1.1709,1.1867,1.1905,1.1934,1.2197,1.2251,1.2252,1.2484,1.3536,1.4837,1.5583,1.7526,1.9801,2.1537,2.283,2.3889,2.4631,2.4886,2.48,2.4059,2.3497,2.2855,2.1902,2.0978,2.0019,1.8752,1.8133,1.7548,1.6717,1.6618,1.6497,1.6152,1.6363,1.6573,1.6672,1.6744,1.6779,1.6637,1.6814,1.6783,1.638,1.5806,1.5135,1.4349,1.3279,1.2523,1.2128,1.1497,1.1073,1.0884,1.068,1.0908,1.1664,1.2175,1.3255,1.4917,1.6784,1.7499,0.452,0.4874,0.0,0.0,0.546,0.565,0.5979,0.5799,0.5662,0.5892,0.5648,0.5193,0.4453,0.4083,0.3492,0.0,0.1777,0.1074,-0.0152,-0.123,-0.205,-0.2548,-0.4043,-0.5304,-0.6044,-0.6369,-0.624,-0.5628,-0.4774,-0.3956,-0.3175,-0.2081,-0.1296,-0.0904,-0.1001,-0.1311,-0.1806,-0.2293,-0.2993,-0.3901,-0.3923,-0.3925,-0.3909,-0.3578,-0.279,-0.1539,0.0821,0.2994,0.5126,0.7078,0.8835,1.0293,1.0781,1.1254,1.171,1.1706,1.1935,1.2205,1.2289,1.2365,1.2421,1.232,1.3251,1.4527,1.5047,1.6971,1.9273,2.1107,2.2412,2.3511,2.4489,2.4743,2.4593,2.3758,2.335,2.2758,2.1462,2.0656,1.9959,1.906,1.8214,1.7552,1.7247,1.708,1.6969,1.6882,1.6792,1.6807,1.7088,1.692,1.6666,1.6332,1.6588,1.6455,1.5615,1.5235,1.4676,1.3821,1.2942,1.2279,1.1855,1.1416,1.1123,1.099,1.1059,1.1405,1.2036,1.3104,1.4522,1.6191,1.8006,1.9117,0.5176,0.0,0.0,0.6021,0.6202,0.6234,0.6266,0.6138,0.61,0.6228,0.5997,0.5551,0.5168,0.4678,0.4047,0.3157,0.242,0.1607,0.0415,-0.0595,-0.1331,-0.1715,-0.2752,-0.379,-0.462,-0.5274,-0.5509,-0.5207,-0.4462,-0.3851,-0.336,-0.2497,-0.1784,-0.1309,-0.1437,-0.1622,-0.1914,-0.2305,-0.2872,-0.3691,-0.3824,-0.3982,-0.4122,-0.3704,-0.2711,-0.1298,0.0796,0.294,0.5162,0.7294,0.9074,1.0481,1.1031,1.1477,1.1784,1.1637,1.1921,1.2375,1.2287,1.2398,1.2537,1.2212,1.306,1.4247,1.4586,1.6548,1.8965,2.0631,2.201,2.3172,2.4065,2.426,2.4129,2.3479,2.3067,2.2517,2.13,2.0572,1.9901,1.903,1.8217,1.7672,1.7579,1.7475,1.7484,1.776,1.7451,1.7284,1.759,1.7145,1.6666,1.6324,1.641,1.602,1.4932,1.472,1.4246,1.3334,1.2667,1.2206,1.1907,1.1677,1.1542,1.1511,1.1861,1.2357,1.298,1.4284,1.5718,1.738,1.8947,2.0134,0.0,0.0,0.6468,0.6883,0.6932,0.6873,0.6873,0.664,0.6407,0.6468,0.6463,0.6342,0.5865,0.5499,0.4797,0.3421,0.2937,0.2335,0.1039,0.0452,-0.0048,-0.0604,-0.1488,-0.2225,0.0,-0.3654,-0.421,-0.4155,-0.3526,-0.317,-0.3197,-0.2637,-0.2273,-0.2273,-0.2074,-0.2076,-0.2277,-0.2538,-0.285,-0.3126,-0.3653,-0.3911,-0.3898,-0.3638,-0.2711,-0.1299,0.0405,0.259,0.5179,0.7456,0.9102,1.0331,1.1292,1.1811,1.1968,1.1706,1.1921,1.239,1.216,1.2305,1.2537,1.2212,1.306,1.423,1.4372,1.6529,1.9162,2.0008,2.1527,2.2903,2.2958,2.2958,2.2958,2.2903,2.2414,2.1837,2.1476,2.0845,1.9932,1.835,1.8093,1.7968,1.7316,1.759,1.8034,1.8494,1.8275,1.803,1.7897,1.7256,1.6779,1.6779,1.6381,1.5644,1.4526,1.4301,1.3847,1.2974,1.2412,1.2332,1.2849,1.2591,1.2643,1.3014,1.343,1.4154,1.5206,1.583,1.6947,1.8462,1.945,2.0224,0.0,0.0,0.6737,0.695,0.7002,0.6942,0.6942,0.6764,0.6609,0.6703,0.6631,0.6356,0.5708,0.5506,0.4945,0.3394,0.2932,0.2302,0.1089,0.0352,-0.0097,-0.0186,-0.0987,0.0,0.0,0.0,0.0,-0.394,-0.3201,-0.288,-0.3233,-0.241,-0.2037,-0.2369,-0.2146,-0.2103,-0.2369,-0.2393,-0.2639,-0.3126,-0.3831,-0.4182,-0.4166,-0.3904,-0.3248,-0.2196,-0.0163,0.2073,0.4516,0.6636,0.8599,1.0293,1.1292,1.1824,1.2004,1.1985,1.2308,1.2691,1.2255,1.2305,1.263,1.2727,1.3413,1.4313,1.4906,1.6758,1.8821,1.9642,2.1012,2.2297,2.2512,2.2665,2.2726,2.2604,2.2482,2.2086,2.0866,2.0558,1.9995,1.8177,1.8086,1.8207,1.775,1.8034,1.8441,1.8706,1.8491,1.8139,1.7678,1.7207,1.6758,1.6381,1.5902,1.5253,1.4296,1.4072,1.3854,1.3444,1.3249,1.3412,1.401,1.3928,1.4053,1.4354,1.4795,1.5256,1.5699,1.6561,1.7711,1.9026,1.9773,2.0463,0.6118,0.6627,0.6991,0.7232,0.7262,0.721,0.7127,0.6955,0.6824,0.675,0.6688,0.6436,0.5747,0.5665,0.5157,0.3507,0.3033,0.2412,0.1084,0.0402,0.0,0.0,-0.0507,-0.0765,0.0,0.0,0.0,-0.2941,-0.2423,-0.2219,-0.2547,-0.1913,-0.1785,-0.2297,-0.208,-0.2146,-0.2452,-0.2313,-0.2504,-0.2961,-0.3685,-0.4134,-0.4295,-0.4253,-0.3646,-0.2598,-0.0777,0.1475,0.3973,0.6168,0.8324,1.0319,1.1477,1.2218,1.264,1.2703,1.292,1.3109,1.2476,1.2552,1.2969,1.3202,1.3703,1.4355,1.506,1.6728,1.8582,1.9359,2.068,2.1987,2.2297,2.2305,2.2189,2.2068,2.1922,2.1439,2.0087,1.9898,1.9526,1.7996,1.7975,1.8166,1.7925,1.836,1.8786,1.8919,1.8759,1.841,1.7788,1.7346,1.6899,1.6475,1.5874,1.5254,1.46,1.4383,1.4232,1.4122,1.4162,1.4561,1.5215,1.5177,1.5342,1.5799,1.6135,1.6539,1.6987,1.7527,1.8483,1.9712,1.9978,2.0426,0.6288,0.6858,0.7347,0.7807,0.7774,0.7616,0.7366,0.7182,0.6986,0.6669,0.6642,0.6486,0.0,0.0,0.5436,0.3783,0.3251,0.2548,0.1125,0.0603,0.0295,0.0,0.0,0.0,0.0,0.0,0.0,-0.1187,0.0,-0.126,-0.1305,-0.1261,-0.1522,-0.2046,-0.2042,-0.2164,-0.2564,-0.2346,-0.2374,-0.2692,-0.3267,-0.3776,-0.4295,-0.4646,-0.3988,-0.2514,-0.135,0.0758,0.3511,0.6008,0.8306,1.0346,1.1737,1.2915,1.3795,1.3676,1.3716,1.372,1.2869,1.2981,1.3518,1.3628,1.3952,1.4407,1.4938,1.6534,1.8342,1.9094,2.0565,2.1956,2.2266,2.191,2.1434,2.1434,2.0837,2.0105,1.9342,1.9084,1.8725,1.7918,1.7833,1.7943,1.7993,1.8592,1.9076,1.9235,1.9105,1.8815,1.8201,1.7595,1.7151,1.7039,1.6239,1.5618,1.5358,1.5148,1.4993,1.4874,1.5138,1.5634,1.6427,1.6285,1.6594,1.7365,1.7466,1.8002,1.8967,1.8755,1.9318,2.0504,2.011,2.0194,0.6173,0.693,0.7589,0.7714,0.7707,0.7635,0.7448,0.7074,0.6765,0.6701,0.6353,0.6042,0.0,0.0,0.0,0.39,0.3051,0.0,0.1184,0.0494,0.0,0.0,0.0,-0.0048,-0.0143,-0.0144,0.0,0.0,-0.0617,-0.0962,-0.1333,-0.1023,-0.1068,-0.1557,-0.1844,-0.2054,-0.2168,-0.2241,-0.233,-0.2482,-0.3392,-0.3991,-0.4295,-0.486,-0.4585,-0.3601,-0.1963,0.0199,0.2685,0.52,0.7774,1.0346,1.1737,1.2915,1.3831,1.4007,1.409,1.4114,1.3794,1.3596,1.3583,1.4217,1.438,1.4544,1.5938,1.7233,1.8372,1.9129,2.0509,2.1761,2.1855,2.183,2.1773,2.1773,2.1616,2.1287,2.0593,2.0106,1.9541,1.8612,1.8351,1.8493,1.9201,1.9511,1.974,1.9929,1.956,1.9131,1.8679,1.8002,1.7451,1.7179,1.6361,1.5858,1.5901,1.563,1.5602,1.5977,1.6359,1.677,1.7248,1.746,1.7938,1.869,1.8879,1.9245,1.9868,1.9814,2.0143,2.0802,2.0561,2.048,0.6428,0.7048,0.7578,0.7644,0.7771,0.7674,0.7367,0.6947,0.6641,0.6629,0.6194,0.0,0.0,0.0,0.0,0.0,0.0,0.0,0.1181,0.0729,0.0394,0.0,0.0298,0.0,0.0343,0.0343,0.0341,0.0,0.0046,-0.0274,-0.0583,-0.0362,-0.0453,-0.0942,-0.1248,-0.15,-0.1675,-0.1894,-0.2076,-0.227,-0.3274,-0.3913,-0.434,-0.4985,-0.4835,-0.4018,0.0,-0.0395,0.2257,0.4544,0.7423,1.0447,1.1761,1.3171,1.4422,1.4587,1.4645,1.4706,1.498,1.4782,1.4452,1.466,1.4617,1.4718,1.6209,1.736,1.8333,1.9269,2.0591,2.1698,2.1698,2.1572,2.1445,2.1407,2.115,2.0831,2.0527,1.9913,1.9241,1.8599,1.8538,1.8902,1.979,2.0008,2.0185,2.0493,2.0248,1.9943,1.9779,1.8848,1.8148,1.7873,1.7159,1.6797,1.6982,1.6535,1.6485,1.7005,1.756,1.8075,1.8549,1.8785,1.9233,1.9988,1.9918,2.0194,2.0865,2.0912,2.1131,2.1583,2.1403,2.1312,0.665,0.7108,0.7368,0.7638,0.7755,0.7742,0.7238,0.6833,0.6551,0.649,0.0,0.5631,0.5415,0.5545,0.5174,0.3587,0.0,0.2829,0.1307,0.1091,0.093,0.0552,0.0656,0.0808,0.0808,0.0796,0.0787,0.0785,0.064,0.048,0.0452,0.0458,0.0183,-0.0356,-0.0515,-0.0783,-0.1219,-0.1414,-0.1689,-0.2018,-0.3025,-0.3778,-0.4319,-0.5044,-0.4939,-0.408,-0.2912,0.0,0.1987,0.4192,0.7217,1.0611,1.1835,1.3462,1.5169,1.5204,1.5155,1.5183,1.5972,1.5979,1.5524,1.5117,1.4922,1.5068,1.6147,1.721,1.8287,1.9416,2.0637,2.1667,2.1635,2.1315,2.0963,2.081,2.0356,1.9973,2.0122,1.9441,1.8699,1.8467,1.8732,1.9231,2.0046,2.0241,2.0456,2.0941,2.0864,2.0787,2.0929,1.9866,1.904,1.8839,1.8265,1.8018,1.8299,1.7725,1.7566,1.8068,1.8768,1.9329,1.9747,1.9925,2.035,2.1055,2.0776,2.1042,2.1892,2.1945,2.219,2.2604,2.2392,2.2246,0.596,0.6643,0.7206,0.7533,0.7636,0.761,0.7381,0.6872,0.0,0.0,0.0,0.5169,0.5292,0.5163,0.0,0.4136,0.0,0.0,0.0,0.0,0.0931,0.0,0.0,0.0,0.0,0.0,0.0,0.0,0.0,0.098,0.0738,0.0739,0.0406,-0.0299,-0.0338,-0.0453,-0.0707,-0.0904,-0.1207,-0.1554,-0.2857,-0.3702,-0.4181,-0.5009,-0.5064,-0.4439,-0.2732,0.0,0.1554,0.4346,0.7491,1.0611,1.1835,1.3404,1.4971,1.5133,1.5086,1.502,1.5791,1.5868,1.5612,1.575,1.5751,1.5869,1.6715,1.7388,1.8144,1.949,2.0632,2.1431,2.1328,2.1416,2.1526,2.1323,2.1191,2.1144,2.1354,2.0833,2.0159,1.9549,1.9523,1.9763,2.0416,2.0403,2.0463,2.0997,2.0699,2.0442,2.0586,2.0342,1.9982,1.9575,1.9171,1.892,1.8938,1.8833,1.8832,1.9049,1.964,1.9864,1.9629,2.0247,2.0776,2.1318,2.1623,2.2176,2.2871,2.2927,2.2998,2.308,2.2879,2.2574,0.6241,0.6702,0.6919,0.765,0.7744,0.7658,0.7405,0.0,0.0,0.0,0.0,0.504,0.5173,0.0,0.0,0.0,0.0,0.0,0.0,0.0,0.0,0.0,0.0,0.0,0.0,0.0,0.0,0.0,0.0,0.1576,0.0974,0.0962,0.0712,0.0253,0.0126,0.0,-0.0118,-0.055,-0.0959,-0.1362,-0.2723,-0.3631,-0.4091,-0.4974,-0.5095,-0.4501,-0.2964,0.0,0.1399,0.4149,0.7331,1.0648,1.2044,1.3535,1.4935,1.5363,1.5257,1.5088,1.6294,1.6392,1.6041,1.6613,1.6426,1.618,1.7219,1.7702,1.8206,1.9609,2.0539,2.1178,2.1273,2.14,2.158,2.162,2.1776,2.1768,2.1284,2.1113,2.0772,1.987,1.9963,2.0392,2.1079,2.1257,2.1539,2.2234,2.2131,2.2059,2.2283,2.2283,2.1786,2.0557,2.038,2.0309,2.0147,1.9931,1.985,1.9909,2.0317,2.0549,2.0528,2.1127,2.1724,2.2273,2.2566,2.294,2.3448,2.3633,2.37,2.3721,2.3618,2.3385,0.6398,0.672,0.6781,0.7773,0.791,0.7769,0.7434,0.6823,0.0,0.0,0.5488,0.495,0.5004,0.0,0.0,0.0,0.0,0.0,0.0,0.0,0.0,0.0,0.0,0.0,0.0,0.0,0.0,0.0,0.0,0.0,0.1307,0.1182,0.1014,0.0807,0.0717,0.0578,0.0435,-0.0079,-0.064,-0.1227,-0.2657,-0.3557,-0.4055,-0.4892,-0.4992,-0.438,-0.3026,0.0,0.0,0.4071,0.7217,1.0562,1.2251,1.3753,1.5043,1.5593,1.5446,1.5188,1.6751,1.6856,1.6457,1.7337,1.7031,1.6466,1.7331,1.7667,1.8048,1.9426,2.019,2.0692,2.1187,2.1336,2.1431,2.1769,2.208,2.2053,2.1249,2.1401,2.1414,2.052,2.0732,2.1247,2.1797,2.2088,2.2492,2.3256,2.3394,2.3528,2.386,2.3893,2.3345,2.1875,2.1744,2.1711,2.1429,2.1054,2.0833,2.085,2.1028,2.1312,2.1627,2.2172,2.2764,2.3332,2.3482,2.3694,2.3996,2.428,2.443,2.4388,2.4406,2.4272,0.5685,0.6496,0.7094,0.7818,0.8006,0.7905,0.7547,0.0,0.0,0.5998,0.5293,0.4731,0.4748,0.4732,0.0,0.0,0.0,0.0,0.0,0.0,0.0,0.0,0.0,0.0,0.0,0.0,0.0,0.0,0.0,0.0,0.1857,0.1375,0.111,0.1042,0.1361,0.1329,0.0933,0.0648,0.0041,-0.088,-0.2595,-0.3641,-0.4101,-0.4688,-0.4596,-0.3895,-0.2341,0.0,0.0,0.4428,0.7369,1.0315,1.2178,1.381,1.5204,1.5647,1.5514,1.5254,1.6513,1.666,1.6486,1.7671,1.7523,1.6908,1.6759,1.6819,1.7194,1.8459,1.921,1.9824,2.0715,2.1083,2.1296,2.1635,2.1831,2.1994,2.2194,2.2416,2.255,2.2438,2.2468,2.2513,2.2593,2.2457,2.2514,2.299,2.3058,2.3159,2.3494,2.3561,2.3589,2.3708,2.3318,2.2879,2.2497,2.2099,2.188,2.1954,2.1992,2.2121,2.2377,2.3012,2.3604,2.4101,2.4473,2.4669,2.471,2.4997,2.5105,2.5105,2.5105,2.4999,0.5528,0.6358,0.6945,0.7795,0.7811,0.7566,0.7373,0.0,0.6349,0.6117,0.5381,0.4806,0.4975,0.4637,0.4293,0.0,0.4019,0.3744,0.0,0.0,0.0,0.0,0.0,0.0,0.0,0.0,0.0,0.0,0.0,0.0,0.2623,0.195,0.1486,0.1305,0.1507,0.1487,0.1164,0.0705,0.0083,-0.0756,-0.2225,-0.3144,-0.3582,-0.4233,-0.4119,-0.3338,-0.2035,0.0,0.0,0.4622,0.7491,1.0315,1.2384,1.4011,1.5275,1.5788,1.5582,1.512,1.6037,1.6056,1.5821,1.7043,1.7119,1.6813,1.7173,1.7122,1.713,1.7802,1.8575,1.9368,2.0017,2.1305,2.2337,2.2083,2.2962,2.3709,2.3175,2.3455,2.3717,2.3293,2.3095,2.3108,2.3382,2.3438,2.3738,2.4517,2.4829,2.5083,2.5337,2.5589,2.5708,2.5744,2.4884,2.4061,2.3314,2.3355,2.3144,2.2499,2.2611,2.2801,2.3094,2.3735,2.4273,2.4535,2.4886,2.5038,2.5038,2.5147,2.5359,2.5611,2.5443,2.5401,0.5259,0.6219,0.6935,0.7806,0.7827,0.7617,0.0,0.0,0.6435,0.6249,0.5506,0.495,0.5166,0.4677,0.4237,0.4192,0.4035,0.3758,0.3274,0.0,0.0,0.0,0.0,0.0,0.0,0.0,0.0,0.0,0.0,0.0,0.3102,0.24,0.1833,0.1406,0.1656,0.164,0.1318,0.0891,0.0254,-0.0636,-0.1824,-0.2734,-0.3271,-0.3778,-0.3565,-0.2798,-0.1573,0.0,0.0,0.4833,0.754,1.0241,1.2517,1.4263,1.5507,1.5896,1.5647,1.5198,1.5713,1.5607,1.5381,1.6605,1.685,1.6764,1.7336,1.7167,1.6853,1.7144,1.8197,1.939,2.0191,2.1736,2.3079,2.2829,2.385,2.465,2.3988,2.4245,2.4542,2.4053,2.3912,2.398,2.4401,2.4595,2.5015,2.5831,2.6191,2.6496,2.6723,2.7024,2.7186,2.7186,2.6492,2.566,2.4671,2.4654,2.4342,2.3452,2.3484,2.3639,2.3898,2.4507,2.4949,2.5196,2.5501,2.5611,2.5611,2.5653,2.5863,2.6196,2.6071,2.6071,0.4716,0.6093,0.7235,0.7838,0.8148,0.8163,0.0,0.7145,0.6612,0.6257,0.5612,0.5113,0.5182,0.488,0.4597,0.4585,0.3982,0.3598,0.3854,0.0,0.0,0.0,0.0,0.0,0.0,0.0,0.0,0.0,0.0,0.0,0.315,0.2573,0.2013,0.1437,0.1801,0.1825,0.1389,0.1346,0.0738,-0.0434,-0.1474,-0.2514,-0.3379,-0.3275,-0.2876,0.0,0.0,0.0,0.0,0.5039,0.75,1.0054,1.2481,1.4514,1.6053,1.5873,1.5749,1.5698,1.5698,1.5489,1.54,1.6625,1.69,1.6807,1.6976,1.6609,1.6177,1.6506,1.8086,2.0035,2.1564,2.2515,2.3176,2.3888,2.4222,2.4378,2.4541,2.4706,2.4837,2.5065,2.5301,2.5543,2.5751,2.5916,2.613,2.6534,2.6572,2.6723,2.7136,2.7211,2.7335,2.7742,2.8088,2.7808,2.6747,2.5877,2.5322,2.5111,2.4697,2.4611,2.4878,2.529,2.5717,2.6199,2.6426,2.6592,2.6592,2.6779,2.6903,2.688,2.7103,2.7085,0.3618,0.4819,0.5881,0.6255,0.6685,0.6983,0.6868,0.6558,0.6256,0.6145,0.5484,0.49,0.4929,0.4486,0.418,0.4365,0.408,0.0,0.0,0.0,0.0,0.0,0.0,0.0,0.0,0.0,0.0,0.0,0.0,0.0,0.4237,0.329,0.2352,0.1437,0.1693,0.1733,0.1421,0.1243,0.0622,-0.04,-0.1065,-0.1748,-0.2462,-0.2553,-0.2111,0.0,0.0,0.0,0.0,0.5325,0.778,1.0401,1.2554,1.4514,1.6053,1.5703,1.565,1.5611,1.5052,1.4866,1.502,1.6055,1.6399,1.6524,1.6899,1.6645,1.6411,1.7324,1.8865,2.0555,2.1818,2.32,2.4235,2.4115,2.5153,2.6005,2.5593,2.6223,2.6785,2.6602,2.671,2.6817,2.6709,2.6845,2.7018,2.7175,2.7719,2.8149,2.8305,2.8807,2.9227,2.9341,2.9326,2.8669,2.6959,2.6688,2.6237,2.5423,2.54,2.548,2.5581,2.6005,2.6302,2.649,2.655,2.6674,2.682,2.6862,2.7126,2.7551,2.8075,2.8195,0.0,0.4172,0.5307,0.5693,0.6245,0.6641,0.6478,0.6298,0.6088,0.594,0.5377,0.4906,0.4878,0.4435,0.4057,0.4067,0.3848,0.0,0.0,0.0,0.0,0.0,0.0,0.0,0.0,0.0,0.0,0.0,0.0,0.0,0.4901,0.3828,0.2792,0.1751,0.166,0.157,0.1391,0.1211,0.0628,-0.0269,-0.0717,-0.1315,-0.2018,-0.1976,-0.1586,0.0,0.0,0.0,0.0,0.5629,0.8022,1.0525,1.2517,1.4406,1.5983,1.5771,1.5716,1.5625,1.5096,1.4818,1.4854,1.5845,1.6438,1.68,1.7113,1.6948,1.6963,1.8312,1.9547,2.0889,2.2657,2.4016,2.4978,2.5163,2.6161,2.7052,2.6797,2.7338,2.782,2.7498,2.7631,2.7726,2.7478,2.7717,2.7996,2.8068,2.8712,2.9184,2.9223,2.9831,3.0216,3.0318,3.0088,2.9363,2.7957,2.7723,2.7284,2.6484,2.6444,2.6418,2.6381,2.6899,2.7144,2.7144,2.7429,2.7592,2.7713,2.7736,2.7995,2.853,2.887,2.8988,0.0,0.0,0.0,0.0,0.6442,0.6838,0.6415,0.6219,0.0,0.565,0.5293,0.503,0.4939,0.456,0.4142,0.3756,0.3398,0.0,0.0,0.0,0.0,0.0,0.0,0.0,0.0,0.0,0.0,0.0,0.0,0.0,0.5176,0.4235,0.3289,0.2289,0.1703,0.1387,0.1387,0.1163,0.0716,0.0,-0.0447,-0.1139,-0.1934,-0.1557,-0.1179,0.0,0.0,0.0,0.0,0.5981,0.8225,1.0424,1.2384,1.4212,1.5825,1.6009,1.5948,1.5689,1.5626,1.5211,1.4883,1.598,1.6835,1.7512,1.7571,1.748,1.7743,1.9364,2.0281,2.1345,2.3966,2.4891,2.5473,2.6799,2.7237,2.754,2.8069,2.8195,2.8172,2.7964,2.8201,2.8382,2.8177,2.8553,2.8949,2.9131,2.9535,2.9845,3.0088,3.033,3.0584,3.0788,3.0458,2.996,2.9447,2.887,2.8363,2.7962,2.7696,2.747,2.7307,2.7851,2.8131,2.8171,2.8806,2.9121,2.9121,2.9145,2.938,2.9742,2.9574,2.9613,0.2658,0.0,0.3889,0.4124,0.4799,0.544,0.0,0.5447,0.5355,0.5304,0.0,0.0,0.4333,0.4087,0.3857,0.3643,0.0,0.0,0.0,0.0,0.0,0.0,0.0,0.0,0.0,0.0,0.0,0.0,0.0,0.6538,0.5768,0.474,0.3737,0.278,0.1853,0.1314,0.1184,0.0921,0.0526,0.0,-0.0307,-0.0734,-0.1222,-0.1157,-0.0641,0.0,0.0,0.0,0.443,0.6344,0.8526,1.0834,1.2618,1.4458,1.6053,1.6077,1.6032,1.5867,1.5582,1.5211,1.5079,1.6009,1.6835,1.7595,1.8111,1.8386,1.8772,1.9808,2.1628,2.3555,2.4869,2.6257,2.7487,2.7954,2.8221,2.8451,2.8723,2.9119,2.9354,2.9133,2.9554,2.9758,2.9374,2.9576,2.9793,2.9767,3.0177,3.0675,3.1318,3.1461,3.1681,3.202,3.1423,3.0603,2.9578,2.9015,2.8578,2.8139,2.8059,2.8099,2.8179,2.8474,2.8712,2.8846,2.916,2.9341,2.9341,2.9677,3.0037,3.0393,3.0381,3.071,0.2921,0.3818,0.4608,0.4869,0.5625,0.6278,0.6162,0.0,0.0,0.0,0.0,0.0,0.0,0.0,0.0,0.0,0.0,0.0,0.0,0.0,0.0,0.0,0.0,0.0,0.0,0.0,0.0,0.0,0.0,0.701,0.6322,0.543,0.4408,0.3225,0.2141,0.1477,0.1261,0.0775,0.0388,0.0,-0.0348,-0.0689,-0.1011,-0.0905,-0.047,0.0,0.0,0.0,0.4481,0.6601,0.8684,1.0697,1.2595,1.4279,1.5754,1.6171,1.6245,1.6064,1.5914,1.5696,1.5604,1.6239,1.6835,1.7422,1.832,1.8985,1.9655,2.0896,2.2874,2.486,2.6045,2.7372,2.855,2.9252,2.9567,2.9857,3.0314,3.0738,3.0867,3.0495,3.0701,3.0727,3.0126,3.0458,3.0791,3.0868,3.1562,3.2167,3.2384,3.2519,3.2515,3.2384,3.1589,3.0755,2.9965,2.9374,2.8887,2.8402,2.8787,2.9028,2.9028,2.9457,2.9767,2.996,3.0075,3.0114,3.0114,3.0292,3.0596,3.1071,3.106,3.1357,0.3513,0.4903,0.6201,0.631,0.7148,0.7788,0.7201,0.0,0.0,0.0,0.0,0.0,0.0,0.0,0.0,0.0,0.0,0.0,0.0,0.0,0.0,0.0,0.0,0.0,0.0,0.0,0.0,0.0,0.0,0.729,0.6748,0.6093,0.5049,0.3606,0.2425,0.1683,0.1504,0.0719,0.0212,0.0,-0.0476,-0.0771,-0.0922,-0.0818,-0.0425,0.0203,0.0,0.0,0.4397,0.6786,0.8751,1.0447,1.2375,1.3991,1.533,1.6227,1.6407,1.6211,1.628,1.6167,1.6132,1.6495,1.685,1.7377,1.8531,1.9616,2.0765,2.2493,2.416,2.5817,2.7286,2.8373,2.9361,3.0482,3.0867,3.1218,3.1997,3.23,3.2265,3.1811,3.1747,3.1552,3.097,3.1422,3.1928,3.2198,3.3043,3.3533,3.338,3.3385,3.3157,3.2527,3.1631,3.0887,3.0387,2.9865,2.9298,2.8736,2.9517,2.9974,2.9935,3.0482,3.0887,3.1048,3.1011,3.0973,3.0973,3.0849,3.1086,3.1653,3.1626,3.1846,0.4732,0.6187,0.7141,0.5961,0.6712,0.7592,0.6981,0.0,0.0,0.0,0.0,0.0,0.0,0.0,0.0,0.0,0.0,0.0,0.0,0.0,0.0,0.0,0.0,0.0,0.0,0.0,0.0,0.0,0.0,0.7283,0.6828,0.6086,0.5137,0.387,0.2517,0.1842,0.1889,0.0696,0.0041,0.0,-0.0461,-0.0669,-0.0655,-0.0855,-0.0382,0.065,0.0,0.3157,0.4844,0.6754,0.8704,1.0611,1.2301,1.397,1.5525,1.6115,1.6285,1.6167,1.5898,1.5849,1.5989,1.6446,1.7177,1.8079,1.9401,2.095,2.2673,2.4601,2.6044,2.7261,2.814,2.9662,3.1004,3.122,3.1311,3.1498,3.2195,3.238,3.2474,3.2725,3.2777,3.279,3.2932,3.3024,3.3233,3.3619,3.3506,3.3622,3.4276,3.3896,3.3599,3.3659,3.2624,3.1564,3.0699,3.035,2.9866,2.9156,2.9676,3.034,3.1022,3.1161,3.1235,3.1235,3.1086,3.0973,3.0973,3.1123,3.1495,3.2019,3.22,3.2561,0.4675,0.5974,0.7038,0.6587,0.7946,0.9286,0.8881,0.0,0.0,0.0,0.0,0.0,0.0,0.0,0.0,0.0,0.0,0.0,0.0,0.0,0.0,0.0,0.0,0.0,0.0,0.0,0.0,0.0,0.0,0.0,0.6618,0.6169,0.5287,0.3887,0.2661,0.1902,0.1636,0.0639,0.0201,0.0326,-0.037,-0.074,-0.0774,-0.1137,-0.0792,0.0239,0.0,0.2773,0.4402,0.6493,0.8438,1.0349,1.2191,1.3882,1.5421,1.6093,1.6294,1.6227,1.59,1.5972,1.621,1.6524,1.7105,1.7983,1.939,2.1209,2.319,2.5265,2.69,2.8227,2.9254,3.0581,3.1772,3.2223,3.2483,3.2708,3.3039,3.3286,3.3494,3.3436,3.3463,3.3542,3.3692,3.3985,3.4356,3.4755,3.4775,3.477,3.492,3.4538,3.4087,3.364,3.2939,3.219,3.1438,3.1249,3.0976,3.0453,3.0477,3.0884,3.1726,3.1596,3.1485,3.1485,3.1373,3.1336,3.1336,3.141,3.1753,3.2273,3.2596,3.2917,0.4809,0.5695,0.6734,0.7324,0.0,1.0428,1.0531,0.9884,0.0,0.0,0.0,0.0,0.0,0.0,0.0,0.0,0.0,0.0,0.0,0.0,0.0,0.0,0.0,0.0,0.0,0.0,0.0,0.0,0.0,0.0,0.639,0.6139,0.5323,0.3829,0.2759,0.1965,0.1455,0.0786,0.0476,0.0525,-0.0325,-0.0771,-0.0929,-0.1445,-0.1184,-0.0236,0.0997,0.2423,0.4025,0.6157,0.8143,1.0024,1.1896,1.3669,1.5256,1.6128,1.6336,1.6188,1.5894,1.5981,1.6265,1.6385,1.6934,1.7828,1.943,2.1426,2.3653,2.5957,2.7767,2.9245,3.041,3.143,3.2382,3.3102,3.3474,3.3649,3.3777,3.4082,3.4267,3.4068,3.4151,3.4326,3.4434,3.4889,3.5386,3.5776,3.5833,3.5761,3.543,3.5011,3.4403,3.3539,3.3082,3.2434,3.16,3.1543,3.1593,3.1612,3.1463,3.1631,3.2191,3.189,3.1706,3.1669,3.1596,3.1596,3.1596,3.1633,3.19,3.2417,3.2917,3.3227,0.5974,0.6192,0.6514,0.7663,0.8645,0.0,1.0414,1.002,0.0,1.0127,0.0,0.0,0.0,0.0,0.0,0.0,0.0,0.0,0.0,0.0,0.0,0.0,0.0,0.0,0.0,0.0,0.0,0.0,0.0,0.0,0.639,0.5921,0.5069,0.3825,0.2799,0.2135,0.1848,0.1178,0.0669,0.0315,-0.0362,-0.0764,-0.0906,-0.1572,-0.1286,-0.0236,0.0862,0.2387,0.4224,0.5886,0.7761,0.9782,1.123,1.3123,1.5118,1.6211,1.6294,1.5882,1.5627,1.5622,1.5759,1.5903,1.6708,1.7973,2.0017,2.2309,2.4755,2.7387,2.9164,3.05,3.1351,3.2361,3.3256,3.3798,3.3707,3.3645,3.4085,3.4153,3.423,3.4594,3.5006,3.5454,3.5869,3.6136,3.6441,3.6844,3.608,3.5577,3.592,3.5068,3.4259,3.3914,3.3045,3.1951,3.0465,3.0319,3.0802,3.1903,3.2498,3.264,3.2218,3.2182,3.2073,3.189,3.1706,3.1596,3.1596,3.178,3.2046,3.2417,3.3199,3.3577,0.5183,0.6141,0.7137,0.723,0.8616,0.0,0.0,1.0743,1.0625,1.091,1.0484,0.0,0.0,0.0,0.0,0.0,0.0,0.0,0.0,0.0,0.0,0.0,0.0,0.0,0.0,0.0,0.0,0.0,0.0,0.0,0.5403,0.5264,0.4648,0.3542,0.261,0.193,0.1533,0.11,0.0707,0.0275,-0.0357,-0.0832,-0.1178,-0.1941,-0.1781,-0.0864,0.0078,0.1641,0.3589,0.5143,0.7199,0.9696,1.2435,1.4122,1.5112,1.6128,1.6274,1.5928,1.5391,1.5718,1.6329,1.6,1.6908,1.8516,2.0442,2.2628,2.5068,2.7741,2.9512,3.0929,3.2059,3.2772,3.3334,3.3875,3.3986,3.396,3.4029,3.4178,3.4272,3.4314,3.5018,3.571,3.6151,3.6626,3.7046,3.7327,3.6465,3.5861,3.6082,3.5113,3.4245,3.3946,3.3252,3.2593,3.2003,3.1365,3.1714,3.3392,3.2787,3.2517,3.2874,3.2552,3.23,3.2109,3.2082,3.2046,3.1963,3.2119,3.23,3.2489,3.3129,3.3681,0.55,0.653,0.773,0.7692,0.0,0.0,1.1278,1.1284,1.1248,1.1594,1.098,0.0,0.0,0.0,0.0,0.0,0.0,0.0,0.0,0.0,0.0,0.0,0.0,0.0,0.0,0.0,0.0,0.0,0.0,0.0,0.0,0.4732,0.4314,0.3413,0.254,0.1836,0.1415,0.1139,0.0786,0.0275,-0.0236,-0.0825,-0.1414,-0.2157,-0.2081,-0.1257,-0.0392,0.1095,0.3041,0.4525,0.6917,0.9914,1.3085,1.4519,1.495,1.6,1.6274,1.6014,1.5419,1.5794,1.6483,1.6291,1.7076,1.8542,2.0697,2.2937,2.5299,2.8053,2.9958,3.1522,3.2901,3.3231,3.3334,3.3966,3.4165,3.4135,3.3941,3.4178,3.4356,3.4173,3.5018,3.5911,3.6215,3.6911,3.7471,3.7663,3.6839,3.6244,3.6523,3.5404,3.4355,3.3781,3.3583,3.3212,3.2582,3.1901,3.208,3.3416,3.2431,3.2371,3.3589,3.3086,3.266,3.2408,3.2453,3.2453,3.2336,3.2453,3.2561,3.2668,3.3136,3.3687,0.7374,0.7553,0.8095,0.0,0.0,0.0,1.1881,1.1618,1.1277,1.2183,0.0,0.0,0.0,0.0,0.0,0.0,0.0,0.0,0.0,0.0,0.0,0.0,0.0,0.0,0.0,0.0,0.0,0.0,0.0,0.0,0.0,0.4435,0.4097,0.3612,0.2698,0.2,0.1612,0.1414,0.0943,0.0275,-0.0118,-0.0746,-0.1612,-0.2238,-0.2042,-0.1257,-0.0392,0.0939,0.2616,0.4185,0.6987,1.0527,1.2797,1.3998,1.4641,1.5936,1.6274,1.6042,1.578,1.5779,1.6006,1.6686,1.7098,1.7871,2.0824,2.3235,2.5589,2.8491,3.0637,3.2429,3.3835,3.3695,3.3379,3.4123,3.4229,3.4135,3.3941,3.4178,3.4356,3.4105,3.5141,3.6071,3.6255,3.7028,3.7663,3.7853,3.7106,3.6707,3.7214,3.5893,3.4531,3.3481,3.409,3.3719,3.1718,3.154,3.154,3.154,3.154,3.2404,3.4346,3.3681,3.3157,3.2917,3.2775,3.2704,3.2704,3.2704,3.281,3.3023,3.3416,3.3652,0.7262,0.7956,0.0,0.0,0.0,0.0,0.0,1.1901,0.0,0.0,0.0,0.0,0.0,0.0,0.0,0.0,0.0,0.0,0.0,0.0,0.0,0.0,0.0,0.0,0.0,0.0,0.0,0.0,0.0,0.0,0.0,0.4358,0.4348,0.3955,0.3067,0.2353,0.1804,0.1453,0.0825,-0.0118,-0.0393,-0.0904,-0.1612,-0.1924,-0.1885,-0.1453,-0.0589,0.0744,0.2496,0.5312,0.796,1.0431,1.2309,1.3573,1.4427,1.5712,1.6049,1.5776,1.5502,1.5905,1.6567,1.6634,1.7738,1.935,2.1275,2.3641,2.6274,2.896,3.0612,3.1975,3.3691,3.3854,3.372,3.441,3.4496,3.4354,3.4135,3.4264,3.4293,3.3751,3.505,3.6144,3.5964,3.7092,3.8052,3.8089,3.7395,3.6476,3.5398,3.4855,3.408,3.2844,3.4603,3.5676,3.5064,3.5003,3.482,3.4354,3.4322,3.4586,3.5166,3.4496,3.3785,3.3192,3.3122,3.298,3.2704,3.2846,3.3023,3.3234,3.3542,3.3957,0.8675,0.9469,0.0,0.0,0.0,0.0,0.0,0.0,0.0,0.0,0.0,0.0,0.0,0.0,0.0,0.0,0.0,0.0,0.0,0.0,0.0,0.0,0.0,0.0,0.0,0.0,0.0,0.0,0.0,0.0,0.0,0.4519,0.4683,0.4462,0.3526,0.2823,0.239,0.1726,0.0943,0.0039,-0.0314,-0.0786,-0.1335,-0.173,-0.1651,-0.1139,0.0039,0.1403,0.2927,0.5689,0.8032,1.0071,1.181,1.3089,1.4148,1.5241,1.559,1.5507,1.5515,1.6012,1.6735,1.7197,1.8367,2.0042,2.2139,2.439,2.6846,2.9643,3.1224,3.2412,3.4069,3.4439,3.4344,3.431,3.4382,3.4332,3.3913,3.4027,3.4024,3.3406,3.4631,3.5742,3.5802,3.6948,3.7936,3.8144,3.7796,3.683,3.5062,3.5067,3.4505,3.2606,3.4845,3.6507,3.6507,3.6507,3.6351,3.5908,3.5651,3.5519,3.5519,3.4798,3.4162,3.3779,3.357,3.3361,3.3122,3.3262,3.3437,3.3542,3.3819,3.4225,1.0761,0.0,0.0,0.0,0.0,0.0,0.0,0.0,0.0,0.0,0.0,0.0,0.0,0.0,0.0,0.0,0.0,0.0,0.0,0.0,0.0,0.0,0.0,0.0,0.0,0.0,0.0,0.0,0.0,0.0,0.0,0.4935,0.5129,0.5157,0.4107,0.3405,0.3171,0.2118,0.1257,0.055,-0.0039,-0.0511,-0.0904,-0.1532,-0.1335,-0.0471,0.1137,0.2477,0.3604,0.5396,0.7371,0.9488,1.1219,1.2608,1.3719,1.4596,1.5037,1.5264,1.57,1.6124,1.6634,1.8042,1.9026,2.0195,2.3128,2.5287,2.731,3.0369,3.2072,3.3291,3.4713,3.5237,3.5141,3.4063,3.4095,3.4188,3.3379,3.3535,3.37,3.3146,3.3946,3.4926,3.5457,3.6536,3.7551,3.8123,3.8036,3.7373,3.5789,3.6131,3.543,3.269,3.4845,3.6507,3.6507,3.6322,3.623,3.623,3.5639,3.5379,3.5489,3.4831,3.4433,3.4399,3.402,3.3779,3.3744,3.3848,3.3917,3.3985,3.4293,3.4428,0.0,1.0204,0.0,0.0,0.0,0.0,0.0,0.0,0.0,0.0,0.0,0.0,0.0,0.0,0.0,0.0,0.0,0.0,0.0,0.0,0.0,0.0,0.0,0.0,0.0,0.0,0.0,0.0,0.0,0.0,0.5556,0.5962,0.6291,0.6479,0.5162,0.419,0.3636,0.2272,0.1177,0.0,-0.0079,-0.0432,-0.0668,-0.0982,-0.0746,-0.0079,0.098,0.2109,0.3298,0.4844,0.6813,0.9003,1.0466,1.188,1.3168,1.4131,1.4689,1.5108,1.5497,1.6066,1.6756,1.8064,1.9483,2.1024,2.2901,2.5298,2.784,3.0053,3.1675,3.3093,3.4525,3.5144,3.5263,3.4756,3.455,3.4233,3.3378,3.3513,3.3622,3.3316,3.3446,3.3592,3.3413,3.5951,3.8036,3.8173,3.6981,3.6118,3.6255,3.6413,3.543,3.269,3.4845,3.6507,3.6507,3.4974,3.4003,3.4003,3.3865,3.4289,3.5462,3.5034,3.4668,3.4399,3.4568,3.4501,3.4259,3.4059,3.4162,3.453,3.4462,3.4631,0.0,0.0,0.0,0.0,0.0,0.0,0.0,0.0,0.0,0.0,0.0,0.0,0.0,0.0,0.0,0.0,0.0,0.0,0.0,0.0,0.0,0.0,0.0,0.0,0.0,0.0,0.0,0.0,0.0,0.6122,0.6677,0.7058,0.7351,0.7524,0.6165,0.5079,0.438,0.282,0.1648,0.0903,0.0196,-0.0196,-0.0314,-0.0236,0.0,0.0354,0.1293,0.239,0.3522,0.4586,0.6419,0.8656,0.9798,1.1131,1.2584,1.3441,1.4015,1.4489,1.5245,1.5989,1.6858,1.8355,1.9966,2.1697,2.3618,2.5718,2.7932,3.0262,3.1644,3.2764,3.419,3.4944,3.5177,3.4482,3.4606,3.4567,3.3503,3.337,3.3356,3.289,3.2767,3.2813,3.2957,3.5874,3.7907,3.704,3.639,3.6131,3.6476,3.6507,3.5339,3.2296,3.3502,3.4654,3.4945,3.394,3.3203,3.2904,3.2877,3.3957,3.6353,3.5621,3.5129,3.4931,3.5096,3.5096,3.4931,3.4601,3.4467,3.4563,3.4698,3.4728,0.0,0.0,0.0,0.0,0.0,0.0,0.0,0.0,0.0,0.0,0.0,0.0,0.0,0.0,0.0,0.0,0.0,0.0,0.0,0.0,0.0,0.0,0.0,0.0,0.0,0.0,0.0,0.0,0.0,0.7133,0.7877,0.8188,0.8378,0.8414,0.7056,0.5931,0.5118,0.3366,0.2196,0.1646,0.0589,0.0118,0.0118,0.055,0.0668,0.0668,0.1648,0.2666,0.3643,0.438,0.6073,0.8248,0.919,1.0467,1.189,1.2731,1.3316,1.3876,1.4979,1.5957,1.6931,1.8709,2.0363,2.2105,2.4441,2.6136,2.7809,3.0444,3.1629,3.2426,3.383,3.4672,3.4979,3.4207,3.4721,3.4929,3.3444,3.3111,3.297,3.2482,3.2508,3.2803,3.3548,3.5927,3.7269,3.5884,3.6257,3.6631,3.6507,3.6507,3.5309,3.2155,3.2274,3.2769,3.3256,3.3203,3.2931,3.241,3.2382,3.3926,3.7354,3.6414,3.5844,3.5844,3.5619,3.5519,3.5519,3.5195,3.4868,3.4631,3.482,3.4669,0.0,0.0,0.0,0.0,0.0,0.0,0.0,0.0,0.0,0.0,0.0,0.0,0.0,0.0,0.0,0.0,0.0,0.0,0.0,0.0,0.0,0.0,0.0,0.0,0.0,0.0,0.0,0.0,0.7325,0.8144,0.9095,0.9321,0.9365,0.9222,0.7592,0.6349,0.5544,0.3522,0.2275,0.1842,0.0942,0.0511,0.055,0.0982,0.0982,0.0629,0.1375,0.2042,0.2784,0.4146,0.5654,0.7242,0.877,1.0018,1.1089,1.2073,1.298,1.3852,1.4959,1.5983,1.717,1.9035,2.0488,2.1957,2.4268,2.5927,2.7558,3.0092,3.1297,3.2189,3.3735,3.4371,3.4744,3.5286,3.5547,3.5033,3.2813,3.2353,3.2518,3.3071,3.3646,3.4332,3.5096,3.5558,3.6007,3.6319,3.6969,3.7181,3.6569,3.6507,3.5641,3.3298,3.3118,3.3229,3.3309,3.2823,3.2496,3.241,3.2382,3.3926,3.7354,3.7331,3.7241,3.7241,3.6099,3.5519,3.5519,3.5424,3.5392,3.5359,3.4586,3.4446,0.7154,0.0,0.0,0.0,0.0,0.0,0.0,0.0,0.0,0.0,0.0,0.0,0.0,0.0,0.0,0.0,0.0,0.0,0.0,0.0,0.0,0.0,0.0,0.0,0.0,0.0,0.0,0.0,0.7746,0.8628,0.9857,0.9938,0.9865,0.9734,0.8103,0.6696,0.5622,0.3873,0.251,0.1569,0.1021,0.0786,0.0786,0.1139,0.1178,0.1021,0.1767,0.2392,0.2937,0.4185,0.5583,0.7019,0.8161,0.9466,1.0717,1.1343,1.2283,1.3431,1.4626,1.5656,1.6818,1.8955,2.0583,2.206,2.424,2.5793,2.7281,2.9389,3.0521,3.1411,3.2925,3.3576,3.3926,3.427,3.4371,3.3817,3.1752,3.2109,3.3016,3.375,3.4162,3.4601,3.5359,3.5812,3.6162,3.6476,3.6723,3.6408,3.4906,3.4719,3.4363,3.3409,3.3309,3.3309,3.3309,3.2742,3.2382,3.2382,3.2382,3.3926,3.7354,3.751,3.751,3.751,3.6538,3.5876,3.5519,3.5876,3.5276,3.3787,3.394,3.3879,0.0,0.0,0.0,0.0,0.0,0.0,0.0,0.0,0.0,0.0,0.0,0.0,0.0,0.0,0.0,0.0,0.0,0.0,0.0,0.0,0.0,0.0,0.0,0.0,0.0,0.0,0.0,0.0,0.8253,0.9058,1.0171,1.0253,1.0204,0.992,0.8451,0.708,0.5854,0.4146,0.2705,0.1453,0.1178,0.1061,0.11,0.1218,0.1335,0.1414,0.2118,0.2627,0.3054,0.4229,0.5473,0.6742,0.7702,0.8998,1.0323,1.0766,1.1784,1.3082,1.4326,1.5404,1.6555,1.8746,2.0387,2.1855,2.3758,2.5371,2.6874,2.8792,2.9668,3.0444,3.2339,3.2945,3.3043,3.3043,3.3114,3.2726,3.115,3.2083,3.3516,3.4476,3.453,3.4568,3.5129,3.591,3.6507,3.6507,3.6507,3.5702,3.3576,3.3309,3.3256,3.3065,3.3229,3.3309,3.3309,3.2742,3.2382,3.2382,3.2382,3.3926,3.7354,3.751,3.735,3.706,3.6622,3.6199,3.5748,3.6099,3.5125,3.3036,3.3511,3.3381,0.0,0.0,0.0,0.0,0.0,0.0,0.0,0.0,0.0,0.0,0.0,0.0,0.0,0.0,0.0,0.0,0.0,0.0,0.0,0.0,0.0,0.0,0.0,0.0,0.0,0.0,0.0,0.0,0.9028,0.9528,0.9979,1.0383,1.0322,0.9724,0.8653,0.754,0.6465,0.4219,0.2705,0.1848,0.1651,0.1571,0.1571,0.1375,0.1414,0.1612,0.204,0.2353,0.2627,0.4112,0.5201,0.6079,0.754,0.8732,0.9728,1.0522,1.1712,1.3047,1.4196,1.5439,1.6748,1.8489,1.9824,2.1033,2.24,2.4258,2.6395,2.8525,2.8912,2.9395,3.2472,3.2795,3.2255,3.2255,3.2516,3.2526,3.1633,3.2286,3.3522,3.5121,3.4898,3.4399,3.4433,3.5589,3.6507,3.6507,3.6507,3.5702,3.3576,3.3309,3.3065,3.2523,3.2958,3.3309,3.3309,3.2742,3.2382,3.2382,3.2382,3.3926,3.7354,3.751,3.6994,3.5911,3.6045,3.6244,3.6476,3.5844,3.5235,3.4638,3.3815,3.3104,0.0,0.0,0.0,0.0,0.0,0.0,0.0,0.0,0.0,0.0,0.0,0.0,0.0,0.0,0.0,0.0,0.0,0.0,0.0,0.0,0.0,0.0,0.0,0.0,0.0,0.0,0.0,0.0,0.0,0.9369,0.9915,1.0175,1.0133,0.9663,0.8512,0.7003,0.5157,0.364,0.2705,0.2277,0.1963,0.1651,0.1414,0.1612,0.1571,0.1453,0.2118,0.2588,0.2976,0.419,0.524,0.6202,0.7433,0.858,0.9679,1.0299,1.156,1.3011,1.3853,1.4973,1.635,1.8017,1.9671,2.1201,2.208,2.3866,2.597,2.8152,2.9017,2.9859,3.261,3.1942,3.0738,3.1514,3.196,3.2195,3.2166,3.2405,3.2936,3.3737,3.4567,3.4964,3.4467,3.5589,3.6507,3.6507,3.6507,3.5851,3.4052,3.3487,3.3461,3.3968,3.3591,3.3309,3.3309,3.2742,3.2382,3.2382,3.2382,3.3411,3.5739,3.6203,3.6213,3.581,3.623,3.6147,3.5481,3.6137,3.543,3.3455,3.3732,3.3228,0.0,0.0,0.0,0.0,0.0,0.0,0.0,0.0,0.0,0.0,0.0,0.0,0.0,0.0,0.0,0.0,0.0,0.0,0.0,0.0,0.0,0.0,0.0,0.0,0.0,0.0,0.0,0.0,0.0,0.0,0.9756,1.0003,0.9841,0.9311,0.8246,0.6742,0.473,0.38,0.3096,0.2588,0.2277,0.1924,0.161,0.1808,0.1806,0.1649,0.2235,0.2744,0.3171,0.419,0.524,0.6318,0.7318,0.8475,0.9679,1.0151,1.1364,1.2901,1.3534,1.4657,1.607,1.7696,1.9573,2.1296,2.1737,2.3126,2.5132,2.7852,2.9081,2.9919,3.1338,3.069,2.9982,3.1382,3.1846,3.2075,3.2597,3.2608,3.2524,3.2493,3.342,3.4284,3.4718,3.5718,3.6507,3.6507,3.5888,3.508,3.42,3.3949,3.405,3.457,3.4151,3.3694,3.3335,3.2931,3.2633,3.241,3.2382,3.3259,3.5123,3.536,3.5552,3.5778,3.6181,3.5919,3.496,3.6336,3.5689,3.3118,3.3929,3.3547,0.0,0.0,0.0,0.0,0.0,0.0,0.0,0.0,0.0,0.0,0.0,0.0,0.0,0.0,0.0,0.0,0.0,0.0,0.0,0.0,0.0,0.0,0.0,0.0,0.0,0.0,0.0,0.0,0.9122,0.9198,0.9587,0.9803,0.9539,0.8732,0.7931,0.6811,0.5333,0.4724,0.3873,0.2823,0.2627,0.2431,0.2196,0.2003,0.2042,0.2235,0.2431,0.2744,0.321,0.4034,0.5079,0.6279,0.7173,0.836,0.9663,1.0067,1.1217,1.2709,1.3302,1.4494,1.6,1.7476,1.9462,2.1233,2.1242,2.2118,2.3852,2.7514,2.9081,2.946,2.8826,2.9113,3.0066,3.1893,3.2132,3.218,3.2938,3.2832,3.2377,3.1661,3.1511,3.2318,3.4983,3.6038,3.6507,3.6507,3.4657,3.3492,3.4,3.4546,3.4691,3.4151,3.457,3.4448,3.344,3.3335,3.3065,3.2437,3.241,3.3439,3.5676,3.5089,3.5027,3.5746,3.5838,3.5567,3.4987,3.6371,3.5962,3.3942,3.4392,3.4014,0.3714,0.0,0.0,0.0,0.0,0.0,0.0,0.0,0.0,0.0,0.0,0.0,0.0,0.0,0.0,0.0,0.0,0.0,0.0,0.0,0.0,0.0,0.0,0.0,0.0,0.0,0.0,0.0,0.9397,0.9614,0.9992,1.0105,0.9766,0.8931,0.8143,0.7035,0.5592,0.5239,0.4531,0.3514,0.3461,0.3096,0.2431,0.2669,0.263,0.2431,0.2787,0.3256,0.3843,0.4077,0.4813,0.5893,0.7195,0.8494,0.9717,1.0694,1.1811,1.2865,1.3341,1.4269,1.5488,1.7116,1.9243,2.1368,2.2304,2.2823,2.3755,2.6902,2.867,2.9554,2.9397,2.946,2.9729,3.0263,3.1229,3.2191,3.2884,3.3885,3.405,3.1929,3.1511,3.2009,3.3627,3.5333,3.6507,3.6507,3.4657,3.3361,3.3487,3.4325,3.4691,3.4151,3.4226,3.4275,3.4176,3.4,3.3642,3.3091,3.3171,3.3724,3.4648,3.4623,3.4776,3.5203,3.6199,3.5927,3.4341,3.5587,3.5562,3.4374,3.336,3.2693,0.0,0.0,0.0,0.0,0.0,0.0,0.0,0.5848,0.0,0.0,0.0,0.0,0.0,0.0,0.0,0.0,0.0,0.0,0.0,0.0,0.0,0.0,0.0,0.0,0.0,0.9397,0.9359,0.9549,0.9511,0.97,1.018,1.0368,1.0114,0.9379,0.8697,0.7705,0.647,0.5932,0.5196,0.4302,0.4294,0.3878,0.3057,0.3295,0.3139,0.2747,0.2982,0.3335,0.3726,0.4077,0.4929,0.6125,0.7234,0.8533,0.9868,1.0881,1.1821,1.2661,1.3377,1.405,1.4749,1.6088,1.8254,2.0635,2.2242,2.2909,2.3523,2.5532,2.7593,2.9208,2.9208,2.9397,2.976,3.0453,3.1326,3.2274,3.3346,3.4567,3.504,3.3454,3.2668,3.2468,3.3203,3.4526,3.5425,3.5194,3.4105,3.3309,3.3309,3.4226,3.4763,3.4472,3.4226,3.4151,3.4325,3.4201,3.3899,3.3466,3.3519,3.3805,3.4365,3.4245,3.443,3.5045,3.5932,3.5849,3.4818,3.6201,3.6396,3.5427,3.3232,3.233,0.0,0.0,0.0,0.0,0.0,0.0,0.6732,0.6375,0.6056,0.0,0.0,0.0,0.0,0.0,0.0,0.0,0.0,0.0,0.0,0.0,0.0,0.0,0.0,0.0,0.9922,0.9545,0.947,0.9809,0.9583,0.9658,1.0248,1.0683,1.0619,1.0072,0.9411,0.8629,0.7649,0.6863,0.6017,0.5165,0.5177,0.473,0.396,0.396,0.3726,0.3295,0.3295,0.3335,0.3413,0.419,0.5279,0.6518,0.7242,0.8494,1.003,1.0881,1.1621,1.2372,1.3424,1.3858,1.4079,1.47,1.6656,1.9144,2.14,2.2574,2.3351,2.4413,2.6639,2.8697,2.8633,2.9113,2.9992,3.1511,3.1833,3.2364,3.4143,3.486,3.5167,3.5167,3.4133,3.3309,3.3309,3.3694,3.397,3.3879,3.3551,3.3309,3.3309,3.4226,3.4883,3.4883,3.4472,3.4201,3.4226,3.4201,3.405,3.3726,3.3674,3.3904,3.4452,3.404,3.4163,3.504,3.5245,3.564,3.617,3.7481,3.7543,3.6377,3.3681,3.28,0.0,0.0,0.0,0.0,0.0,0.0,0.6255,0.6382,0.6773,0.0,0.0,0.0,0.0,0.0,0.0,0.0,0.0,0.0,0.0,0.0,0.0,0.0,0.0,0.0,0.982,0.9647,0.949,0.9406,0.9929,1.0404,1.0658,1.1218,1.1316,1.0888,1.0103,0.9331,0.8563,0.8161,0.7397,0.6277,0.6242,0.5777,0.5007,0.4851,0.4735,0.4618,0.4618,0.4735,0.489,0.5046,0.5273,0.5693,0.7165,0.8609,1.0045,1.1366,1.2301,1.3057,1.349,1.3987,1.4296,1.3396,1.4629,1.7044,2.0387,2.218,2.3866,2.751,2.8945,2.9303,2.8761,2.9113,2.9829,3.0674,3.0854,3.1676,3.4658,3.406,3.2984,3.2984,3.317,3.3309,3.3309,3.3388,3.4362,3.6989,3.5058,3.3309,3.3309,3.4226,3.4883,3.4883,3.4787,3.4811,3.5058,3.4859,3.4618,3.4325,3.4423,3.4439,3.4345,3.434,3.4439,3.4595,3.4994,3.6233,3.8378,3.6979,3.5695,3.46,3.4218,3.4006,0.0,0.0,0.0,1.1527,0.0,0.0,0.0,0.0,0.7526,0.774,0.0,0.0,0.0,0.0,0.0,0.0,0.0,0.0,0.0,0.0,0.0,0.0,0.0,0.0,0.9357,0.9477,0.9435,0.9174,0.9893,1.0334,1.0334,1.1193,1.1465,1.0961,1.0477,0.9988,0.9496,0.8964,0.8392,0.7794,0.7256,0.6587,0.579,0.5382,0.5052,0.479,0.479,0.4903,0.5073,0.5492,0.5758,0.6086,0.7433,0.8732,1.0094,1.1589,1.243,1.2906,1.3787,1.4194,1.429,1.4229,1.4917,1.6473,2.0096,2.2525,2.481,2.8549,2.9617,2.9523,2.9208,2.9366,2.9744,3.0447,3.0598,3.1037,3.2693,3.2703,3.2382,3.2382,3.2904,3.3388,3.3642,3.3924,3.4662,3.6411,3.5219,3.4,3.372,3.4399,3.4883,3.4883,3.4883,3.5011,3.5268,3.5258,3.5095,3.4715,3.4763,3.4691,3.4497,3.457,3.4667,3.4787,3.4906,3.5756,3.7295,3.5985,3.581,3.6652,3.506,3.4226,0.0,0.0,0.0,0.0,0.0,1.1985,0.0,0.0,0.0,0.969,0.0,0.0,0.0,0.0,0.0,0.0,0.0,0.0,0.0,0.0,0.0,0.0,0.0,0.0,0.0,0.8996,0.9015,0.8743,0.9362,0.9856,1.004,1.1119,1.1612,1.1329,1.1095,1.084,1.0549,0.9809,0.9332,0.9112,0.8263,0.7393,0.65,0.5974,0.5472,0.4973,0.4973,0.5073,0.5241,0.5909,0.6432,0.6965,0.7905,0.8998,1.0218,1.1774,1.2485,1.2842,1.4145,1.4395,1.4279,1.5423,1.6281,1.7404,2.0484,2.31,2.5622,2.8577,2.9523,2.9617,2.9617,2.9775,3.0052,3.0507,3.0598,3.0598,3.0598,3.1623,3.2702,3.3287,3.3442,3.3591,3.4025,3.4448,3.4763,3.4883,3.4883,3.4739,3.43,3.4546,3.4787,3.4883,3.4977,3.5118,3.5337,3.5464,3.5396,3.4977,3.493,3.4859,3.4739,3.4739,3.4934,3.5324,3.5134,3.5442,3.6306,3.5525,3.64,3.8671,3.582,3.4488,0.0,0.0,0.0,0.0,1.6069,0.0,0.0,0.0,1.0784,0.8558,0.0,0.0,0.0,0.0,0.0,0.0,0.0,0.0,0.0,0.0,0.0,0.0,0.0,0.0,0.0,0.8034,0.7725,0.7755,0.8009,0.8853,1.0438,1.1366,1.229,1.3149,1.2828,1.2361,1.181,1.1366,1.0585,0.9545,0.9233,0.8487,0.7368,0.7114,0.677,0.638,0.638,0.6495,0.6654,0.6761,0.7199,0.7897,0.8627,0.9518,1.0608,1.2033,1.3025,1.3738,1.4382,1.4565,1.4676,1.5524,1.7983,2.0773,2.1769,2.3454,2.5507,2.8016,2.9145,2.9617,2.9617,3.0447,3.119,3.0687,3.0598,3.0598,3.0598,3.1964,3.3954,3.6445,3.534,3.4025,3.4101,3.4151,3.4349,3.4811,3.4883,3.4859,3.4811,3.4448,3.4374,3.4835,3.5281,3.5532,3.5554,3.5464,3.5383,3.5268,3.5152,3.5034,3.4859,3.4859,3.5313,3.6224,3.5656,3.6515,3.8864,3.7046,3.6285,3.6629,3.6242,3.5941,0.0,0.0,0.0,0.0,0.0,0.0,1.2946,0.0,1.0881,0.0,0.0,0.0,0.0,0.0,0.0,0.0,0.0,0.0,0.0,0.0,0.0,0.0,0.0,0.0,0.0,0.0,0.0,0.0,0.743,0.8273,0.9542,1.1015,1.22,1.2935,1.3158,1.3076,1.2709,1.2402,1.1758,1.0742,0.9986,0.9046,0.7953,0.732,0.6812,0.6473,0.6473,0.67,0.7103,0.732,0.7766,0.8392,0.9535,1.0253,1.0766,1.1942,1.2811,1.3528,1.431,1.4597,1.4883,1.6542,1.809,1.9704,2.1612,2.3271,2.5042,2.7827,2.9081,2.971,3.0083,3.0568,3.0896,3.0657,3.0598,3.1095,3.302,3.3378,3.3656,3.4826,3.4552,3.4201,3.4521,3.43,3.4374,3.5188,3.5304,3.5304,3.5304,3.5118,3.5071,3.5281,3.5487,3.5667,3.5822,3.5734,3.5701,3.5689,3.5509,3.5304,3.5152,3.4987,3.5177,3.5799,3.5631,3.6185,3.7577,3.7003,3.671,3.671,3.671,3.6464,2.1859,0.0,0.0,0.0,0.0,0.0,0.0,0.0,0.0,0.0,0.0,0.0,0.0,0.0,0.0,0.0,0.0,0.0,0.0,0.0,0.0,0.0,0.0,0.0,0.0,0.0,0.0,0.0,0.0,0.7626,0.9227,1.0857,1.2217,1.3279,1.3823,1.4006,1.3753,1.3338,1.2713,1.185,1.0779,0.9719,0.8638,0.7916,0.7315,0.6909,0.6909,0.7187,0.7649,0.7894,0.8321,0.8954,0.9962,1.0639,1.1125,1.2118,1.2855,1.3477,1.4274,1.4577,1.4854,1.6291,1.7317,1.8428,2.0892,2.2763,2.4554,2.6765,2.8463,2.9744,3.0417,3.0598,3.0628,3.0807,3.1423,3.2458,3.4267,3.3944,3.3309,3.3309,3.372,3.4275,3.4787,3.457,3.4618,3.5487,3.56,3.56,3.56,3.56,3.5711,3.5975,3.5822,3.5822,3.6062,3.5966,3.5878,3.5844,3.587,3.579,3.5616,3.5595,3.5528,3.5337,3.5441,3.5756,3.6233,3.6629,3.6951,3.7231,3.7071,3.6731,0.0,0.0,0.0,1.8159,0.0,0.0,0.0,0.0,1.3727,0.0,0.0,0.0,0.0,0.0,0.0,0.0,0.0,0.0,0.0,0.0,0.0,0.0,0.0,0.0,0.0,0.0,0.0,0.0,0.0,0.0,1.0165,1.1134,1.2708,1.5036,1.5496,1.5542,1.5136,1.4233,1.3364,1.2565,1.1681,1.064,0.9544,0.941,0.8876,0.8139,0.8139,0.8376,0.8754,0.856,0.8969,0.974,0.958,1.0464,1.1893,1.2806,1.355,1.4093,1.431,1.4489,1.4481,1.3838,1.5606,1.8279,1.9714,2.2002,2.4125,2.4204,2.684,2.9744,3.0417,3.0598,3.0747,3.1336,3.3453,3.4808,3.292,3.2912,3.3309,3.3309,3.372,3.4275,3.4787,3.4883,3.5024,3.5532,3.56,3.56,3.56,3.56,3.5975,3.6851,3.6381,3.6084,3.6262,3.5997,3.5689,3.543,3.6137,3.6495,3.6377,3.7032,3.6683,3.5142,3.5234,3.5566,3.6019,3.6233,3.6857,3.7845,3.728,3.6911,0.0,0.0,2.4855,2.0751,0.0,0.0,0.0,0.0,0.0,0.0,0.0,0.0,0.0,0.0,0.0,0.0,0.0,0.0,0.0,0.0,0.0,0.0,0.0,0.0,0.0,0.0,0.0,0.0,0.5722,0.0,0.0,1.1417,1.3339,1.514,1.6017,1.641,1.6332,1.5703,1.4816,1.366,1.2818,1.1707,1.0373,1.0226,0.9822,0.9256,0.9256,0.9448,0.9767,0.9716,0.9939,1.0378,1.0852,1.126,1.1647,1.2107,1.2866,1.3723,1.3832,1.4223,1.4782,1.5519,1.645,1.7545,1.8998,2.0709,2.2457,2.3747,2.6451,2.918,3.0296,3.0598,3.0747,3.1366,3.2491,3.3262,3.2542,3.2547,3.2823,3.3229,3.372,3.4151,3.4349,3.4667,3.5048,3.5532,3.5866,3.5975,3.5644,3.56,3.5734,3.6028,3.6444,3.6568,3.6305,3.6212,3.6105,3.5985,3.6258,3.6285,3.5994,3.6288,3.6749,3.7408,3.6068,3.5588,3.5997,3.6212,3.6942,3.8138,3.7274,3.7024,2.6196,2.6341,0.0,2.2513,2.0844,0.0,1.5448,0.0,0.0,0.0,0.0,0.0,0.0,0.0,0.0,0.0,0.0,0.0,0.0,0.0,0.0,0.0,0.0,0.0,0.0,0.0,0.4795,0.528,0.0,0.0,0.0,0.0,1.3767,1.5499,1.6317,1.693,1.7331,1.6464,1.5601,1.4644,1.3867,1.2771,1.1432,1.1334,1.093,1.0319,1.0443,1.0622,1.0843,1.0843,1.0951,1.1181,1.1571,1.1707,1.1736,1.2065,1.2784,1.363,1.36,1.3901,1.4529,1.5732,1.6464,1.7304,1.954,2.0667,2.1659,2.3999,2.5944,2.7855,3.0036,3.0598,3.0747,3.1366,3.1966,3.2743,3.3957,3.4231,3.4144,3.3912,3.5019,3.5684,3.4783,3.5038,3.543,3.5577,3.5866,3.5985,3.5888,3.5985,3.6105,3.6105,3.665,3.6811,3.636,3.6423,3.6423,3.6318,3.6602,3.659,3.6275,3.657,3.7274,3.8404,3.7316,3.6627,3.6473,3.6337,3.6907,3.8042,3.7178,3.704]}]]